Wetterdaten: Sonntag, 23.04.2017
Datum Zeit Temp. A. Feuchte A. Luftdruck Regen Wind Richtung Richtung Sonnenschein ET UV Solar Taupunkt Windchill Windben Empfang
23.04.2017 00:00 4,4 C 85 % 1019,5 hPa 0,0 l/m 7,7 km/h (2 Bft) W 260 0 min 0,000 mm 0,0 UV-I 0 W/m 2,1 C 3,2 C 12,9 km/h (3 Bft) 100,00 %
23.04.2017 00:02 4,4 C 85 % 1019,5 hPa 0,0 l/m 11,9 km/h (2 Bft) SW 235 0 min 0,000 mm 0,0 UV-I 0 W/m 2,1 C 0,1 C 17,7 km/h (3 Bft) 97,22 %
23.04.2017 00:04 4,3 C 84 % 1019,6 hPa 0,2 l/m 13,0 km/h (3 Bft) W-NW 282 0 min 0,000 mm 0,0 UV-I 0 W/m 1,8 C -0,7 C 19,3 km/h (3 Bft) 98,11 %
23.04.2017 00:06 4,3 C 84 % 1019,6 hPa 0,2 l/m 12,8 km/h (3 Bft) W 273 0 min 0,000 mm 0,0 UV-I 0 W/m 1,8 C -0,5 C 19,3 km/h (3 Bft) 97,37 %
23.04.2017 00:08 4,3 C 84 % 1019,6 hPa 0,2 l/m 11,8 km/h (2 Bft) W 264 0 min 0,000 mm 0,0 UV-I 0 W/m 1,8 C 0,1 C 17,7 km/h (3 Bft) 97,87 %
23.04.2017 00:10 4,2 C 85 % 1019,7 hPa 0,2 l/m 14,4 km/h (3 Bft) W 259 0 min 0,000 mm 0,0 UV-I 0 W/m 1,9 C -1,6 C 19,3 km/h (3 Bft) 100,00 %
23.04.2017 00:12 4,1 C 85 % 1019,7 hPa 0,2 l/m 8,6 km/h (2 Bft) W-SW 245 0 min 0,000 mm 0,0 UV-I 0 W/m 1,8 C 2,2 C 17,7 km/h (3 Bft) 100,00 %
23.04.2017 00:14 4,0 C 87 % 1019,7 hPa 0,2 l/m 5,1 km/h (1 Bft) W-NW 293 0 min 0,000 mm 0,0 UV-I 0 W/m 2,0 C 4,0 C 9,7 km/h (2 Bft) 97,14 %
23.04.2017 00:16 3,8 C 88 % 1019,7 hPa 0,0 l/m 6,9 km/h (2 Bft) SW 229 0 min 0,000 mm 0,0 UV-I 0 W/m 2,0 C 3,3 C 12,9 km/h (3 Bft) 92,45 %
23.04.2017 00:18 3,8 C 88 % 1019,8 hPa 0,2 l/m 9,7 km/h (2 Bft) W 261 0 min 0,000 mm 0,0 UV-I 0 W/m 2,0 C 1,0 C 17,7 km/h (3 Bft) 97,62 %
23.04.2017 00:20 3,7 C 88 % 1019,7 hPa 0,2 l/m 5,5 km/h (1 Bft) NW 306 0 min 0,000 mm 0,0 UV-I 0 W/m 1,9 C 3,7 C 14,5 km/h (3 Bft) 96,23 %
23.04.2017 00:22 3,7 C 89 % 1019,8 hPa 0,0 l/m 3,8 km/h (1 Bft) W-NW 292 0 min 0,000 mm 0,0 UV-I 0 W/m 2,1 C 3,7 C 9,7 km/h (2 Bft) 95,74 %
23.04.2017 00:24 3,7 C 89 % 1019,7 hPa 0,2 l/m 6,2 km/h (2 Bft) W-NW 284 0 min 0,000 mm 0,0 UV-I 0 W/m 2,1 C 3,7 C 11,3 km/h (2 Bft) 95,45 %
23.04.2017 00:26 3,6 C 89 % 1019,6 hPa 0,2 l/m 2,6 km/h (1 Bft) W 265 0 min 0,000 mm 0,0 UV-I 0 W/m 2,0 C 3,6 C 8,0 km/h (2 Bft) 98,11 %
23.04.2017 00:28 3,5 C 90 % 1019,7 hPa 0,2 l/m 4,5 km/h (1 Bft) W-NW 289 0 min 0,000 mm 0,0 UV-I 0 W/m 2,0 C 3,5 C 11,3 km/h (2 Bft) 95,12 %
23.04.2017 00:30 3,5 C 90 % 1019,6 hPa 0,0 l/m 3,2 km/h (1 Bft) W-NW 294 0 min 0,000 mm 0,0 UV-I 0 W/m 2,0 C 3,5 C 6,4 km/h (2 Bft) 94,34 %
23.04.2017 00:32 3,4 C 91 % 1019,5 hPa 0,0 l/m 1,1 km/h (1 Bft) N-NO 13 0 min 0,000 mm 0,0 UV-I 0 W/m 2,1 C 3,4 C 3,2 km/h (1 Bft) 97,37 %
23.04.2017 00:34 3,4 C 91 % 1019,5 hPa 0,2 l/m 1,5 km/h (1 Bft) SW 217 0 min 0,000 mm 0,0 UV-I 0 W/m 2,1 C 3,4 C 3,2 km/h (1 Bft) 94,00 %
23.04.2017 00:36 3,5 C 91 % 1019,5 hPa 0,0 l/m 2,8 km/h (1 Bft) S-SW 204 0 min 0,000 mm 0,0 UV-I 0 W/m 2,2 C 3,5 C 6,4 km/h (2 Bft) 98,11 %
23.04.2017 00:38 3,6 C 91 % 1019,5 hPa 0,0 l/m 4,4 km/h (1 Bft) S-SW 210 0 min 0,000 mm 0,0 UV-I 0 W/m 2,3 C 3,6 C 6,4 km/h (2 Bft) 94,74 %
23.04.2017 00:40 3,7 C 91 % 1019,5 hPa 0,0 l/m 3,0 km/h (1 Bft) S-SW 207 0 min 0,000 mm 0,0 UV-I 0 W/m 2,4 C 3,7 C 4,8 km/h (1 Bft) 96,23 %
23.04.2017 00:42 3,7 C 91 % 1019,4 hPa 0,0 l/m 3,2 km/h (1 Bft) S-SW 207 0 min 0,000 mm 0,0 UV-I 0 W/m 2,4 C 3,7 C 6,4 km/h (2 Bft) 98,00 %
23.04.2017 00:44 3,8 C 90 % 1019,5 hPa 0,0 l/m 0,6 km/h (0 Bft) S-SW 207 0 min 0,000 mm 0,0 UV-I 0 W/m 2,3 C 3,8 C 3,2 km/h (1 Bft) 92,11 %
23.04.2017 00:46 3,8 C 90 % 1019,4 hPa 0,0 l/m 0,1 km/h (0 Bft) S-SW 207 0 min 0,000 mm 0,0 UV-I 0 W/m 2,3 C 3,8 C 1,6 km/h (1 Bft) 98,11 %
23.04.2017 00:48 3,8 C 91 % 1019,3 hPa 0,0 l/m 1,1 km/h (1 Bft) S-SW 205 0 min 0,000 mm 0,0 UV-I 0 W/m 2,5 C 3,8 C 3,2 km/h (1 Bft) 92,00 %
23.04.2017 00:50 3,8 C 90 % 1019,3 hPa 0,0 l/m 2,8 km/h (1 Bft) S-SW 196 0 min 0,000 mm 0,0 UV-I 0 W/m 2,3 C 3,8 C 8,0 km/h (2 Bft) 94,74 %
23.04.2017 00:52 3,9 C 91 % 1019,3 hPa 0,0 l/m 4,0 km/h (1 Bft) S 184 0 min 0,000 mm 0,0 UV-I 0 W/m 2,6 C 3,9 C 9,7 km/h (2 Bft) 97,44 %
23.04.2017 00:54 3,9 C 91 % 1019,4 hPa 0,0 l/m 6,1 km/h (2 Bft) S-SO 165 0 min 0,000 mm 0,0 UV-I 0 W/m 2,6 C 3,9 C 12,9 km/h (3 Bft) 100,00 %
23.04.2017 00:56 4,0 C 91 % 1019,5 hPa 0,0 l/m 5,8 km/h (2 Bft) S 181 0 min 0,000 mm 0,0 UV-I 0 W/m 2,7 C 4,0 C 11,3 km/h (2 Bft) 98,11 %
23.04.2017 00:58 4,1 C 91 % 1019,5 hPa 0,0 l/m 5,8 km/h (2 Bft) S 176 0 min 0,000 mm 0,0 UV-I 0 W/m 2,8 C 4,1 C 9,7 km/h (2 Bft) 97,44 %
23.04.2017 01:00 4,2 C 91 % 1019,4 hPa 0,0 l/m 6,1 km/h (2 Bft) S-SW 197 0 min 0,000 mm 0,0 UV-I 0 W/m 2,9 C 4,2 C 11,3 km/h (2 Bft) 98,21 %
23.04.2017 01:01 4,2 C 91 % 1019,4 hPa 0,0 l/m 7,5 km/h (2 Bft) S-SW 198 0 min 0,000 mm 0,0 UV-I 0 W/m 2,9 C 3,2 C 12,9 km/h (3 Bft) 97,73 %
23.04.2017 01:04 4,2 C 92 % 1019,4 hPa 0,0 l/m 9,2 km/h (2 Bft) S-SO 156 0 min 0,000 mm 0,0 UV-I 0 W/m 3,0 C 1,8 C 14,5 km/h (3 Bft) 100,00 %
23.04.2017 01:06 4,3 C 92 % 1019,3 hPa 0,0 l/m 10,1 km/h (2 Bft) S 188 0 min 0,000 mm 0,0 UV-I 0 W/m 3,1 C 1,2 C 14,5 km/h (3 Bft) 97,96 %
23.04.2017 01:08 4,4 C 92 % 1019,4 hPa 0,0 l/m 12,7 km/h (3 Bft) SW 215 0 min 0,000 mm 0,0 UV-I 0 W/m 3,2 C -0,4 C 22,5 km/h (4 Bft) 97,44 %
23.04.2017 01:10 4,4 C 92 % 1019,5 hPa 0,0 l/m 15,5 km/h (3 Bft) W-SW 243 0 min 0,000 mm 0,0 UV-I 0 W/m 3,2 C -1,9 C 22,5 km/h (4 Bft) 98,11 %
23.04.2017 01:12 4,6 C 93 % 1019,5 hPa 0,0 l/m 13,8 km/h (3 Bft) SW 230 0 min 0,000 mm 0,0 UV-I 0 W/m 3,6 C -0,8 C 22,5 km/h (4 Bft) 100,00 %
23.04.2017 01:14 4,7 C 93 % 1019,6 hPa 0,0 l/m 10,1 km/h (2 Bft) S 182 0 min 0,000 mm 0,0 UV-I 0 W/m 3,7 C 1,7 C 22,5 km/h (4 Bft) 94,92 %
23.04.2017 01:16 4,7 C 93 % 1019,5 hPa 0,0 l/m 11,7 km/h (2 Bft) W 264 0 min 0,000 mm 0,0 UV-I 0 W/m 3,7 C 0,6 C 22,5 km/h (4 Bft) 97,87 %
23.04.2017 01:18 4,7 C 93 % 1019,6 hPa 0,0 l/m 10,4 km/h (2 Bft) W-SW 244 0 min 0,000 mm 0,0 UV-I 0 W/m 3,7 C 1,5 C 19,3 km/h (3 Bft) 100,00 %
23.04.2017 01:20 4,8 C 93 % 1019,6 hPa 0,0 l/m 8,3 km/h (2 Bft) SW 229 0 min 0,000 mm 0,0 UV-I 0 W/m 3,8 C 3,1 C 14,5 km/h (3 Bft) 100,00 %
23.04.2017 01:22 4,8 C 93 % 1019,6 hPa 0,0 l/m 6,8 km/h (2 Bft) S-SW 212 0 min 0,000 mm 0,0 UV-I 0 W/m 3,8 C 4,5 C 11,3 km/h (2 Bft) 97,06 %
23.04.2017 01:24 4,8 C 93 % 1019,5 hPa 0,0 l/m 11,8 km/h (2 Bft) SW 221 0 min 0,000 mm 0,0 UV-I 0 W/m 3,8 C 0,7 C 17,7 km/h (3 Bft) 95,12 %
23.04.2017 01:26 4,8 C 93 % 1019,5 hPa 0,0 l/m 10,5 km/h (2 Bft) SW 227 0 min 0,000 mm 0,0 UV-I 0 W/m 3,8 C 1,5 C 19,3 km/h (3 Bft) 94,34 %
23.04.2017 01:28 4,8 C 93 % 1019,5 hPa 0,0 l/m 9,9 km/h (2 Bft) W-SW 238 0 min 0,000 mm 0,0 UV-I 0 W/m 3,8 C 1,9 C 14,5 km/h (3 Bft) 100,00 %
23.04.2017 01:30 4,8 C 93 % 1019,5 hPa 0,0 l/m 10,1 km/h (2 Bft) S-SW 207 0 min 0,000 mm 0,0 UV-I 0 W/m 3,8 C 1,8 C 14,5 km/h (3 Bft) 97,73 %
23.04.2017 01:32 4,8 C 93 % 1019,6 hPa 0,0 l/m 11,2 km/h (2 Bft) W-SW 238 0 min 0,000 mm 0,0 UV-I 0 W/m 3,8 C 1,0 C 19,3 km/h (3 Bft) 96,43 %
23.04.2017 01:34 4,8 C 93 % 1019,6 hPa 0,0 l/m 17,3 km/h (3 Bft) SW 219 0 min 0,000 mm 0,0 UV-I 0 W/m 3,8 C -2,3 C 22,5 km/h (4 Bft) 97,37 %
23.04.2017 01:36 4,8 C 93 % 1019,6 hPa 0,0 l/m 14,5 km/h (3 Bft) W-SW 250 0 min 0,000 mm 0,0 UV-I 0 W/m 3,8 C -0,9 C 20,9 km/h (4 Bft) 96,43 %
23.04.2017 01:38 4,8 C 93 % 1019,6 hPa 0,0 l/m 13,2 km/h (3 Bft) W-SW 256 0 min 0,000 mm 0,0 UV-I 0 W/m 3,8 C -0,2 C 20,9 km/h (4 Bft) 100,00 %
23.04.2017 01:40 4,8 C 93 % 1019,6 hPa 0,0 l/m 16,2 km/h (3 Bft) W-SW 250 0 min 0,000 mm 0,0 UV-I 0 W/m 3,8 C -1,8 C 24,1 km/h (4 Bft) 97,78 %
23.04.2017 01:42 4,8 C 93 % 1019,6 hPa 0,0 l/m 15,9 km/h (3 Bft) SW 227 0 min 0,000 mm 0,0 UV-I 0 W/m 3,8 C -1,6 C 22,5 km/h (4 Bft) 98,18 %
23.04.2017 01:44 4,8 C 92 % 1019,6 hPa 0,0 l/m 13,3 km/h (3 Bft) W-SW 244 0 min 0,000 mm 0,0 UV-I 0 W/m 3,6 C -0,2 C 20,9 km/h (4 Bft) 100,00 %
23.04.2017 01:46 4,8 C 92 % 1019,6 hPa 0,2 l/m 14,6 km/h (3 Bft) SW 234 0 min 0,000 mm 0,0 UV-I 0 W/m 3,6 C -1,0 C 27,4 km/h (4 Bft) 94,23 %
23.04.2017 01:48 4,8 C 92 % 1019,5 hPa 0,0 l/m 20,3 km/h (4 Bft) W-SW 248 0 min 0,000 mm 0,0 UV-I 0 W/m 3,6 C -3,5 C 29,0 km/h (5 Bft) 97,22 %
23.04.2017 01:50 4,8 C 92 % 1019,5 hPa 0,2 l/m 18,2 km/h (3 Bft) SW 232 0 min 0,000 mm 0,0 UV-I 0 W/m 3,6 C -2,7 C 25,7 km/h (4 Bft) 98,21 %
23.04.2017 01:52 4,8 C 92 % 1019,4 hPa 0,0 l/m 18,1 km/h (3 Bft) SW 220 0 min 0,000 mm 0,0 UV-I 0 W/m 3,6 C -2,6 C 29,0 km/h (5 Bft) 97,73 %
23.04.2017 01:54 4,8 C 92 % 1019,4 hPa 0,2 l/m 19,4 km/h (3 Bft) S-SW 200 0 min 0,000 mm 0,0 UV-I 0 W/m 3,6 C -3,2 C 30,6 km/h (5 Bft) 94,34 %
23.04.2017 01:56 4,8 C 92 % 1019,5 hPa 0,2 l/m 14,9 km/h (3 Bft) W-SW 238 0 min 0,000 mm 0,0 UV-I 0 W/m 3,6 C -1,1 C 24,1 km/h (4 Bft) 95,12 %
23.04.2017 01:58 4,7 C 91 % 1019,5 hPa 0,2 l/m 10,6 km/h (2 Bft) SW 224 0 min 0,000 mm 0,0 UV-I 0 W/m 3,4 C 1,3 C 17,7 km/h (3 Bft) 97,73 %
23.04.2017 02:00 4,6 C 91 % 1019,4 hPa 0,2 l/m 5,8 km/h (2 Bft) S-SW 199 0 min 0,000 mm 0,0 UV-I 0 W/m 3,3 C 4,6 C 12,9 km/h (3 Bft) 95,12 %
23.04.2017 02:02 4,6 C 91 % 1019,5 hPa 0,2 l/m 4,8 km/h (1 Bft) W 273 0 min 0,000 mm 0,0 UV-I 0 W/m 3,3 C 4,6 C 11,3 km/h (2 Bft) 96,43 %
23.04.2017 02:04 4,6 C 91 % 1019,5 hPa 0,2 l/m 3,1 km/h (1 Bft) W-NW 288 0 min 0,000 mm 0,0 UV-I 0 W/m 3,3 C 4,6 C 8,0 km/h (2 Bft) 95,74 %
23.04.2017 02:06 4,5 C 91 % 1019,5 hPa 0,2 l/m 6,5 km/h (2 Bft) W 263 0 min 0,000 mm 0,0 UV-I 0 W/m 3,2 C 4,4 C 12,9 km/h (3 Bft) 96,00 %
23.04.2017 02:08 4,4 C 91 % 1019,3 hPa 0,0 l/m 6,7 km/h (2 Bft) S-SW 198 0 min 0,000 mm 0,0 UV-I 0 W/m 3,1 C 4,1 C 12,9 km/h (3 Bft) 94,29 %
23.04.2017 02:10 4,4 C 91 % 1019,3 hPa 0,2 l/m 8,5 km/h (2 Bft) S-SW 205 0 min 0,000 mm 0,0 UV-I 0 W/m 3,1 C 2,6 C 11,3 km/h (2 Bft) 98,21 %
23.04.2017 02:12 4,3 C 91 % 1019,4 hPa 0,0 l/m 5,4 km/h (1 Bft) W-SW 256 0 min 0,000 mm 0,0 UV-I 0 W/m 3,0 C 4,3 C 8,0 km/h (2 Bft) 97,37 %
23.04.2017 02:14 4,3 C 91 % 1019,3 hPa 0,2 l/m 7,6 km/h (2 Bft) SW 226 0 min 0,000 mm 0,0 UV-I 0 W/m 3,0 C 3,2 C 11,3 km/h (2 Bft) 98,31 %
23.04.2017 02:16 4,3 C 91 % 1019,3 hPa 0,2 l/m 4,5 km/h (1 Bft) W-NW 288 0 min 0,000 mm 0,0 UV-I 0 W/m 3,0 C 4,3 C 8,0 km/h (2 Bft) 97,56 %
23.04.2017 02:18 4,3 C 92 % 1019,5 hPa 0,0 l/m 2,5 km/h (1 Bft) W-NW 282 0 min 0,000 mm 0,0 UV-I 0 W/m 3,1 C 4,3 C 6,4 km/h (2 Bft) 97,87 %
23.04.2017 02:20 4,3 C 92 % 1019,4 hPa 0,0 l/m 6,8 km/h (2 Bft) W-SW 245 0 min 0,000 mm 0,0 UV-I 0 W/m 3,1 C 3,9 C 14,5 km/h (3 Bft) 94,34 %
23.04.2017 02:22 4,3 C 92 % 1019,4 hPa 0,2 l/m 5,1 km/h (1 Bft) W-SW 256 0 min 0,000 mm 0,0 UV-I 0 W/m 3,1 C 4,3 C 8,0 km/h (2 Bft) 94,87 %
23.04.2017 02:24 4,3 C 92 % 1019,4 hPa 0,0 l/m 3,1 km/h (1 Bft) W-NW 292 0 min 0,000 mm 0,0 UV-I 0 W/m 3,1 C 4,3 C 4,8 km/h (1 Bft) 93,62 %
23.04.2017 02:26 4,3 C 92 % 1019,4 hPa 0,2 l/m 3,0 km/h (1 Bft) W-NW 294 0 min 0,000 mm 0,0 UV-I 0 W/m 3,1 C 4,3 C 4,8 km/h (1 Bft) 96,00 %
23.04.2017 02:28 4,3 C 92 % 1019,4 hPa 0,2 l/m 5,3 km/h (1 Bft) W-SW 249 0 min 0,000 mm 0,0 UV-I 0 W/m 3,1 C 4,3 C 11,3 km/h (2 Bft) 90,00 %
23.04.2017 02:30 4,2 C 92 % 1019,5 hPa 0,0 l/m 5,8 km/h (2 Bft) W 277 0 min 0,000 mm 0,0 UV-I 0 W/m 3,0 C 4,2 C 9,7 km/h (2 Bft) 92,68 %
23.04.2017 02:32 4,2 C 92 % 1019,4 hPa 0,0 l/m 3,8 km/h (1 Bft) W-SW 257 0 min 0,000 mm 0,0 UV-I 0 W/m 3,0 C 4,2 C 8,0 km/h (2 Bft) 92,45 %
23.04.2017 02:34 4,2 C 92 % 1019,3 hPa 0,0 l/m 2,7 km/h (1 Bft) S-SW 202 0 min 0,000 mm 0,0 UV-I 0 W/m 3,0 C 4,2 C 8,0 km/h (2 Bft) 92,11 %
23.04.2017 02:36 4,2 C 92 % 1019,3 hPa 0,2 l/m 5,0 km/h (1 Bft) SW 217 0 min 0,000 mm 0,0 UV-I 0 W/m 3,0 C 4,2 C 17,7 km/h (3 Bft) 95,45 %
23.04.2017 02:38 4,2 C 92 % 1019,3 hPa 0,0 l/m 6,0 km/h (2 Bft) S 186 0 min 0,000 mm 0,0 UV-I 0 W/m 3,0 C 4,2 C 11,3 km/h (2 Bft) 94,92 %
23.04.2017 02:40 4,2 C 92 % 1019,3 hPa 0,0 l/m 7,4 km/h (2 Bft) W 260 0 min 0,000 mm 0,0 UV-I 0 W/m 3,0 C 3,3 C 12,9 km/h (3 Bft) 94,74 %
23.04.2017 02:42 4,2 C 91 % 1019,4 hPa 0,0 l/m 8,9 km/h (2 Bft) W-NW 301 0 min 0,000 mm 0,0 UV-I 0 W/m 2,9 C 2,0 C 19,3 km/h (3 Bft) 92,45 %
23.04.2017 02:44 4,2 C 91 % 1019,4 hPa 0,0 l/m 6,3 km/h (2 Bft) W-NW 302 0 min 0,000 mm 0,0 UV-I 0 W/m 2,9 C 4,2 C 12,9 km/h (3 Bft) 97,37 %
23.04.2017 02:46 4,1 C 92 % 1019,3 hPa 0,0 l/m 3,6 km/h (1 Bft) N 11 0 min 0,000 mm 0,0 UV-I 0 W/m 2,9 C 4,1 C 8,0 km/h (2 Bft) 91,07 %
23.04.2017 02:48 4,1 C 92 % 1019,3 hPa 0,0 l/m 1,2 km/h (1 Bft) N 11 0 min 0,000 mm 0,0 UV-I 0 W/m 2,9 C 4,1 C 4,8 km/h (1 Bft) 92,68 %
23.04.2017 02:50 4,1 C 92 % 1019,4 hPa 0,0 l/m 0,8 km/h (0 Bft) N-NW 344 0 min 0,000 mm 0,0 UV-I 0 W/m 2,9 C 4,1 C 3,2 km/h (1 Bft) 94,34 %
23.04.2017 02:52 4,1 C 92 % 1019,4 hPa 0,0 l/m 0,8 km/h (0 Bft) W 278 0 min 0,000 mm 0,0 UV-I 0 W/m 2,9 C 4,1 C 4,8 km/h (1 Bft) 92,00 %
23.04.2017 02:54 4,0 C 92 % 1019,3 hPa 0,0 l/m 2,8 km/h (1 Bft) W-NW 298 0 min 0,000 mm 0,0 UV-I 0 W/m 2,8 C 4,0 C 6,4 km/h (2 Bft) 94,74 %
23.04.2017 02:56 4,0 C 92 % 1019,3 hPa 0,0 l/m 8,6 km/h (2 Bft) W-SW 255 0 min 0,000 mm 0,0 UV-I 0 W/m 2,8 C 2,0 C 14,5 km/h (3 Bft) 98,11 %
23.04.2017 02:58 3,9 C 92 % 1019,3 hPa 0,0 l/m 8,6 km/h (2 Bft) W-SW 242 0 min 0,000 mm 0,0 UV-I 0 W/m 2,7 C 1,9 C 14,5 km/h (3 Bft) 92,68 %
23.04.2017 03:00 3,9 C 92 % 1019,2 hPa 0,0 l/m 11,4 km/h (2 Bft) SW 217 0 min 0,000 mm 0,0 UV-I 0 W/m 2,7 C -0,1 C 20,9 km/h (4 Bft) 100,00 %
23.04.2017 03:02 3,9 C 92 % 1019,2 hPa 0,0 l/m 11,9 km/h (2 Bft) SW 227 0 min 0,000 mm 0,0 UV-I 0 W/m 2,7 C -0,4 C 17,7 km/h (3 Bft) 100,00 %
23.04.2017 03:04 3,9 C 92 % 1019,1 hPa 0,0 l/m 11,3 km/h (2 Bft) W-SW 250 0 min 0,000 mm 0,0 UV-I 0 W/m 2,7 C -0,1 C 17,7 km/h (3 Bft) 97,62 %
23.04.2017 03:06 4,0 C 92 % 1019,1 hPa 0,0 l/m 10,2 km/h (2 Bft) SW 222 0 min 0,000 mm 0,0 UV-I 0 W/m 2,8 C 0,8 C 16,1 km/h (3 Bft) 98,00 %
23.04.2017 03:08 4,0 C 92 % 1019,1 hPa 0,0 l/m 12,0 km/h (2 Bft) SW 221 0 min 0,000 mm 0,0 UV-I 0 W/m 2,8 C -0,4 C 22,5 km/h (4 Bft) 94,74 %
23.04.2017 03:10 3,9 C 91 % 1019,1 hPa 0,0 l/m 16,3 km/h (3 Bft) S-SW 212 0 min 0,000 mm 0,0 UV-I 0 W/m 2,6 C -2,9 C 29,0 km/h (5 Bft) 94,92 %
23.04.2017 03:12 3,9 C 91 % 1019,0 hPa 0,0 l/m 16,3 km/h (3 Bft) S-SW 213 0 min 0,000 mm 0,0 UV-I 0 W/m 2,6 C -2,9 C 27,4 km/h (4 Bft) 97,73 %
23.04.2017 03:14 3,9 C 91 % 1019,0 hPa 0,0 l/m 15,3 km/h (3 Bft) S-SW 207 0 min 0,000 mm 0,0 UV-I 0 W/m 2,6 C -2,4 C 20,9 km/h (4 Bft) 94,34 %
23.04.2017 03:16 3,9 C 91 % 1018,9 hPa 0,0 l/m 14,9 km/h (3 Bft) SW 227 0 min 0,000 mm 0,0 UV-I 0 W/m 2,6 C -2,2 C 22,5 km/h (4 Bft) 100,00 %
23.04.2017 03:18 3,9 C 91 % 1019,0 hPa 0,0 l/m 15,2 km/h (3 Bft) S 191 0 min 0,000 mm 0,0 UV-I 0 W/m 2,6 C -2,4 C 22,5 km/h (4 Bft) 97,87 %
23.04.2017 03:20 3,9 C 91 % 1019,0 hPa 0,0 l/m 16,4 km/h (3 Bft) S-SW 196 0 min 0,000 mm 0,0 UV-I 0 W/m 2,6 C -3,0 C 22,5 km/h (4 Bft) 100,00 %
23.04.2017 03:22 3,9 C 91 % 1019,0 hPa 0,0 l/m 13,7 km/h (3 Bft) S-SW 202 0 min 0,000 mm 0,0 UV-I 0 W/m 2,6 C -1,5 C 24,1 km/h (4 Bft) 94,64 %
23.04.2017 03:24 3,8 C 91 % 1019,0 hPa 0,0 l/m 13,4 km/h (3 Bft) SW 220 0 min 0,000 mm 0,0 UV-I 0 W/m 2,5 C -1,5 C 27,4 km/h (4 Bft) 97,56 %
23.04.2017 03:26 3,8 C 91 % 1019,0 hPa 0,0 l/m 16,0 km/h (3 Bft) S-SW 194 0 min 0,000 mm 0,0 UV-I 0 W/m 2,5 C -2,9 C 24,1 km/h (4 Bft) 98,11 %
23.04.2017 03:28 3,8 C 91 % 1019,0 hPa 0,0 l/m 15,1 km/h (3 Bft) S-SW 198 0 min 0,000 mm 0,0 UV-I 0 W/m 2,5 C -2,4 C 20,9 km/h (4 Bft) 97,87 %
23.04.2017 03:30 3,8 C 91 % 1019,0 hPa 0,0 l/m 15,8 km/h (3 Bft) S-SW 210 0 min 0,000 mm 0,0 UV-I 0 W/m 2,5 C -2,8 C 20,9 km/h (4 Bft) 100,00 %
23.04.2017 03:32 3,8 C 91 % 1019,1 hPa 0,0 l/m 13,5 km/h (3 Bft) W 261 0 min 0,000 mm 0,0 UV-I 0 W/m 2,5 C -1,5 C 19,3 km/h (3 Bft) 95,12 %
23.04.2017 03:34 3,8 C 91 % 1019,1 hPa 0,0 l/m 18,3 km/h (3 Bft) SW 229 0 min 0,000 mm 0,0 UV-I 0 W/m 2,5 C -4,0 C 27,4 km/h (4 Bft) 97,87 %
23.04.2017 03:36 3,8 C 92 % 1019,1 hPa 0,0 l/m 14,3 km/h (3 Bft) W-SW 238 0 min 0,000 mm 0,0 UV-I 0 W/m 2,6 C -2,0 C 22,5 km/h (4 Bft) 100,00 %
23.04.2017 03:38 3,8 C 92 % 1019,1 hPa 0,0 l/m 16,3 km/h (3 Bft) S-SW 192 0 min 0,000 mm 0,0 UV-I 0 W/m 2,6 C -3,0 C 25,7 km/h (4 Bft) 97,37 %
23.04.2017 03:40 3,8 C 92 % 1019,1 hPa 0,0 l/m 17,6 km/h (3 Bft) S-SW 201 0 min 0,000 mm 0,0 UV-I 0 W/m 2,6 C -3,7 C 27,4 km/h (4 Bft) 96,43 %
23.04.2017 03:42 3,7 C 92 % 1019,0 hPa 0,0 l/m 15,7 km/h (3 Bft) S-SW 204 0 min 0,000 mm 0,0 UV-I 0 W/m 2,5 C -2,9 C 27,4 km/h (4 Bft) 98,00 %
23.04.2017 03:44 3,7 C 92 % 1019,0 hPa 0,0 l/m 13,8 km/h (3 Bft) SW 236 0 min 0,000 mm 0,0 UV-I 0 W/m 2,5 C -1,8 C 22,5 km/h (4 Bft) 100,00 %
23.04.2017 03:46 3,7 C 92 % 1018,9 hPa 0,0 l/m 15,7 km/h (3 Bft) S-SW 211 0 min 0,000 mm 0,0 UV-I 0 W/m 2,5 C -2,9 C 27,4 km/h (4 Bft) 95,74 %
23.04.2017 03:48 3,7 C 92 % 1018,9 hPa 0,0 l/m 15,0 km/h (3 Bft) S-SO 165 0 min 0,000 mm 0,0 UV-I 0 W/m 2,5 C -2,5 C 24,1 km/h (4 Bft) 100,00 %
23.04.2017 03:50 3,7 C 92 % 1018,9 hPa 0,0 l/m 12,9 km/h (3 Bft) SW 236 0 min 0,000 mm 0,0 UV-I 0 W/m 2,5 C -1,3 C 25,7 km/h (4 Bft) 100,00 %
23.04.2017 03:52 3,7 C 92 % 1019,0 hPa 0,0 l/m 19,4 km/h (3 Bft) SW 233 0 min 0,000 mm 0,0 UV-I 0 W/m 2,5 C -4,6 C 25,7 km/h (4 Bft) 100,00 %
23.04.2017 03:54 3,7 C 92 % 1019,1 hPa 0,0 l/m 18,5 km/h (3 Bft) SW 233 0 min 0,000 mm 0,0 UV-I 0 W/m 2,5 C -4,2 C 27,4 km/h (4 Bft) 100,00 %
23.04.2017 03:56 3,7 C 92 % 1019,1 hPa 0,0 l/m 19,9 km/h (4 Bft) W-SW 247 0 min 0,000 mm 0,0 UV-I 0 W/m 2,5 C -4,8 C 27,4 km/h (4 Bft) 100,00 %
23.04.2017 03:58 3,7 C 92 % 1019,1 hPa 0,0 l/m 21,1 km/h (4 Bft) SW 224 0 min 0,000 mm 0,0 UV-I 0 W/m 2,5 C -5,3 C 29,0 km/h (5 Bft) 100,00 %
23.04.2017 04:00 3,7 C 92 % 1019,2 hPa 0,0 l/m 18,8 km/h (3 Bft) SW 218 0 min 0,000 mm 0,0 UV-I 0 W/m 2,5 C -4,3 C 29,0 km/h (5 Bft) 97,87 %
23.04.2017 04:02 3,8 C 92 % 1019,2 hPa 0,0 l/m 24,3 km/h (4 Bft) SW 235 0 min 0,000 mm 0,0 UV-I 0 W/m 2,6 C -6,3 C 32,2 km/h (5 Bft) 100,00 %
23.04.2017 04:04 3,7 C 92 % 1019,2 hPa 0,0 l/m 22,9 km/h (4 Bft) SW 234 0 min 0,000 mm 0,0 UV-I 0 W/m 2,5 C -6,0 C 35,4 km/h (5 Bft) 98,00 %
23.04.2017 04:06 3,7 C 92 % 1019,2 hPa 0,0 l/m 15,3 km/h (3 Bft) SW 225 0 min 0,000 mm 0,0 UV-I 0 W/m 2,5 C -2,7 C 24,1 km/h (4 Bft) 100,00 %
23.04.2017 04:08 3,7 C 92 % 1019,2 hPa 0,0 l/m 21,7 km/h (4 Bft) SW 217 0 min 0,000 mm 0,0 UV-I 0 W/m 2,5 C -5,5 C 33,8 km/h (5 Bft) 98,00 %
23.04.2017 04:10 3,7 C 92 % 1019,2 hPa 0,2 l/m 19,3 km/h (3 Bft) SW 221 0 min 0,000 mm 0,0 UV-I 0 W/m 2,5 C -4,6 C 27,4 km/h (4 Bft) 98,00 %
23.04.2017 04:12 3,7 C 92 % 1019,3 hPa 0,0 l/m 19,0 km/h (3 Bft) SW 223 0 min 0,000 mm 0,0 UV-I 0 W/m 2,5 C -4,4 C 27,4 km/h (4 Bft) 95,45 %
23.04.2017 04:14 3,7 C 92 % 1019,3 hPa 0,0 l/m 22,2 km/h (4 Bft) SW 226 0 min 0,000 mm 0,0 UV-I 0 W/m 2,5 C -5,7 C 32,2 km/h (5 Bft) 100,00 %
23.04.2017 04:16 3,7 C 92 % 1019,3 hPa 0,0 l/m 18,6 km/h (3 Bft) SW 216 0 min 0,000 mm 0,0 UV-I 0 W/m 2,5 C -4,3 C 30,6 km/h (5 Bft) 97,73 %
23.04.2017 04:18 3,7 C 92 % 1019,3 hPa 0,0 l/m 18,5 km/h (3 Bft) SW 227 0 min 0,000 mm 0,0 UV-I 0 W/m 2,5 C -4,2 C 27,4 km/h (4 Bft) 100,00 %
23.04.2017 04:20 3,7 C 92 % 1019,4 hPa 0,0 l/m 15,0 km/h (3 Bft) SW 229 0 min 0,000 mm 0,0 UV-I 0 W/m 2,5 C -2,5 C 22,5 km/h (4 Bft) 96,30 %
23.04.2017 04:22 3,7 C 92 % 1019,4 hPa 0,0 l/m 14,3 km/h (3 Bft) W-SW 238 0 min 0,000 mm 0,0 UV-I 0 W/m 2,5 C -2,1 C 20,9 km/h (4 Bft) 98,57 %
23.04.2017 04:24 3,7 C 92 % 1019,4 hPa 0,0 l/m 15,6 km/h (3 Bft) SW 223 0 min 0,000 mm 0,0 UV-I 0 W/m 2,5 C -2,8 C 22,5 km/h (4 Bft) 100,00 %
23.04.2017 04:26 3,7 C 92 % 1019,4 hPa 0,0 l/m 15,6 km/h (3 Bft) W-SW 247 0 min 0,000 mm 0,0 UV-I 0 W/m 2,5 C -2,8 C 22,5 km/h (4 Bft) 95,45 %
23.04.2017 04:28 3,7 C 92 % 1019,5 hPa 0,0 l/m 14,6 km/h (3 Bft) SW 230 0 min 0,000 mm 0,0 UV-I 0 W/m 2,5 C -2,3 C 24,1 km/h (4 Bft) 100,00 %
23.04.2017 04:30 3,7 C 92 % 1019,5 hPa 0,0 l/m 15,1 km/h (3 Bft) W-SW 244 0 min 0,000 mm 0,0 UV-I 0 W/m 2,5 C -2,6 C 22,5 km/h (4 Bft) 92,00 %
23.04.2017 04:32 3,7 C 92 % 1019,5 hPa 0,0 l/m 21,5 km/h (4 Bft) W-SW 238 0 min 0,000 mm 0,0 UV-I 0 W/m 2,5 C -5,5 C 33,8 km/h (5 Bft) 97,56 %
23.04.2017 04:34 3,7 C 92 % 1019,5 hPa 0,0 l/m 19,4 km/h (3 Bft) SW 227 0 min 0,000 mm 0,0 UV-I 0 W/m 2,5 C -4,6 C 33,8 km/h (5 Bft) 93,18 %
23.04.2017 04:36 3,7 C 92 % 1019,5 hPa 0,0 l/m 19,5 km/h (3 Bft) SW 230 0 min 0,000 mm 0,0 UV-I 0 W/m 2,5 C -4,6 C 24,1 km/h (4 Bft) 93,62 %
23.04.2017 04:38 3,7 C 92 % 1019,5 hPa 0,0 l/m 18,9 km/h (3 Bft) W-SW 252 0 min 0,000 mm 0,0 UV-I 0 W/m 2,5 C -4,4 C 25,7 km/h (4 Bft) 98,21 %
23.04.2017 04:40 3,7 C 92 % 1019,5 hPa 0,0 l/m 19,5 km/h (3 Bft) W-SW 248 0 min 0,000 mm 0,0 UV-I 0 W/m 2,5 C -4,6 C 27,4 km/h (4 Bft) 94,74 %
23.04.2017 04:42 3,7 C 92 % 1019,6 hPa 0,0 l/m 14,4 km/h (3 Bft) SW 233 0 min 0,000 mm 0,0 UV-I 0 W/m 2,5 C -2,2 C 22,5 km/h (4 Bft) 98,11 %
23.04.2017 04:44 3,7 C 92 % 1019,6 hPa 0,0 l/m 17,0 km/h (3 Bft) W-SW 246 0 min 0,000 mm 0,0 UV-I 0 W/m 2,5 C -3,5 C 25,7 km/h (4 Bft) 94,74 %
23.04.2017 04:46 3,7 C 92 % 1019,7 hPa 0,0 l/m 14,9 km/h (3 Bft) W-SW 242 0 min 0,000 mm 0,0 UV-I 0 W/m 2,5 C -2,4 C 22,5 km/h (4 Bft) 96,43 %
23.04.2017 04:48 3,7 C 92 % 1019,7 hPa 0,0 l/m 10,1 km/h (2 Bft) W 261 0 min 0,000 mm 0,0 UV-I 0 W/m 2,5 C 0,6 C 16,1 km/h (3 Bft) 97,56 %
23.04.2017 04:50 3,7 C 92 % 1019,7 hPa 0,0 l/m 12,5 km/h (3 Bft) W-SW 257 0 min 0,000 mm 0,0 UV-I 0 W/m 2,5 C -1,1 C 19,3 km/h (3 Bft) 96,23 %
23.04.2017 04:52 3,7 C 92 % 1019,7 hPa 0,0 l/m 14,5 km/h (3 Bft) W-SW 258 0 min 0,000 mm 0,0 UV-I 0 W/m 2,5 C -2,2 C 20,9 km/h (4 Bft) 97,56 %
23.04.2017 04:54 3,7 C 92 % 1019,7 hPa 0,0 l/m 14,9 km/h (3 Bft) SW 228 0 min 0,000 mm 0,0 UV-I 0 W/m 2,5 C -2,4 C 24,1 km/h (4 Bft) 96,23 %
23.04.2017 04:56 3,7 C 92 % 1019,7 hPa 0,0 l/m 15,0 km/h (3 Bft) W-SW 257 0 min 0,000 mm 0,0 UV-I 0 W/m 2,5 C -2,5 C 22,5 km/h (4 Bft) 97,56 %
23.04.2017 04:58 3,7 C 92 % 1019,7 hPa 0,0 l/m 19,4 km/h (3 Bft) SW 221 0 min 0,000 mm 0,0 UV-I 0 W/m 2,5 C -4,6 C 27,4 km/h (4 Bft) 100,00 %
23.04.2017 05:00 3,7 C 92 % 1019,7 hPa 0,0 l/m 18,9 km/h (3 Bft) SW 224 0 min 0,025 mm 0,0 UV-I 0 W/m 2,5 C -4,4 C 27,4 km/h (4 Bft) 94,52 %
23.04.2017 05:02 3,6 C 92 % 1019,7 hPa 0,0 l/m 13,8 km/h (3 Bft) W-SW 242 0 min 0,000 mm 0,0 UV-I 0 W/m 2,4 C -2,0 C 19,3 km/h (3 Bft) 95,24 %
23.04.2017 05:04 3,7 C 92 % 1019,7 hPa 0,0 l/m 16,9 km/h (3 Bft) SW 226 0 min 0,000 mm 0,0 UV-I 0 W/m 2,5 C -3,5 C 27,4 km/h (4 Bft) 95,12 %
23.04.2017 05:06 3,6 C 93 % 1019,8 hPa 0,0 l/m 15,7 km/h (3 Bft) S-SW 212 0 min 0,000 mm 0,0 UV-I 0 W/m 2,6 C -3,0 C 24,1 km/h (4 Bft) 98,11 %
23.04.2017 05:08 3,6 C 93 % 1019,8 hPa 0,0 l/m 13,3 km/h (3 Bft) SW 229 0 min 0,000 mm 0,0 UV-I 0 W/m 2,6 C -1,7 C 19,3 km/h (3 Bft) 100,00 %
23.04.2017 05:10 3,6 C 93 % 1019,8 hPa 0,0 l/m 15,9 km/h (3 Bft) SW 227 0 min 0,000 mm 0,0 UV-I 0 W/m 2,6 C -3,1 C 22,5 km/h (4 Bft) 97,56 %
23.04.2017 05:12 3,6 C 92 % 1019,8 hPa 0,0 l/m 15,8 km/h (3 Bft) SW 229 0 min 0,000 mm 0,0 UV-I 0 W/m 2,4 C -3,0 C 22,5 km/h (4 Bft) 98,21 %
23.04.2017 05:14 3,6 C 93 % 1019,8 hPa 0,0 l/m 12,4 km/h (3 Bft) SW 216 0 min 0,000 mm 0,0 UV-I 0 W/m 2,6 C -1,1 C 17,7 km/h (3 Bft) 100,00 %
23.04.2017 05:16 3,6 C 92 % 1019,8 hPa 0,0 l/m 15,6 km/h (3 Bft) SW 225 0 min 0,000 mm 0,0 UV-I 0 W/m 2,4 C -2,9 C 22,5 km/h (4 Bft) 97,37 %
23.04.2017 05:18 3,6 C 92 % 1019,8 hPa 0,0 l/m 13,0 km/h (3 Bft) W 268 0 min 0,000 mm 0,0 UV-I 0 W/m 2,4 C -1,5 C 19,3 km/h (3 Bft) 100,00 %
23.04.2017 05:20 3,6 C 92 % 1019,9 hPa 0,0 l/m 11,8 km/h (2 Bft) SW 230 0 min 0,000 mm 0,0 UV-I 0 W/m 2,4 C -0,7 C 16,1 km/h (3 Bft) 98,00 %
23.04.2017 05:22 3,6 C 93 % 1019,9 hPa 0,0 l/m 12,8 km/h (3 Bft) SW 233 0 min 0,000 mm 0,0 UV-I 0 W/m 2,6 C -1,4 C 17,7 km/h (3 Bft) 97,73 %
23.04.2017 05:24 3,6 C 93 % 1019,9 hPa 0,0 l/m 15,2 km/h (3 Bft) SW 226 0 min 0,000 mm 0,0 UV-I 0 W/m 2,6 C -2,7 C 25,7 km/h (4 Bft) 100,00 %
23.04.2017 05:26 3,6 C 93 % 1020,0 hPa 0,0 l/m 13,3 km/h (3 Bft) W-SW 248 0 min 0,000 mm 0,0 UV-I 0 W/m 2,6 C -1,7 C 17,7 km/h (3 Bft) 97,56 %
23.04.2017 05:28 3,6 C 93 % 1020,0 hPa 0,0 l/m 12,5 km/h (3 Bft) SW 226 0 min 0,000 mm 0,0 UV-I 0 W/m 2,6 C -1,2 C 17,7 km/h (3 Bft) 100,00 %
23.04.2017 05:30 3,6 C 93 % 1020,0 hPa 0,0 l/m 14,1 km/h (3 Bft) W-SW 257 0 min 0,000 mm 0,0 UV-I 0 W/m 2,6 C -2,1 C 22,5 km/h (4 Bft) 98,00 %
23.04.2017 05:32 3,6 C 93 % 1020,1 hPa 0,0 l/m 11,5 km/h (2 Bft) W-SW 237 0 min 0,000 mm 0,0 UV-I 0 W/m 2,6 C -0,5 C 19,3 km/h (3 Bft) 100,00 %
23.04.2017 05:34 3,6 C 93 % 1020,0 hPa 0,0 l/m 13,8 km/h (3 Bft) S-SW 210 0 min 0,000 mm 0,0 UV-I 0 W/m 2,6 C -2,0 C 19,3 km/h (3 Bft) 97,22 %
23.04.2017 05:36 3,6 C 93 % 1020,1 hPa 0,0 l/m 12,8 km/h (3 Bft) W-SW 240 0 min 0,000 mm 0,0 UV-I 0 W/m 2,6 C -1,4 C 22,5 km/h (4 Bft) 98,18 %
23.04.2017 05:38 3,6 C 93 % 1020,0 hPa 0,0 l/m 13,2 km/h (3 Bft) SW 216 0 min 0,000 mm 0,0 UV-I 0 W/m 2,6 C -1,6 C 17,7 km/h (3 Bft) 100,00 %
23.04.2017 05:40 3,6 C 93 % 1020,0 hPa 0,0 l/m 11,8 km/h (2 Bft) W-SW 249 0 min 0,000 mm 0,0 UV-I 0 W/m 2,6 C -0,7 C 16,1 km/h (3 Bft) 95,12 %
23.04.2017 05:42 3,6 C 93 % 1020,0 hPa 0,0 l/m 9,9 km/h (2 Bft) SW 217 0 min 0,000 mm 0,0 UV-I 0 W/m 2,6 C 0,6 C 14,5 km/h (3 Bft) 100,00 %
23.04.2017 05:44 3,6 C 93 % 1020,0 hPa 0,0 l/m 10,4 km/h (2 Bft) SW 234 0 min 0,000 mm 0,0 UV-I 0 W/m 2,6 C 0,2 C 14,5 km/h (3 Bft) 100,00 %
23.04.2017 05:46 3,6 C 93 % 1020,0 hPa 0,0 l/m 9,7 km/h (2 Bft) SW 234 0 min 0,000 mm 0,0 UV-I 0 W/m 2,6 C 0,8 C 14,5 km/h (3 Bft) 94,34 %
23.04.2017 05:48 3,6 C 93 % 1020,0 hPa 0,0 l/m 8,8 km/h (2 Bft) W-SW 255 0 min 0,000 mm 0,0 UV-I 0 W/m 2,6 C 1,5 C 14,5 km/h (3 Bft) 98,11 %
23.04.2017 05:50 3,6 C 93 % 1020,0 hPa 0,0 l/m 8,5 km/h (2 Bft) SW 233 0 min 0,000 mm 0,0 UV-I 0 W/m 2,6 C 1,7 C 14,5 km/h (3 Bft) 98,11 %
23.04.2017 05:52 3,6 C 93 % 1020,0 hPa 0,0 l/m 11,0 km/h (2 Bft) W-SW 238 0 min 0,000 mm 0,0 UV-I 0 W/m 2,6 C -0,2 C 16,1 km/h (3 Bft) 97,56 %
23.04.2017 05:54 3,6 C 93 % 1020,1 hPa 0,0 l/m 11,2 km/h (2 Bft) W-SW 238 0 min 0,000 mm 0,0 UV-I 0 W/m 2,6 C -0,3 C 17,7 km/h (3 Bft) 96,00 %
23.04.2017 05:56 3,6 C 93 % 1020,1 hPa 0,0 l/m 11,0 km/h (2 Bft) SW 234 0 min 0,000 mm 0,0 UV-I 2 W/m 2,6 C -0,2 C 16,1 km/h (3 Bft) 95,12 %
23.04.2017 05:58 3,6 C 93 % 1020,2 hPa 0,0 l/m 14,6 km/h (3 Bft) W-SW 248 0 min 0,000 mm 0,0 UV-I 5 W/m 2,6 C -2,4 C 20,9 km/h (4 Bft) 96,23 %
23.04.2017 06:00 3,6 C 93 % 1020,3 hPa 0,0 l/m 13,6 km/h (3 Bft) S-SW 200 0 min 0,000 mm 0,0 UV-I 5 W/m 2,6 C -1,8 C 19,3 km/h (3 Bft) 98,00 %
23.04.2017 06:02 3,6 C 93 % 1020,3 hPa 0,0 l/m 13,9 km/h (3 Bft) SW 219 0 min 0,000 mm 0,0 UV-I 5 W/m 2,6 C -2,0 C 20,9 km/h (4 Bft) 97,87 %
23.04.2017 06:04 3,6 C 93 % 1020,3 hPa 0,0 l/m 10,9 km/h (2 Bft) W-SW 244 0 min 0,000 mm 0,0 UV-I 5 W/m 2,6 C -0,1 C 17,7 km/h (3 Bft) 95,12 %
23.04.2017 06:06 3,6 C 93 % 1020,3 hPa 0,0 l/m 13,1 km/h (3 Bft) SW 232 0 min 0,000 mm 0,0 UV-I 5 W/m 2,6 C -1,5 C 20,9 km/h (4 Bft) 95,12 %
23.04.2017 06:08 3,6 C 93 % 1020,3 hPa 0,0 l/m 9,7 km/h (2 Bft) SW 218 0 min 0,000 mm 0,0 UV-I 5 W/m 2,6 C 0,8 C 14,5 km/h (3 Bft) 98,11 %
23.04.2017 06:10 3,6 C 93 % 1020,4 hPa 0,0 l/m 10,1 km/h (2 Bft) S-SW 210 0 min 0,000 mm 0,0 UV-I 6 W/m 2,6 C 0,5 C 17,7 km/h (3 Bft) 95,12 %
23.04.2017 06:12 3,6 C 93 % 1020,4 hPa 0,0 l/m 9,5 km/h (2 Bft) SW 224 0 min 0,000 mm 0,0 UV-I 7 W/m 2,6 C 0,9 C 16,1 km/h (3 Bft) 93,88 %
23.04.2017 06:14 3,6 C 93 % 1020,5 hPa 0,0 l/m 10,6 km/h (2 Bft) W-SW 254 0 min 0,000 mm 0,0 UV-I 7 W/m 2,6 C 0,1 C 16,1 km/h (3 Bft) 97,87 %
23.04.2017 06:16 3,6 C 93 % 1020,5 hPa 0,0 l/m 8,1 km/h (2 Bft) SW 216 0 min 0,000 mm 0,0 UV-I 8 W/m 2,6 C 2,0 C 12,9 km/h (3 Bft) 97,73 %
23.04.2017 06:18 3,6 C 93 % 1020,6 hPa 0,0 l/m 9,5 km/h (2 Bft) W-SW 255 0 min 0,000 mm 0,0 UV-I 9 W/m 2,6 C 0,9 C 14,5 km/h (3 Bft) 94,34 %
23.04.2017 06:20 3,6 C 93 % 1020,6 hPa 0,0 l/m 9,8 km/h (2 Bft) W-SW 255 0 min 0,000 mm 0,0 UV-I 9 W/m 2,6 C 0,7 C 14,5 km/h (3 Bft) 97,62 %
23.04.2017 06:22 3,6 C 93 % 1020,6 hPa 0,0 l/m 10,9 km/h (2 Bft) W-SW 246 0 min 0,000 mm 0,0 UV-I 9 W/m 2,6 C -0,1 C 16,1 km/h (3 Bft) 96,36 %
23.04.2017 06:24 3,7 C 93 % 1020,7 hPa 0,0 l/m 10,0 km/h (2 Bft) SW 225 0 min 0,000 mm 0,0 UV-I 11 W/m 2,7 C 0,6 C 16,1 km/h (3 Bft) 95,56 %
23.04.2017 06:26 3,7 C 93 % 1020,7 hPa 0,0 l/m 10,7 km/h (2 Bft) W-SW 239 0 min 0,000 mm 0,0 UV-I 12 W/m 2,7 C 0,1 C 14,5 km/h (3 Bft) 93,18 %
23.04.2017 06:28 3,7 C 93 % 1020,7 hPa 0,0 l/m 10,5 km/h (2 Bft) SW 224 0 min 0,000 mm 0,0 UV-I 12 W/m 2,7 C 0,3 C 14,5 km/h (3 Bft) 94,00 %
23.04.2017 06:30 3,7 C 93 % 1020,7 hPa 0,0 l/m 11,4 km/h (2 Bft) SW 225 0 min 0,000 mm 0,0 UV-I 14 W/m 2,7 C -0,3 C 19,3 km/h (3 Bft) 97,73 %
23.04.2017 06:32 3,7 C 93 % 1020,7 hPa 0,0 l/m 12,0 km/h (2 Bft) W-SW 242 0 min 0,000 mm 0,0 UV-I 14 W/m 2,7 C -0,7 C 17,7 km/h (3 Bft) 93,33 %
23.04.2017 06:34 3,7 C 93 % 1020,7 hPa 0,0 l/m 10,0 km/h (2 Bft) W-SW 242 0 min 0,000 mm 0,0 UV-I 15 W/m 2,7 C 0,6 C 12,9 km/h (3 Bft) 97,73 %
23.04.2017 06:36 3,7 C 93 % 1020,7 hPa 0,0 l/m 10,8 km/h (2 Bft) W-SW 244 0 min 0,000 mm 0,0 UV-I 16 W/m 2,7 C 0,1 C 16,1 km/h (3 Bft) 98,11 %
23.04.2017 06:38 3,7 C 93 % 1020,8 hPa 0,0 l/m 9,7 km/h (2 Bft) SW 215 0 min 0,000 mm 0,0 UV-I 17 W/m 2,7 C 0,9 C 16,1 km/h (3 Bft) 94,29 %
23.04.2017 06:40 3,7 C 93 % 1020,8 hPa 0,0 l/m 11,3 km/h (2 Bft) W-SW 243 0 min 0,000 mm 0,0 UV-I 18 W/m 2,7 C -0,3 C 19,3 km/h (3 Bft) 91,53 %
23.04.2017 06:42 3,7 C 93 % 1020,7 hPa 0,0 l/m 11,9 km/h (2 Bft) SW 236 0 min 0,000 mm 0,0 UV-I 19 W/m 2,7 C -0,7 C 17,7 km/h (3 Bft) 93,75 %
23.04.2017 06:44 3,7 C 93 % 1020,7 hPa 0,0 l/m 13,1 km/h (3 Bft) W-SW 246 0 min 0,000 mm 0,0 UV-I 22 W/m 2,7 C -1,4 C 19,3 km/h (3 Bft) 92,68 %
23.04.2017 06:46 3,8 C 93 % 1020,8 hPa 0,0 l/m 12,3 km/h (3 Bft) SW 227 0 min 0,000 mm 0,0 UV-I 25 W/m 2,8 C -0,8 C 17,7 km/h (3 Bft) 93,18 %
23.04.2017 06:48 3,8 C 93 % 1020,7 hPa 0,0 l/m 10,3 km/h (2 Bft) W-SW 240 0 min 0,000 mm 0,0 UV-I 26 W/m 2,8 C 0,5 C 17,7 km/h (3 Bft) 93,18 %
23.04.2017 06:50 3,8 C 92 % 1020,7 hPa 0,0 l/m 12,4 km/h (3 Bft) W-SW 250 0 min 0,000 mm 0,0 UV-I 28 W/m 2,6 C -0,9 C 16,1 km/h (3 Bft) 93,62 %
23.04.2017 06:52 3,8 C 92 % 1020,7 hPa 0,0 l/m 10,1 km/h (2 Bft) W 265 0 min 0,000 mm 0,0 UV-I 32 W/m 2,6 C 0,7 C 14,5 km/h (3 Bft) 94,64 %
23.04.2017 06:54 3,8 C 92 % 1020,8 hPa 0,0 l/m 12,9 km/h (3 Bft) W-SW 238 0 min 0,000 mm 0,0 UV-I 35 W/m 2,6 C -1,2 C 17,7 km/h (3 Bft) 93,18 %
23.04.2017 06:56 3,9 C 92 % 1020,7 hPa 0,0 l/m 9,5 km/h (2 Bft) W 266 0 min 0,000 mm 0,0 UV-I 39 W/m 2,7 C 1,2 C 14,5 km/h (3 Bft) 96,00 %
23.04.2017 06:58 3,9 C 92 % 1020,7 hPa 0,0 l/m 12,4 km/h (3 Bft) W-SW 245 0 min 0,000 mm 0,0 UV-I 41 W/m 2,7 C -0,8 C 16,1 km/h (3 Bft) 98,00 %
23.04.2017 07:00 3,9 C 91 % 1020,8 hPa 0,0 l/m 10,4 km/h (2 Bft) W-SW 242 0 min 0,026 mm 0,0 UV-I 44 W/m 2,6 C 0,6 C 16,1 km/h (3 Bft) 97,62 %
23.04.2017 07:02 3,9 C 91 % 1020,8 hPa 0,0 l/m 10,2 km/h (2 Bft) W 267 0 min 0,000 mm 0,0 UV-I 49 W/m 2,6 C 0,7 C 12,9 km/h (3 Bft) 93,18 %
23.04.2017 07:04 4,0 C 91 % 1020,8 hPa 0,0 l/m 10,6 km/h (2 Bft) W-SW 240 0 min 0,000 mm 0,0 UV-I 53 W/m 2,7 C 0,5 C 16,1 km/h (3 Bft) 94,34 %
23.04.2017 07:06 4,1 C 91 % 1020,8 hPa 0,0 l/m 7,8 km/h (2 Bft) W-SW 254 0 min 0,000 mm 0,0 UV-I 57 W/m 2,8 C 2,8 C 12,9 km/h (3 Bft) 95,12 %
23.04.2017 07:08 4,1 C 91 % 1020,8 hPa 0,0 l/m 7,8 km/h (2 Bft) W-SW 256 0 min 0,000 mm 0,0 UV-I 64 W/m 2,8 C 2,8 C 11,3 km/h (2 Bft) 95,45 %
23.04.2017 07:10 4,1 C 91 % 1020,9 hPa 0,0 l/m 7,6 km/h (2 Bft) W-SW 247 0 min 0,000 mm 0,0 UV-I 70 W/m 2,8 C 3,0 C 11,3 km/h (2 Bft) 94,34 %
23.04.2017 07:12 4,1 C 91 % 1020,9 hPa 0,0 l/m 8,7 km/h (2 Bft) W-SW 252 0 min 0,000 mm 0,0 UV-I 76 W/m 2,8 C 2,1 C 12,9 km/h (3 Bft) 90,24 %
23.04.2017 07:14 4,1 C 91 % 1020,8 hPa 0,0 l/m 7,8 km/h (2 Bft) W-SW 248 0 min 0,000 mm 0,0 UV-I 83 W/m 2,8 C 2,8 C 11,3 km/h (2 Bft) 97,56 %
23.04.2017 07:16 4,2 C 91 % 1020,9 hPa 0,0 l/m 5,2 km/h (1 Bft) W-SW 244 0 min 0,000 mm 0,0 UV-I 89 W/m 2,9 C 4,2 C 8,0 km/h (2 Bft) 98,11 %
23.04.2017 07:18 4,2 C 90 % 1020,9 hPa 0,0 l/m 6,6 km/h (2 Bft) W-SW 244 0 min 0,000 mm 0,0 UV-I 92 W/m 2,7 C 4,0 C 9,7 km/h (2 Bft) 98,11 %
23.04.2017 07:20 4,2 C 90 % 1020,9 hPa 0,0 l/m 7,9 km/h (2 Bft) W-SW 242 0 min 0,000 mm 0,0 UV-I 96 W/m 2,7 C 2,8 C 12,9 km/h (3 Bft) 100,00 %
23.04.2017 07:22 4,2 C 90 % 1020,9 hPa 0,0 l/m 7,2 km/h (2 Bft) SW 221 0 min 0,000 mm 0,0 UV-I 97 W/m 2,7 C 3,5 C 11,3 km/h (2 Bft) 98,21 %
23.04.2017 07:24 4,2 C 90 % 1021,0 hPa 0,0 l/m 6,0 km/h (2 Bft) SW 228 0 min 0,000 mm 0,0 UV-I 98 W/m 2,7 C 4,2 C 9,7 km/h (2 Bft) 98,00 %
23.04.2017 07:26 4,3 C 90 % 1021,0 hPa 0,0 l/m 9,0 km/h (2 Bft) W-SW 257 0 min 0,000 mm 0,0 UV-I 96 W/m 2,8 C 2,1 C 12,9 km/h (3 Bft) 97,14 %
23.04.2017 07:28 4,3 C 90 % 1021,0 hPa 0,0 l/m 10,7 km/h (2 Bft) W-SW 256 0 min 0,000 mm 0,0 UV-I 92 W/m 2,8 C 0,8 C 14,5 km/h (3 Bft) 100,00 %
23.04.2017 07:30 4,3 C 90 % 1021,0 hPa 0,0 l/m 7,5 km/h (2 Bft) W-SW 238 0 min 0,000 mm 0,0 UV-I 92 W/m 2,8 C 3,3 C 12,9 km/h (3 Bft) 92,00 %
23.04.2017 07:32 4,4 C 90 % 1021,0 hPa 0,0 l/m 7,5 km/h (2 Bft) W 259 0 min 0,000 mm 0,0 UV-I 101 W/m 2,9 C 3,4 C 12,9 km/h (3 Bft) 95,74 %
23.04.2017 07:34 4,4 C 90 % 1021,1 hPa 0,0 l/m 8,0 km/h (2 Bft) W-SW 249 0 min 0,000 mm 0,0 UV-I 91 W/m 2,9 C 3,0 C 11,3 km/h (2 Bft) 95,74 %
23.04.2017 07:36 4,4 C 90 % 1021,0 hPa 0,0 l/m 9,1 km/h (2 Bft) W-SW 251 0 min 0,000 mm 0,0 UV-I 78 W/m 2,9 C 2,1 C 12,9 km/h (3 Bft) 92,68 %
23.04.2017 07:38 4,4 C 90 % 1021,1 hPa 0,0 l/m 8,7 km/h (2 Bft) W-SW 242 0 min 0,000 mm 0,0 UV-I 70 W/m 2,9 C 2,4 C 14,5 km/h (3 Bft) 100,00 %
23.04.2017 07:40 4,4 C 90 % 1021,1 hPa 0,0 l/m 9,1 km/h (2 Bft) W-SW 241 0 min 0,000 mm 0,0 UV-I 73 W/m 2,9 C 2,1 C 12,9 km/h (3 Bft) 100,00 %
23.04.2017 07:42 4,4 C 90 % 1021,1 hPa 0,0 l/m 10,5 km/h (2 Bft) W-SW 258 0 min 0,000 mm 0,0 UV-I 83 W/m 2,9 C 1,1 C 14,5 km/h (3 Bft) 96,00 %
23.04.2017 07:44 4,4 C 90 % 1021,2 hPa 0,0 l/m 8,7 km/h (2 Bft) W 259 0 min 0,000 mm 0,0 UV-I 86 W/m 2,9 C 2,4 C 14,5 km/h (3 Bft) 97,56 %
23.04.2017 07:46 4,4 C 90 % 1021,3 hPa 0,0 l/m 9,7 km/h (2 Bft) W 259 0 min 0,000 mm 0,0 UV-I 77 W/m 2,9 C 1,6 C 14,5 km/h (3 Bft) 98,00 %
23.04.2017 07:48 4,4 C 90 % 1021,3 hPa 0,0 l/m 8,0 km/h (2 Bft) W-SW 245 0 min 0,000 mm 0,0 UV-I 74 W/m 2,9 C 3,0 C 12,9 km/h (3 Bft) 92,68 %
23.04.2017 07:50 4,4 C 90 % 1021,3 hPa 0,0 l/m 11,4 km/h (2 Bft) W-SW 240 0 min 0,000 mm 0,0 UV-I 90 W/m 2,9 C 0,4 C 16,1 km/h (3 Bft) 94,64 %
23.04.2017 07:52 4,4 C 90 % 1021,3 hPa 0,0 l/m 10,5 km/h (2 Bft) SW 221 0 min 0,000 mm 0,0 UV-I 67 W/m 2,9 C 1,1 C 17,7 km/h (3 Bft) 94,74 %
23.04.2017 07:54 4,4 C 90 % 1021,3 hPa 0,0 l/m 9,7 km/h (2 Bft) W-SW 243 0 min 0,000 mm 0,0 UV-I 75 W/m 2,9 C 1,6 C 17,7 km/h (3 Bft) 94,00 %
23.04.2017 07:56 4,4 C 90 % 1021,3 hPa 0,0 l/m 7,2 km/h (2 Bft) W-SW 240 0 min 0,000 mm 0,0 UV-I 98 W/m 2,9 C 3,7 C 11,3 km/h (2 Bft) 93,62 %
23.04.2017 07:58 4,5 C 90 % 1021,3 hPa 0,0 l/m 8,3 km/h (2 Bft) W-SW 238 0 min 0,000 mm 0,0 UV-I 143 W/m 3,0 C 2,8 C 12,9 km/h (3 Bft) 98,00 %
23.04.2017 08:00 4,6 C 89 % 1021,3 hPa 0,0 l/m 8,1 km/h (2 Bft) W-SW 242 0 min 0,051 mm 0,0 UV-I 115 W/m 2,9 C 3,1 C 12,9 km/h (3 Bft) 97,87 %
23.04.2017 08:02 4,6 C 89 % 1021,3 hPa 0,0 l/m 7,1 km/h (2 Bft) SW 231 0 min 0,000 mm 0,0 UV-I 162 W/m 2,9 C 4,0 C 9,7 km/h (2 Bft) 94,00 %
23.04.2017 08:04 4,7 C 89 % 1021,4 hPa 0,0 l/m 6,7 km/h (2 Bft) W-SW 253 0 min 0,000 mm 0,0 UV-I 110 W/m 3,0 C 4,4 C 9,7 km/h (2 Bft) 96,00 %
23.04.2017 08:06 4,7 C 90 % 1021,4 hPa 0,0 l/m 7,3 km/h (2 Bft) SW 215 0 min 0,000 mm 0,3 UV-I 147 W/m 3,2 C 3,9 C 11,3 km/h (2 Bft) 97,37 %
23.04.2017 08:08 4,8 C 89 % 1021,4 hPa 0,0 l/m 7,8 km/h (2 Bft) SW 225 2 min 0,000 mm 0,5 UV-I 226 W/m 3,1 C 3,6 C 11,3 km/h (2 Bft) 94,00 %
23.04.2017 08:10 4,9 C 89 % 1021,4 hPa 0,0 l/m 9,1 km/h (2 Bft) SW 232 0 min 0,000 mm 0,5 UV-I 145 W/m 3,2 C 2,6 C 14,5 km/h (3 Bft) 97,37 %
23.04.2017 08:12 5,1 C 89 % 1021,4 hPa 0,0 l/m 7,8 km/h (2 Bft) SW 232 2 min 0,000 mm 0,2 UV-I 237 W/m 3,4 C 3,9 C 12,9 km/h (3 Bft) 96,23 %
23.04.2017 08:14 5,1 C 88 % 1021,4 hPa 0,0 l/m 8,9 km/h (2 Bft) SW 221 0 min 0,000 mm 0,0 UV-I 127 W/m 3,3 C 3,0 C 14,5 km/h (3 Bft) 94,00 %
23.04.2017 08:16 5,2 C 88 % 1021,5 hPa 0,0 l/m 10,1 km/h (2 Bft) W-SW 240 0 min 0,000 mm 0,0 UV-I 127 W/m 3,4 C 2,2 C 14,5 km/h (3 Bft) 93,18 %
23.04.2017 08:18 5,2 C 88 % 1021,4 hPa 0,0 l/m 9,3 km/h (2 Bft) SW 215 0 min 0,000 mm 0,0 UV-I 124 W/m 3,4 C 2,8 C 14,5 km/h (3 Bft) 98,11 %
23.04.2017 08:20 5,2 C 87 % 1021,4 hPa 0,0 l/m 8,5 km/h (2 Bft) S-SW 199 0 min 0,000 mm 0,0 UV-I 93 W/m 3,2 C 3,4 C 16,1 km/h (3 Bft) 93,18 %
23.04.2017 08:22 5,2 C 87 % 1021,5 hPa 0,0 l/m 6,7 km/h (2 Bft) S-SW 202 0 min 0,000 mm 0,0 UV-I 64 W/m 3,2 C 5,0 C 12,9 km/h (3 Bft) 94,87 %
23.04.2017 08:24 5,2 C 88 % 1021,5 hPa 0,0 l/m 6,2 km/h (2 Bft) W 279 0 min 0,000 mm 0,0 UV-I 59 W/m 3,4 C 5,2 C 9,7 km/h (2 Bft) 96,00 %
23.04.2017 08:26 5,2 C 88 % 1021,5 hPa 0,0 l/m 4,7 km/h (1 Bft) SW 220 0 min 0,000 mm 0,0 UV-I 87 W/m 3,4 C 5,2 C 9,7 km/h (2 Bft) 98,00 %
23.04.2017 08:28 5,2 C 89 % 1021,5 hPa 0,0 l/m 5,3 km/h (1 Bft) SW 226 0 min 0,000 mm 0,0 UV-I 103 W/m 3,5 C 5,2 C 9,7 km/h (2 Bft) 97,73 %
23.04.2017 08:30 5,2 C 88 % 1021,5 hPa 0,0 l/m 2,2 km/h (1 Bft) SW 226 0 min 0,000 mm 0,1 UV-I 122 W/m 3,4 C 5,2 C 4,8 km/h (1 Bft) 98,11 %
23.04.2017 08:32 5,3 C 89 % 1021,5 hPa 0,0 l/m 3,5 km/h (1 Bft) W 259 0 min 0,000 mm 0,5 UV-I 158 W/m 3,6 C 5,3 C 6,4 km/h (2 Bft) 97,87 %
23.04.2017 08:34 5,3 C 88 % 1021,6 hPa 0,0 l/m 7,7 km/h (2 Bft) W 267 0 min 0,000 mm 0,5 UV-I 193 W/m 3,5 C 4,2 C 12,9 km/h (3 Bft) 97,56 %
23.04.2017 08:36 5,4 C 86 % 1021,6 hPa 0,0 l/m 11,6 km/h (2 Bft) W 279 0 min 0,000 mm 0,5 UV-I 158 W/m 3,3 C 1,5 C 20,9 km/h (4 Bft) 97,73 %
23.04.2017 08:38 5,4 C 84 % 1021,6 hPa 0,0 l/m 10,2 km/h (2 Bft) W-SW 249 0 min 0,000 mm 0,5 UV-I 142 W/m 2,9 C 2,4 C 17,7 km/h (3 Bft) 100,00 %
23.04.2017 08:40 5,4 C 83 % 1021,6 hPa 0,0 l/m 7,4 km/h (2 Bft) W-NW 303 0 min 0,000 mm 0,6 UV-I 154 W/m 2,7 C 4,5 C 16,1 km/h (3 Bft) 98,53 %
23.04.2017 08:42 5,4 C 83 % 1021,6 hPa 0,0 l/m 8,6 km/h (2 Bft) W-SW 246 0 min 0,000 mm 0,6 UV-I 185 W/m 2,7 C 3,5 C 20,9 km/h (4 Bft) 92,68 %
23.04.2017 08:44 5,4 C 82 % 1021,6 hPa 0,0 l/m 6,6 km/h (2 Bft) W 271 0 min 0,000 mm 0,6 UV-I 214 W/m 2,6 C 5,2 C 12,9 km/h (3 Bft) 100,00 %
23.04.2017 08:46 5,5 C 81 % 1021,6 hPa 0,0 l/m 11,0 km/h (2 Bft) W 263 0 min 0,000 mm 0,5 UV-I 223 W/m 2,5 C 2,0 C 19,3 km/h (3 Bft) 92,11 %
23.04.2017 08:48 5,5 C 81 % 1021,6 hPa 0,0 l/m 7,9 km/h (2 Bft) W-NW 288 0 min 0,000 mm 0,0 UV-I 187 W/m 2,5 C 4,2 C 14,5 km/h (3 Bft) 96,43 %
23.04.2017 08:50 5,5 C 80 % 1021,6 hPa 0,0 l/m 9,0 km/h (2 Bft) SW 234 0 min 0,000 mm 0,0 UV-I 165 W/m 2,3 C 3,3 C 17,7 km/h (3 Bft) 92,11 %
23.04.2017 08:52 5,5 C 80 % 1021,6 hPa 0,0 l/m 7,9 km/h (2 Bft) W-SW 243 0 min 0,000 mm 0,0 UV-I 161 W/m 2,3 C 4,2 C 14,5 km/h (3 Bft) 97,87 %
23.04.2017 08:54 5,6 C 80 % 1021,7 hPa 0,0 l/m 8,6 km/h (2 Bft) W-SW 251 0 min 0,000 mm 0,0 UV-I 146 W/m 2,4 C 3,8 C 14,5 km/h (3 Bft) 94,34 %
23.04.2017 08:56 5,6 C 80 % 1021,6 hPa 0,0 l/m 10,5 km/h (2 Bft) W-SW 252 0 min 0,000 mm 0,0 UV-I 110 W/m 2,4 C 2,4 C 16,1 km/h (3 Bft) 92,31 %
23.04.2017 08:58 5,5 C 80 % 1021,6 hPa 0,0 l/m 8,9 km/h (2 Bft) W-SW 241 0 min 0,000 mm 0,0 UV-I 72 W/m 2,3 C 3,4 C 14,5 km/h (3 Bft) 94,83 %
23.04.2017 09:00 5,4 C 82 % 1021,7 hPa 0,0 l/m 8,0 km/h (2 Bft) W-SW 258 0 min 0,076 mm 0,0 UV-I 54 W/m 2,6 C 4,0 C 14,5 km/h (3 Bft) 97,44 %
23.04.2017 09:02 5,3 C 83 % 1021,7 hPa 0,0 l/m 8,7 km/h (2 Bft) W-NW 292 0 min 0,000 mm 0,0 UV-I 44 W/m 2,7 C 3,4 C 12,9 km/h (3 Bft) 93,18 %
23.04.2017 09:04 5,2 C 84 % 1021,7 hPa 0,0 l/m 8,4 km/h (2 Bft) NW 308 0 min 0,000 mm 0,0 UV-I 38 W/m 2,7 C 3,5 C 12,9 km/h (3 Bft) 96,23 %
23.04.2017 09:06 5,1 C 85 % 1021,6 hPa 0,0 l/m 8,9 km/h (2 Bft) W 263 0 min 0,000 mm 0,0 UV-I 37 W/m 2,8 C 3,0 C 16,1 km/h (3 Bft) 92,68 %
23.04.2017 09:08 4,9 C 85 % 1021,6 hPa 0,0 l/m 1,9 km/h (1 Bft) W 273 0 min 0,000 mm 0,0 UV-I 37 W/m 2,6 C 4,9 C 4,8 km/h (1 Bft) 98,21 %
23.04.2017 09:10 4,8 C 86 % 1021,6 hPa 0,0 l/m 3,4 km/h (1 Bft) W-NW 287 0 min 0,000 mm 0,0 UV-I 46 W/m 2,7 C 4,8 C 6,4 km/h (2 Bft) 94,74 %
23.04.2017 09:12 4,8 C 87 % 1021,6 hPa 0,0 l/m 2,7 km/h (1 Bft) W-SW 243 0 min 0,000 mm 0,0 UV-I 67 W/m 2,8 C 4,8 C 4,8 km/h (1 Bft) 88,68 %
23.04.2017 09:14 4,8 C 88 % 1021,6 hPa 0,0 l/m 4,3 km/h (1 Bft) W 270 0 min 0,000 mm 0,0 UV-I 72 W/m 3,0 C 4,8 C 6,4 km/h (2 Bft) 97,56 %
23.04.2017 09:16 4,8 C 88 % 1021,6 hPa 0,0 l/m 9,4 km/h (2 Bft) W-SW 248 0 min 0,000 mm 0,0 UV-I 81 W/m 3,0 C 2,3 C 14,5 km/h (3 Bft) 97,56 %
23.04.2017 09:18 4,9 C 88 % 1021,6 hPa 0,0 l/m 7,3 km/h (2 Bft) W 279 0 min 0,000 mm 0,0 UV-I 130 W/m 3,1 C 4,1 C 12,9 km/h (3 Bft) 91,94 %
23.04.2017 09:20 5,0 C 88 % 1021,6 hPa 0,0 l/m 9,2 km/h (2 Bft) W 267 0 min 0,000 mm 0,3 UV-I 135 W/m 3,2 C 2,7 C 14,5 km/h (3 Bft) 97,37 %
23.04.2017 09:22 5,1 C 88 % 1021,6 hPa 0,0 l/m 10,9 km/h (2 Bft) W-NW 292 0 min 0,000 mm 0,0 UV-I 125 W/m 3,3 C 1,6 C 17,7 km/h (3 Bft) 100,00 %
23.04.2017 09:24 5,2 C 88 % 1021,6 hPa 0,0 l/m 9,3 km/h (2 Bft) W-SW 252 0 min 0,000 mm 0,0 UV-I 123 W/m 3,4 C 2,8 C 16,1 km/h (3 Bft) 100,00 %
23.04.2017 09:26 5,2 C 87 % 1021,6 hPa 0,0 l/m 7,4 km/h (2 Bft) SW 218 0 min 0,000 mm 0,0 UV-I 99 W/m 3,2 C 4,3 C 11,3 km/h (2 Bft) 98,11 %
23.04.2017 09:28 5,3 C 87 % 1021,7 hPa 0,0 l/m 13,0 km/h (3 Bft) S-SW 207 0 min 0,000 mm 0,0 UV-I 82 W/m 3,3 C 0,5 C 17,7 km/h (3 Bft) 100,00 %
23.04.2017 09:30 5,3 C 87 % 1021,7 hPa 0,0 l/m 8,6 km/h (2 Bft) W-SW 257 0 min 0,000 mm 0,0 UV-I 96 W/m 3,3 C 3,4 C 14,5 km/h (3 Bft) 100,00 %
23.04.2017 09:32 5,3 C 88 % 1021,7 hPa 0,0 l/m 5,1 km/h (1 Bft) W-SW 243 0 min 0,000 mm 0,3 UV-I 101 W/m 3,5 C 5,3 C 9,7 km/h (2 Bft) 92,11 %
23.04.2017 09:34 5,3 C 87 % 1021,7 hPa 0,0 l/m 8,6 km/h (2 Bft) W 281 0 min 0,000 mm 0,7 UV-I 137 W/m 3,3 C 3,4 C 17,7 km/h (3 Bft) 96,43 %
23.04.2017 09:36 5,4 C 83 % 1021,8 hPa 0,0 l/m 10,6 km/h (2 Bft) W 270 0 min 0,000 mm 0,9 UV-I 213 W/m 2,7 C 2,1 C 16,1 km/h (3 Bft) 100,00 %
23.04.2017 09:38 5,5 C 83 % 1021,7 hPa 0,0 l/m 10,9 km/h (2 Bft) W 264 0 min 0,000 mm 1,0 UV-I 241 W/m 2,8 C 2,0 C 19,3 km/h (3 Bft) 97,37 %
23.04.2017 09:40 5,6 C 81 % 1021,8 hPa 0,0 l/m 8,9 km/h (2 Bft) W 263 0 min 0,000 mm 0,9 UV-I 201 W/m 2,6 C 3,5 C 14,5 km/h (3 Bft) 93,55 %
23.04.2017 09:42 5,7 C 82 % 1021,8 hPa 0,0 l/m 8,3 km/h (2 Bft) W-SW 245 0 min 0,000 mm 1,0 UV-I 228 W/m 2,9 C 4,1 C 14,5 km/h (3 Bft) 97,56 %
23.04.2017 09:44 5,8 C 81 % 1021,8 hPa 0,0 l/m 13,2 km/h (3 Bft) W 259 0 min 0,000 mm 1,1 UV-I 280 W/m 2,8 C 1,0 C 17,7 km/h (3 Bft) 98,00 %
23.04.2017 09:46 6,1 C 79 % 1021,8 hPa 0,0 l/m 10,5 km/h (2 Bft) W-NW 296 2 min 0,000 mm 1,3 UV-I 445 W/m 2,7 C 3,0 C 14,5 km/h (3 Bft) 97,73 %
23.04.2017 09:48 6,2 C 78 % 1021,8 hPa 0,0 l/m 14,6 km/h (3 Bft) W-NW 284 2 min 0,000 mm 1,5 UV-I 745 W/m 2,7 C 0,7 C 20,9 km/h (4 Bft) 98,21 %
23.04.2017 09:50 6,6 C 79 % 1021,7 hPa 0,0 l/m 9,4 km/h (2 Bft) W-SW 247 2 min 0,000 mm 1,5 UV-I 750 W/m 3,2 C 4,2 C 19,3 km/h (3 Bft) 95,12 %
23.04.2017 09:52 6,8 C 77 % 1021,8 hPa 0,0 l/m 7,4 km/h (2 Bft) W-SW 251 2 min 0,000 mm 0,9 UV-I 707 W/m 3,1 C 6,0 C 12,9 km/h (3 Bft) 96,00 %
23.04.2017 09:54 6,8 C 78 % 1021,9 hPa 0,0 l/m 9,1 km/h (2 Bft) W-SW 252 0 min 0,000 mm 0,5 UV-I 209 W/m 3,2 C 4,7 C 14,5 km/h (3 Bft) 95,74 %
23.04.2017 09:56 6,7 C 78 % 1021,9 hPa 0,0 l/m 10,0 km/h (2 Bft) W-SW 249 0 min 0,000 mm 0,0 UV-I 104 W/m 3,1 C 4,0 C 20,9 km/h (4 Bft) 97,37 %
23.04.2017 09:58 6,4 C 77 % 1021,9 hPa 0,0 l/m 8,2 km/h (2 Bft) W 263 0 min 0,000 mm 0,0 UV-I 95 W/m 2,7 C 4,9 C 14,5 km/h (3 Bft) 96,23 %
23.04.2017 10:00 6,3 C 78 % 1021,9 hPa 0,0 l/m 11,3 km/h (2 Bft) W 264 0 min 0,076 mm 0,2 UV-I 120 W/m 2,8 C 2,7 C 16,1 km/h (3 Bft) 96,15 %
23.04.2017 10:02 6,1 C 79 % 1022,0 hPa 0,0 l/m 11,7 km/h (2 Bft) W 260 0 min 0,000 mm 0,6 UV-I 154 W/m 2,7 C 2,2 C 19,3 km/h (3 Bft) 89,71 %
23.04.2017 10:04 6,0 C 78 % 1022,0 hPa 0,0 l/m 11,0 km/h (2 Bft) W 280 0 min 0,000 mm 0,6 UV-I 166 W/m 2,5 C 2,5 C 17,7 km/h (3 Bft) 96,00 %
23.04.2017 10:06 5,9 C 77 % 1022,0 hPa 0,0 l/m 13,2 km/h (3 Bft) W-SW 244 0 min 0,000 mm 0,6 UV-I 167 W/m 2,2 C 1,1 C 22,5 km/h (4 Bft) 94,74 %
23.04.2017 10:08 5,8 C 76 % 1022,0 hPa 0,0 l/m 10,4 km/h (2 Bft) SW 231 0 min 0,000 mm 0,6 UV-I 152 W/m 1,9 C 2,7 C 14,5 km/h (3 Bft) 94,92 %
23.04.2017 10:10 5,8 C 75 % 1021,9 hPa 0,0 l/m 11,5 km/h (2 Bft) W 261 0 min 0,000 mm 0,6 UV-I 159 W/m 1,7 C 2,0 C 16,1 km/h (3 Bft) 95,45 %
23.04.2017 10:12 5,7 C 76 % 1022,0 hPa 0,0 l/m 10,2 km/h (2 Bft) W-NW 291 0 min 0,000 mm 0,8 UV-I 188 W/m 1,8 C 2,7 C 17,7 km/h (3 Bft) 97,37 %
23.04.2017 10:14 5,7 C 74 % 1021,9 hPa 0,0 l/m 16,4 km/h (3 Bft) W 265 0 min 0,000 mm 1,2 UV-I 265 W/m 1,4 C -0,7 C 29,0 km/h (5 Bft) 92,00 %
23.04.2017 10:16 5,7 C 75 % 1021,9 hPa 0,0 l/m 14,4 km/h (3 Bft) W-SW 243 0 min 0,000 mm 1,2 UV-I 276 W/m 1,6 C 0,2 C 22,5 km/h (4 Bft) 97,44 %
23.04.2017 10:18 5,8 C 76 % 1022,0 hPa 0,0 l/m 9,5 km/h (2 Bft) W 260 0 min 0,000 mm 1,1 UV-I 270 W/m 1,9 C 3,3 C 14,5 km/h (3 Bft) 96,23 %
23.04.2017 10:20 5,8 C 76 % 1022,0 hPa 0,0 l/m 9,7 km/h (2 Bft) W-SW 247 0 min 0,000 mm 1,2 UV-I 268 W/m 1,9 C 3,2 C 14,5 km/h (3 Bft) 96,15 %
23.04.2017 10:22 5,9 C 77 % 1022,0 hPa 0,0 l/m 10,5 km/h (2 Bft) W-SW 247 0 min 0,000 mm 1,3 UV-I 272 W/m 2,2 C 2,7 C 14,5 km/h (3 Bft) 94,44 %
23.04.2017 10:24 6,0 C 77 % 1022,0 hPa 0,0 l/m 8,7 km/h (2 Bft) W 267 0 min 0,000 mm 1,4 UV-I 307 W/m 2,3 C 4,1 C 12,9 km/h (3 Bft) 93,62 %
23.04.2017 10:26 6,1 C 77 % 1022,0 hPa 0,0 l/m 11,7 km/h (2 Bft) W-NW 296 0 min 0,000 mm 1,7 UV-I 364 W/m 2,4 C 2,2 C 19,3 km/h (3 Bft) 98,21 %
23.04.2017 10:28 6,2 C 77 % 1022,0 hPa 0,0 l/m 14,0 km/h (3 Bft) W-NW 300 0 min 0,000 mm 1,7 UV-I 324 W/m 2,5 C 1,0 C 19,3 km/h (3 Bft) 96,55 %
23.04.2017 10:30 6,2 C 75 % 1022,0 hPa 0,0 l/m 14,8 km/h (3 Bft) W 279 0 min 0,000 mm 1,8 UV-I 304 W/m 2,1 C 0,6 C 22,5 km/h (4 Bft) 97,73 %
23.04.2017 10:32 6,2 C 75 % 1022,0 hPa 0,0 l/m 13,0 km/h (3 Bft) W-NW 291 2 min 0,000 mm 2,2 UV-I 441 W/m 2,1 C 1,6 C 22,5 km/h (4 Bft) 95,38 %
23.04.2017 10:34 6,3 C 76 % 1022,0 hPa 0,0 l/m 15,1 km/h (3 Bft) W-SW 254 2 min 0,000 mm 2,6 UV-I 706 W/m 2,4 C 0,6 C 22,5 km/h (4 Bft) 92,45 %
23.04.2017 10:36 6,6 C 74 % 1021,9 hPa 0,0 l/m 15,4 km/h (3 Bft) W-SW 250 2 min 0,000 mm 2,6 UV-I 723 W/m 2,3 C 0,8 C 24,1 km/h (4 Bft) 97,37 %
23.04.2017 10:38 6,8 C 74 % 1021,9 hPa 0,0 l/m 17,7 km/h (3 Bft) W-NW 290 2 min 0,000 mm 2,7 UV-I 725 W/m 2,5 C 0,1 C 22,5 km/h (4 Bft) 94,64 %
23.04.2017 10:40 6,9 C 72 % 1021,9 hPa 0,0 l/m 14,6 km/h (3 Bft) SW 234 2 min 0,000 mm 2,7 UV-I 736 W/m 2,2 C 1,6 C 20,9 km/h (4 Bft) 93,18 %
23.04.2017 10:42 7,1 C 72 % 1021,8 hPa 0,0 l/m 11,1 km/h (2 Bft) SW 234 2 min 0,000 mm 2,8 UV-I 734 W/m 2,4 C 3,7 C 16,1 km/h (3 Bft) 95,12 %
23.04.2017 10:44 7,3 C 72 % 1021,8 hPa 0,0 l/m 11,5 km/h (2 Bft) SW 224 2 min 0,000 mm 2,8 UV-I 747 W/m 2,6 C 3,7 C 17,7 km/h (3 Bft) 100,00 %
23.04.2017 10:46 7,4 C 71 % 1021,8 hPa 0,0 l/m 12,9 km/h (3 Bft) W 261 2 min 0,000 mm 2,9 UV-I 776 W/m 2,5 C 3,0 C 19,3 km/h (3 Bft) 96,00 %
23.04.2017 10:48 7,5 C 70 % 1021,8 hPa 0,0 l/m 13,5 km/h (3 Bft) W-SW 242 2 min 0,000 mm 2,9 UV-I 830 W/m 2,4 C 2,8 C 20,9 km/h (4 Bft) 92,68 %
23.04.2017 10:50 7,6 C 69 % 1021,8 hPa 0,0 l/m 11,9 km/h (2 Bft) W-SW 241 2 min 0,000 mm 2,9 UV-I 821 W/m 2,3 C 3,8 C 24,1 km/h (4 Bft) 95,74 %
23.04.2017 10:52 7,7 C 68 % 1021,8 hPa 0,0 l/m 16,8 km/h (3 Bft) SW 230 2 min 0,000 mm 2,9 UV-I 671 W/m 2,2 C 1,6 C 32,2 km/h (5 Bft) 93,62 %
23.04.2017 10:54 7,8 C 68 % 1021,8 hPa 0,0 l/m 12,2 km/h (2 Bft) W-SW 254 2 min 0,000 mm 3,1 UV-I 832 W/m 2,3 C 3,9 C 19,3 km/h (3 Bft) 93,33 %
23.04.2017 10:56 8,0 C 68 % 1021,7 hPa 0,0 l/m 13,9 km/h (3 Bft) SW 230 2 min 0,000 mm 3,1 UV-I 790 W/m 2,5 C 3,2 C 20,9 km/h (4 Bft) 89,09 %
23.04.2017 10:58 8,1 C 65 % 1021,7 hPa 0,0 l/m 17,7 km/h (3 Bft) W-SW 246 2 min 0,000 mm 3,1 UV-I 847 W/m 1,9 C 1,7 C 29,0 km/h (5 Bft) 100,00 %
23.04.2017 11:00 8,1 C 63 % 1021,8 hPa 0,0 l/m 18,2 km/h (3 Bft) W-SW 256 2 min 0,229 mm 3,0 UV-I 856 W/m 1,5 C 1,5 C 30,6 km/h (5 Bft) 89,29 %
23.04.2017 11:02 8,0 C 64 % 1021,8 hPa 0,0 l/m 15,4 km/h (3 Bft) W-SW 239 2 min 0,000 mm 2,6 UV-I 856 W/m 1,6 C 2,5 C 22,5 km/h (4 Bft) 94,92 %
23.04.2017 11:04 8,1 C 65 % 1021,8 hPa 0,0 l/m 12,0 km/h (2 Bft) W-SW 258 2 min 0,000 mm 3,1 UV-I 865 W/m 1,9 C 4,3 C 19,3 km/h (3 Bft) 89,47 %
23.04.2017 11:06 8,1 C 62 % 1021,7 hPa 0,0 l/m 12,4 km/h (3 Bft) W-SW 249 2 min 0,000 mm 2,7 UV-I 638 W/m 1,3 C 4,1 C 17,7 km/h (3 Bft) 97,87 %
23.04.2017 11:08 7,9 C 63 % 1021,7 hPa 0,0 l/m 13,5 km/h (3 Bft) W 269 2 min 0,000 mm 2,3 UV-I 425 W/m 1,3 C 3,3 C 25,7 km/h (4 Bft) 96,00 %
23.04.2017 11:10 7,9 C 65 % 1021,7 hPa 0,0 l/m 13,8 km/h (3 Bft) W 272 0 min 0,000 mm 3,1 UV-I 373 W/m 1,7 C 3,2 C 22,5 km/h (4 Bft) 91,49 %
23.04.2017 11:12 8,1 C 65 % 1021,8 hPa 0,0 l/m 15,0 km/h (3 Bft) W-SW 245 2 min 0,000 mm 3,3 UV-I 933 W/m 1,9 C 2,8 C 24,1 km/h (4 Bft) 93,18 %
23.04.2017 11:14 8,2 C 65 % 1021,7 hPa 0,0 l/m 13,1 km/h (3 Bft) W-SW 251 2 min 0,000 mm 3,0 UV-I 733 W/m 2,0 C 3,9 C 17,7 km/h (3 Bft) 95,12 %
23.04.2017 11:16 8,3 C 66 % 1021,8 hPa 0,0 l/m 12,1 km/h (2 Bft) W-SW 257 2 min 0,000 mm 3,5 UV-I 851 W/m 2,3 C 4,5 C 22,5 km/h (4 Bft) 98,21 %
23.04.2017 11:18 8,3 C 65 % 1021,8 hPa 0,0 l/m 18,1 km/h (3 Bft) W-SW 242 2 min 0,000 mm 3,4 UV-I 966 W/m 2,1 C 1,8 C 27,4 km/h (4 Bft) 91,49 %
23.04.2017 11:20 8,4 C 66 % 1021,8 hPa 0,0 l/m 11,3 km/h (2 Bft) W 259 2 min 0,000 mm 3,2 UV-I 938 W/m 2,4 C 5,1 C 20,9 km/h (4 Bft) 97,56 %
23.04.2017 11:22 8,6 C 63 % 1021,8 hPa 0,0 l/m 21,5 km/h (4 Bft) W 281 2 min 0,000 mm 2,5 UV-I 925 W/m 2,0 C 1,0 C 33,8 km/h (5 Bft) 95,74 %
23.04.2017 11:24 8,3 C 61 % 1021,8 hPa 0,0 l/m 13,8 km/h (3 Bft) W-SW 244 2 min 0,000 mm 2,2 UV-I 461 W/m 1,2 C 3,6 C 24,1 km/h (4 Bft) 97,73 %
23.04.2017 11:26 8,3 C 66 % 1021,8 hPa 0,0 l/m 15,9 km/h (3 Bft) S-SW 201 2 min 0,000 mm 2,4 UV-I 473 W/m 2,3 C 2,7 C 29,0 km/h (5 Bft) 98,21 %
23.04.2017 11:28 8,2 C 64 % 1021,8 hPa 0,0 l/m 18,6 km/h (3 Bft) W 270 2 min 0,000 mm 2,5 UV-I 529 W/m 1,8 C 1,5 C 29,0 km/h (5 Bft) 96,30 %
23.04.2017 11:30 8,2 C 66 % 1021,8 hPa 0,0 l/m 15,8 km/h (3 Bft) W-SW 250 2 min 0,000 mm 2,0 UV-I 491 W/m 2,2 C 2,6 C 24,1 km/h (4 Bft) 100,00 %
23.04.2017 11:32 8,0 C 65 % 1021,8 hPa 0,0 l/m 16,8 km/h (3 Bft) W-SW 248 0 min 0,000 mm 1,4 UV-I 406 W/m 1,8 C 1,9 C 27,4 km/h (4 Bft) 100,00 %
23.04.2017 11:34 7,9 C 65 % 1021,8 hPa 0,0 l/m 12,4 km/h (3 Bft) W-NW 299 0 min 0,000 mm 1,9 UV-I 278 W/m 1,7 C 3,9 C 22,5 km/h (4 Bft) 100,00 %
23.04.2017 11:36 7,8 C 66 % 1021,9 hPa 0,0 l/m 11,1 km/h (2 Bft) W-SW 254 2 min 0,000 mm 2,7 UV-I 615 W/m 1,9 C 4,5 C 27,4 km/h (4 Bft) 98,00 %
23.04.2017 11:38 7,9 C 68 % 1021,9 hPa 0,0 l/m 6,6 km/h (2 Bft) N-NW 334 2 min 0,000 mm 2,7 UV-I 933 W/m 2,4 C 7,8 C 11,3 km/h (2 Bft) 100,00 %
23.04.2017 11:40 7,8 C 67 % 1021,9 hPa 0,0 l/m 7,4 km/h (2 Bft) NW 320 0 min 0,000 mm 1,6 UV-I 413 W/m 2,1 C 7,0 C 14,5 km/h (3 Bft) 100,00 %
23.04.2017 11:42 7,6 C 67 % 1021,9 hPa 0,0 l/m 7,0 km/h (2 Bft) W-NW 300 0 min 0,000 mm 1,5 UV-I 353 W/m 1,9 C 7,1 C 16,1 km/h (3 Bft) 97,73 %
23.04.2017 11:44 7,2 C 68 % 1021,9 hPa 0,0 l/m 7,4 km/h (2 Bft) NW 315 0 min 0,000 mm 1,0 UV-I 243 W/m 1,7 C 6,4 C 16,1 km/h (3 Bft) 100,00 %
23.04.2017 11:46 6,8 C 68 % 1021,8 hPa 0,0 l/m 6,1 km/h (2 Bft) N-NW 333 0 min 0,000 mm 0,8 UV-I 166 W/m 1,3 C 6,8 C 12,9 km/h (3 Bft) 98,11 %
23.04.2017 11:48 6,7 C 70 % 1021,9 hPa 0,0 l/m 6,4 km/h (2 Bft) NW 322 0 min 0,000 mm 0,8 UV-I 151 W/m 1,6 C 6,7 C 16,1 km/h (3 Bft) 98,00 %
23.04.2017 11:50 6,6 C 71 % 1021,9 hPa 0,0 l/m 6,0 km/h (2 Bft) W 280 0 min 0,000 mm 1,4 UV-I 210 W/m 1,7 C 6,6 C 11,3 km/h (2 Bft) 100,00 %
23.04.2017 11:52 6,6 C 72 % 1021,8 hPa 0,0 l/m 4,9 km/h (1 Bft) W-NW 283 0 min 0,000 mm 1,9 UV-I 286 W/m 1,9 C 6,6 C 11,3 km/h (2 Bft) 94,34 %
23.04.2017 11:54 6,8 C 72 % 1021,8 hPa 0,0 l/m 3,8 km/h (1 Bft) W-NW 296 0 min 0,000 mm 2,6 UV-I 377 W/m 2,1 C 6,8 C 11,3 km/h (2 Bft) 100,00 %
23.04.2017 11:56 7,1 C 72 % 1021,8 hPa 0,0 l/m 4,1 km/h (1 Bft) W 266 2 min 0,000 mm 3,1 UV-I 452 W/m 2,4 C 7,1 C 9,7 km/h (2 Bft) 100,00 %
23.04.2017 11:58 7,3 C 71 % 1021,8 hPa 0,0 l/m 6,3 km/h (2 Bft) W-NW 297 2 min 0,000 mm 2,8 UV-I 500 W/m 2,4 C 7,3 C 17,7 km/h (3 Bft) 100,00 %
23.04.2017 12:00 7,4 C 70 % 1021,8 hPa 0,0 l/m 11,1 km/h (2 Bft) W-SW 237 2 min 0,000 mm 3,0 UV-I 570 W/m 2,3 C 4,0 C 17,7 km/h (3 Bft) 95,74 %
23.04.2017 12:02 7,6 C 66 % 1021,8 hPa 0,0 l/m 10,9 km/h (2 Bft) W 279 2 min 0,279 mm 4,0 UV-I 920 W/m 1,7 C 4,4 C 22,5 km/h (4 Bft) 100,00 %
23.04.2017 12:04 7,8 C 70 % 1021,8 hPa 0,0 l/m 3,8 km/h (1 Bft) W-NW 294 2 min 0,000 mm 4,0 UV-I 1008 W/m 2,7 C 7,8 C 6,4 km/h (2 Bft) 98,00 %
23.04.2017 12:06 8,4 C 70 % 1021,8 hPa 0,0 l/m 8,0 km/h (2 Bft) NW 321 2 min 0,000 mm 4,0 UV-I 1014 W/m 3,3 C 7,2 C 14,5 km/h (3 Bft) 97,73 %
23.04.2017 12:08 8,6 C 66 % 1021,8 hPa 0,0 l/m 9,7 km/h (2 Bft) NW 321 2 min 0,000 mm 3,1 UV-I 970 W/m 2,6 C 6,2 C 16,1 km/h (3 Bft) 98,11 %
23.04.2017 12:10 8,5 C 68 % 1021,7 hPa 0,0 l/m 4,0 km/h (1 Bft) N-NW 340 2 min 0,000 mm 2,9 UV-I 511 W/m 2,9 C 8,5 C 12,9 km/h (3 Bft) 94,74 %
23.04.2017 12:12 8,4 C 64 % 1021,6 hPa 0,0 l/m 8,9 km/h (2 Bft) W-NW 294 2 min 0,000 mm 3,5 UV-I 622 W/m 2,0 C 6,5 C 17,7 km/h (3 Bft) 100,00 %
23.04.2017 12:14 8,3 C 67 % 1021,7 hPa 0,0 l/m 5,7 km/h (1 Bft) NW 321 2 min 0,000 mm 2,8 UV-I 559 W/m 2,5 C 8,3 C 20,9 km/h (4 Bft) 94,23 %
23.04.2017 12:16 8,2 C 63 % 1021,7 hPa 0,0 l/m 6,0 km/h (2 Bft) W-SW 248 2 min 0,000 mm 2,4 UV-I 452 W/m 1,6 C 8,2 C 12,9 km/h (3 Bft) 100,00 %
23.04.2017 12:18 8,1 C 65 % 1021,7 hPa 0,0 l/m 7,7 km/h (2 Bft) W 280 0 min 0,000 mm 2,0 UV-I 425 W/m 1,9 C 7,1 C 19,3 km/h (3 Bft) 94,29 %
23.04.2017 12:20 8,0 C 65 % 1021,7 hPa 0,0 l/m 6,2 km/h (2 Bft) NW 316 0 min 0,000 mm 1,4 UV-I 286 W/m 1,8 C 8,0 C 14,5 km/h (3 Bft) 100,00 %
23.04.2017 12:22 7,8 C 66 % 1021,6 hPa 0,0 l/m 8,9 km/h (2 Bft) W-NW 290 0 min 0,000 mm 0,8 UV-I 175 W/m 1,9 C 5,9 C 22,5 km/h (4 Bft) 100,00 %
23.04.2017 12:24 7,6 C 67 % 1021,6 hPa 0,0 l/m 7,4 km/h (2 Bft) N-NW 327 0 min 0,000 mm 0,5 UV-I 111 W/m 1,9 C 6,8 C 16,1 km/h (3 Bft) 98,11 %
23.04.2017 12:26 7,3 C 70 % 1021,7 hPa 0,0 l/m 5,9 km/h (2 Bft) SW 233 0 min 0,000 mm 0,7 UV-I 138 W/m 2,2 C 7,3 C 14,5 km/h (3 Bft) 94,74 %
23.04.2017 12:28 7,2 C 71 % 1021,7 hPa 0,0 l/m 3,4 km/h (1 Bft) NW 304 0 min 0,000 mm 1,1 UV-I 214 W/m 2,3 C 7,2 C 17,7 km/h (3 Bft) 98,11 %
23.04.2017 12:30 7,2 C 71 % 1021,7 hPa 0,0 l/m 8,6 km/h (2 Bft) W 260 0 min 0,000 mm 1,3 UV-I 230 W/m 2,3 C 5,5 C 20,9 km/h (4 Bft) 95,45 %
23.04.2017 12:32 7,2 C 70 % 1021,8 hPa 0,0 l/m 4,9 km/h (1 Bft) W 273 0 min 0,000 mm 1,4 UV-I 244 W/m 2,1 C 7,2 C 9,7 km/h (2 Bft) 96,00 %
23.04.2017 12:34 7,1 C 69 % 1021,7 hPa 0,0 l/m 9,1 km/h (2 Bft) W-NW 288 0 min 0,000 mm 2,1 UV-I 279 W/m 1,8 C 5,0 C 17,7 km/h (3 Bft) 97,73 %
23.04.2017 12:36 7,1 C 69 % 1021,7 hPa 0,0 l/m 6,7 km/h (2 Bft) N-NW 329 0 min 0,000 mm 3,3 UV-I 292 W/m 1,8 C 6,9 C 20,9 km/h (4 Bft) 91,49 %
23.04.2017 12:38 7,5 C 72 % 1021,6 hPa 0,0 l/m 7,7 km/h (2 Bft) NW 306 2 min 0,000 mm 4,3 UV-I 835 W/m 2,8 C 6,5 C 16,1 km/h (3 Bft) 95,45 %
23.04.2017 12:40 7,8 C 70 % 1021,6 hPa 0,0 l/m 8,7 km/h (2 Bft) SO 144 2 min 0,000 mm 4,0 UV-I 1051 W/m 2,7 C 6,0 C 16,1 km/h (3 Bft) 96,23 %
23.04.2017 12:42 8,1 C 69 % 1021,6 hPa 0,0 l/m 10,0 km/h (2 Bft) W-SW 251 2 min 0,000 mm 3,8 UV-I 1025 W/m 2,8 C 5,5 C 24,1 km/h (4 Bft) 95,56 %
23.04.2017 12:44 8,3 C 73 % 1021,6 hPa 0,0 l/m 8,1 km/h (2 Bft) W 266 2 min 0,000 mm 4,6 UV-I 1060 W/m 3,8 C 7,0 C 16,1 km/h (3 Bft) 97,56 %
23.04.2017 12:46 8,6 C 68 % 1021,6 hPa 0,0 l/m 9,7 km/h (2 Bft) W-NW 284 2 min 0,000 mm 4,3 UV-I 1081 W/m 3,0 C 6,2 C 20,9 km/h (4 Bft) 96,43 %
23.04.2017 12:48 8,7 C 67 % 1021,6 hPa 0,0 l/m 6,4 km/h (2 Bft) N-NW 332 2 min 0,000 mm 4,1 UV-I 1098 W/m 2,9 C 8,7 C 16,1 km/h (3 Bft) 97,37 %
23.04.2017 12:50 8,6 C 69 % 1021,6 hPa 0,0 l/m 5,1 km/h (1 Bft) W 265 2 min 0,000 mm 3,6 UV-I 641 W/m 3,2 C 8,6 C 11,3 km/h (2 Bft) 98,11 %
23.04.2017 12:52 8,6 C 68 % 1021,5 hPa 0,0 l/m 6,1 km/h (2 Bft) W-NW 298 2 min 0,000 mm 3,9 UV-I 750 W/m 3,0 C 8,6 C 16,1 km/h (3 Bft) 97,44 %
23.04.2017 12:54 8,7 C 68 % 1021,5 hPa 0,0 l/m 8,3 km/h (2 Bft) NO 44 2 min 0,000 mm 4,1 UV-I 856 W/m 3,1 C 7,3 C 16,1 km/h (3 Bft) 96,36 %
23.04.2017 12:56 8,7 C 64 % 1021,5 hPa 0,0 l/m 11,6 km/h (2 Bft) W-NW 292 2 min 0,000 mm 3,5 UV-I 856 W/m 2,3 C 5,2 C 24,1 km/h (4 Bft) 93,62 %
23.04.2017 12:58 8,8 C 67 % 1021,5 hPa 0,0 l/m 5,5 km/h (1 Bft) NW 325 2 min 0,000 mm 4,2 UV-I 1000 W/m 3,0 C 8,8 C 12,9 km/h (3 Bft) 92,00 %
23.04.2017 13:00 8,8 C 63 % 1021,5 hPa 0,0 l/m 10,1 km/h (2 Bft) W-SW 238 2 min 0,305 mm 3,7 UV-I 1100 W/m 2,2 C 6,2 C 17,7 km/h (3 Bft) 92,31 %
23.04.2017 13:02 8,9 C 64 % 1021,6 hPa 0,0 l/m 8,8 km/h (2 Bft) W 265 2 min 0,000 mm 3,5 UV-I 1091 W/m 2,5 C 7,1 C 17,7 km/h (3 Bft) 100,00 %
23.04.2017 13:04 8,9 C 67 % 1021,5 hPa 0,0 l/m 7,7 km/h (2 Bft) W-SW 257 2 min 0,000 mm 2,6 UV-I 1090 W/m 3,1 C 7,9 C 12,9 km/h (3 Bft) 97,56 %
23.04.2017 13:06 8,7 C 63 % 1021,6 hPa 0,0 l/m 12,2 km/h (2 Bft) W 281 2 min 0,000 mm 2,0 UV-I 525 W/m 2,1 C 4,9 C 24,1 km/h (4 Bft) 98,21 %
23.04.2017 13:09 8,3 C 63 % 1021,5 hPa 0,0 l/m 12,3 km/h (3 Bft) NW 326 0 min 0,000 mm 2,0 UV-I 331 W/m 1,7 C 4,4 C 29,0 km/h (5 Bft) 100,00 %
23.04.2017 13:10 8,2 C 65 % 1021,5 hPa 0,0 l/m 5,9 km/h (2 Bft) W 271 0 min 0,000 mm 2,3 UV-I 388 W/m 2,0 C 8,2 C 16,1 km/h (3 Bft) 93,33 %
23.04.2017 13:12 8,3 C 69 % 1021,5 hPa 0,0 l/m 6,6 km/h (2 Bft) W-SW 246 2 min 0,000 mm 3,6 UV-I 496 W/m 3,0 C 8,2 C 17,7 km/h (3 Bft) 98,11 %
23.04.2017 13:14 8,5 C 63 % 1021,5 hPa 0,0 l/m 11,1 km/h (2 Bft) W 260 2 min 0,000 mm 4,3 UV-I 897 W/m 1,9 C 5,3 C 19,3 km/h (3 Bft) 100,00 %
23.04.2017 13:16 8,7 C 65 % 1021,4 hPa 0,0 l/m 7,9 km/h (2 Bft) W-SW 257 2 min 0,000 mm 4,0 UV-I 1016 W/m 2,5 C 7,6 C 16,1 km/h (3 Bft) 98,00 %
23.04.2017 13:18 8,9 C 65 % 1021,5 hPa 0,0 l/m 7,0 km/h (2 Bft) W-NW 290 2 min 0,000 mm 3,8 UV-I 1062 W/m 2,7 C 8,4 C 16,1 km/h (3 Bft) 95,45 %
23.04.2017 13:20 8,9 C 63 % 1021,4 hPa 0,0 l/m 12,3 km/h (3 Bft) N-NW 336 2 min 0,000 mm 2,2 UV-I 706 W/m 2,2 C 5,1 C 20,9 km/h (4 Bft) 94,74 %
23.04.2017 13:22 8,8 C 64 % 1021,4 hPa 0,0 l/m 8,1 km/h (2 Bft) W 263 0 min 0,000 mm 1,4 UV-I 276 W/m 2,4 C 7,5 C 16,1 km/h (3 Bft) 100,00 %
23.04.2017 13:24 8,7 C 64 % 1021,4 hPa 0,0 l/m 7,9 km/h (2 Bft) NW 326 0 min 0,000 mm 1,2 UV-I 235 W/m 2,3 C 7,6 C 22,5 km/h (4 Bft) 94,83 %
23.04.2017 13:26 8,3 C 62 % 1021,4 hPa 0,0 l/m 9,9 km/h (2 Bft) NW 319 0 min 0,000 mm 1,8 UV-I 298 W/m 1,5 C 5,8 C 16,1 km/h (3 Bft) 100,00 %
23.04.2017 13:28 8,1 C 64 % 1021,4 hPa 0,0 l/m 6,1 km/h (2 Bft) W-SW 240 0 min 0,000 mm 2,2 UV-I 399 W/m 1,7 C 8,1 C 19,3 km/h (3 Bft) 98,21 %
23.04.2017 13:30 8,1 C 66 % 1021,5 hPa 0,0 l/m 6,4 km/h (2 Bft) W 271 0 min 0,000 mm 2,7 UV-I 385 W/m 2,1 C 8,1 C 19,3 km/h (3 Bft) 100,00 %
23.04.2017 13:32 8,2 C 66 % 1021,4 hPa 0,0 l/m 7,6 km/h (2 Bft) W-SW 253 0 min 0,000 mm 1,9 UV-I 341 W/m 2,2 C 7,3 C 16,1 km/h (3 Bft) 100,00 %
23.04.2017 13:34 8,1 C 65 % 1021,4 hPa 0,0 l/m 9,7 km/h (2 Bft) NW 313 0 min 0,000 mm 1,8 UV-I 350 W/m 1,9 C 5,7 C 20,9 km/h (4 Bft) 97,22 %
23.04.2017 13:36 7,9 C 63 % 1021,3 hPa 0,0 l/m 6,7 km/h (2 Bft) W-SW 250 0 min 0,000 mm 1,3 UV-I 235 W/m 1,3 C 7,7 C 14,5 km/h (3 Bft) 100,00 %
23.04.2017 13:38 7,7 C 66 % 1021,3 hPa 0,0 l/m 8,5 km/h (2 Bft) N-NW 327 0 min 0,000 mm 1,1 UV-I 178 W/m 1,8 C 6,1 C 19,3 km/h (3 Bft) 90,91 %
23.04.2017 13:40 7,6 C 66 % 1021,4 hPa 0,0 l/m 4,8 km/h (1 Bft) W 267 0 min 0,000 mm 1,0 UV-I 160 W/m 1,7 C 7,6 C 8,0 km/h (2 Bft) 96,15 %
23.04.2017 13:42 7,5 C 66 % 1021,3 hPa 0,0 l/m 5,7 km/h (1 Bft) W 272 0 min 0,000 mm 1,1 UV-I 181 W/m 1,6 C 7,5 C 17,7 km/h (3 Bft) 95,77 %
23.04.2017 13:44 7,4 C 65 % 1021,3 hPa 0,0 l/m 10,5 km/h (2 Bft) W-NW 290 0 min 0,000 mm 1,5 UV-I 252 W/m 1,3 C 4,4 C 16,1 km/h (3 Bft) 100,00 %
23.04.2017 13:46 7,6 C 65 % 1021,3 hPa 0,0 l/m 6,0 km/h (2 Bft) W 267 0 min 0,000 mm 2,0 UV-I 375 W/m 1,5 C 7,6 C 11,3 km/h (2 Bft) 100,00 %
23.04.2017 13:48 7,7 C 65 % 1021,3 hPa 0,0 l/m 6,3 km/h (2 Bft) W-NW 301 0 min 0,000 mm 1,9 UV-I 355 W/m 1,5 C 7,7 C 19,3 km/h (3 Bft) 96,61 %
23.04.2017 13:50 7,8 C 65 % 1021,3 hPa 0,0 l/m 9,1 km/h (2 Bft) W 273 0 min 0,000 mm 1,7 UV-I 322 W/m 1,6 C 5,8 C 17,7 km/h (3 Bft) 95,12 %
23.04.2017 13:53 7,9 C 65 % 1021,3 hPa 0,0 l/m 8,7 km/h (2 Bft) W-SW 249 0 min 0,000 mm 1,6 UV-I 303 W/m 1,7 C 6,1 C 22,5 km/h (4 Bft) 95,59 %
23.04.2017 13:54 7,9 C 64 % 1021,3 hPa 0,0 l/m 11,5 km/h (2 Bft) W-SW 244 0 min 0,000 mm 1,5 UV-I 304 W/m 1,5 C 4,4 C 17,7 km/h (3 Bft) 92,31 %
23.04.2017 13:56 8,0 C 63 % 1021,3 hPa 0,0 l/m 12,9 km/h (3 Bft) W-SW 240 0 min 0,000 mm 1,5 UV-I 280 W/m 1,4 C 3,7 C 24,1 km/h (4 Bft) 97,56 %
23.04.2017 13:58 8,1 C 63 % 1021,4 hPa 0,0 l/m 11,6 km/h (2 Bft) NW 318 0 min 0,000 mm 1,4 UV-I 275 W/m 1,5 C 4,5 C 20,9 km/h (4 Bft) 100,00 %
23.04.2017 14:00 8,1 C 61 % 1021,3 hPa 0,0 l/m 12,4 km/h (3 Bft) W-NW 298 0 min 0,203 mm 1,5 UV-I 299 W/m 1,0 C 4,1 C 22,5 km/h (4 Bft) 100,00 %
23.04.2017 14:02 8,0 C 61 % 1021,4 hPa 0,0 l/m 8,4 km/h (2 Bft) W-NW 300 0 min 0,000 mm 1,7 UV-I 335 W/m 0,9 C 6,5 C 16,1 km/h (3 Bft) 97,56 %
23.04.2017 14:04 8,1 C 64 % 1021,4 hPa 0,0 l/m 6,3 km/h (2 Bft) W 271 0 min 0,000 mm 2,0 UV-I 407 W/m 1,7 C 8,1 C 16,1 km/h (3 Bft) 100,00 %
23.04.2017 14:06 8,2 C 62 % 1021,4 hPa 0,0 l/m 8,3 km/h (2 Bft) W 279 2 min 0,000 mm 2,3 UV-I 466 W/m 1,4 C 6,7 C 17,7 km/h (3 Bft) 95,52 %
23.04.2017 14:08 8,3 C 59 % 1021,4 hPa 0,0 l/m 14,7 km/h (3 Bft) W-NW 294 2 min 0,000 mm 2,4 UV-I 452 W/m 0,8 C 3,2 C 27,4 km/h (4 Bft) 100,00 %
23.04.2017 14:10 8,4 C 60 % 1021,4 hPa 0,0 l/m 6,0 km/h (2 Bft) W 279 2 min 0,000 mm 2,9 UV-I 501 W/m 1,1 C 8,4 C 12,9 km/h (3 Bft) 98,21 %
23.04.2017 14:12 8,7 C 59 % 1021,4 hPa 0,0 l/m 6,8 km/h (2 Bft) SW 228 2 min 0,000 mm 3,0 UV-I 511 W/m 1,1 C 8,4 C 12,9 km/h (3 Bft) 100,00 %
23.04.2017 14:14 8,9 C 60 % 1021,4 hPa 0,0 l/m 6,0 km/h (2 Bft) W-NW 288 2 min 0,000 mm 2,7 UV-I 550 W/m 1,6 C 8,9 C 11,3 km/h (2 Bft) 97,73 %
23.04.2017 14:16 8,9 C 62 % 1021,3 hPa 0,0 l/m 8,2 km/h (2 Bft) W-NW 301 0 min 0,000 mm 2,1 UV-I 367 W/m 2,0 C 7,6 C 16,1 km/h (3 Bft) 97,92 %
23.04.2017 14:18 8,8 C 61 % 1021,3 hPa 0,0 l/m 5,8 km/h (2 Bft) NO 44 0 min 0,000 mm 2,1 UV-I 285 W/m 1,7 C 8,8 C 14,5 km/h (3 Bft) 100,00 %
23.04.2017 14:20 8,6 C 60 % 1021,2 hPa 0,0 l/m 9,2 km/h (2 Bft) N-NW 327 0 min 0,000 mm 2,0 UV-I 284 W/m 1,3 C 6,6 C 17,7 km/h (3 Bft) 97,56 %
23.04.2017 14:22 8,4 C 63 % 1021,3 hPa 0,0 l/m 5,6 km/h (1 Bft) N 355 0 min 0,000 mm 2,4 UV-I 420 W/m 1,8 C 8,4 C 14,5 km/h (3 Bft) 96,23 %
23.04.2017 14:24 8,4 C 63 % 1021,2 hPa 0,0 l/m 9,2 km/h (2 Bft) W 264 0 min 0,000 mm 2,3 UV-I 388 W/m 1,8 C 6,3 C 17,7 km/h (3 Bft) 97,56 %
23.04.2017 14:26 8,5 C 65 % 1021,2 hPa 0,0 l/m 7,2 km/h (2 Bft) S-SW 211 0 min 0,000 mm 2,2 UV-I 362 W/m 2,3 C 7,9 C 12,9 km/h (3 Bft) 97,56 %
23.04.2017 14:28 8,6 C 61 % 1021,2 hPa 0,0 l/m 7,0 km/h (2 Bft) W-SW 258 2 min 0,000 mm 2,5 UV-I 454 W/m 1,5 C 8,1 C 11,3 km/h (2 Bft) 96,61 %
23.04.2017 14:30 8,7 C 61 % 1021,1 hPa 0,0 l/m 6,3 km/h (2 Bft) W-SW 242 2 min 0,000 mm 3,3 UV-I 490 W/m 1,6 C 8,7 C 12,9 km/h (3 Bft) 97,87 %
23.04.2017 14:32 9,2 C 64 % 1021,1 hPa 0,0 l/m 6,9 km/h (2 Bft) W 268 2 min 0,000 mm 3,3 UV-I 897 W/m 2,8 C 8,8 C 17,7 km/h (3 Bft) 95,12 %
23.04.2017 14:34 9,3 C 59 % 1021,1 hPa 0,0 l/m 4,0 km/h (1 Bft) S-SW 211 2 min 0,000 mm 3,6 UV-I 918 W/m 1,7 C 9,3 C 12,9 km/h (3 Bft) 96,23 %
23.04.2017 14:36 9,5 C 57 % 1021,2 hPa 0,0 l/m 7,0 km/h (2 Bft) NW 307 2 min 0,000 mm 3,0 UV-I 869 W/m 1,4 C 9,1 C 14,5 km/h (3 Bft) 97,14 %
23.04.2017 14:38 9,4 C 59 % 1021,1 hPa 0,0 l/m 7,5 km/h (2 Bft) W-SW 242 2 min 0,000 mm 2,2 UV-I 472 W/m 1,8 C 8,6 C 16,1 km/h (3 Bft) 92,45 %
23.04.2017 14:40 9,2 C 57 % 1021,1 hPa 0,0 l/m 10,2 km/h (2 Bft) NW 323 0 min 0,000 mm 2,1 UV-I 378 W/m 1,1 C 6,6 C 22,5 km/h (4 Bft) 92,00 %
23.04.2017 14:42 9,2 C 59 % 1021,1 hPa 0,0 l/m 10,6 km/h (2 Bft) W-SW 245 0 min 0,000 mm 1,9 UV-I 367 W/m 1,6 C 6,4 C 19,3 km/h (3 Bft) 95,45 %
23.04.2017 14:44 9,1 C 57 % 1021,1 hPa 0,0 l/m 6,6 km/h (2 Bft) SW 217 2 min 0,000 mm 2,1 UV-I 421 W/m 1,0 C 9,0 C 16,1 km/h (3 Bft) 97,87 %
23.04.2017 14:46 9,3 C 60 % 1021,1 hPa 0,0 l/m 16,0 km/h (3 Bft) W-SW 240 2 min 0,000 mm 2,8 UV-I 641 W/m 1,9 C 3,9 C 27,4 km/h (4 Bft) 98,11 %
23.04.2017 14:48 9,7 C 53 % 1021,0 hPa 0,0 l/m 17,5 km/h (3 Bft) W-NW 285 2 min 0,000 mm 3,5 UV-I 964 W/m 0,6 C 3,8 C 29,0 km/h (5 Bft) 95,12 %
23.04.2017 14:50 9,9 C 54 % 1021,1 hPa 0,0 l/m 17,8 km/h (3 Bft) W 267 2 min 0,000 mm 2,6 UV-I 808 W/m 1,0 C 3,9 C 30,6 km/h (5 Bft) 93,18 %
23.04.2017 14:52 9,8 C 51 % 1020,9 hPa 0,0 l/m 21,6 km/h (4 Bft) W 268 0 min 0,000 mm 2,4 UV-I 389 W/m 0,2 C 2,5 C 37,0 km/h (5 Bft) 98,11 %
23.04.2017 14:54 9,6 C 50 % 1021,0 hPa 0,0 l/m 22,8 km/h (4 Bft) W-SW 248 0 min 0,000 mm 2,1 UV-I 376 W/m -0,3 C 1,9 C 45,1 km/h (6 Bft) 95,83 %
23.04.2017 14:56 9,3 C 52 % 1020,9 hPa 0,0 l/m 13,6 km/h (3 Bft) W-SW 244 2 min 0,000 mm 2,1 UV-I 416 W/m -0,0 C 4,9 C 30,6 km/h (5 Bft) 100,00 %
23.04.2017 14:58 9,2 C 52 % 1021,0 hPa 0,0 l/m 20,7 km/h (4 Bft) W 271 2 min 0,000 mm 2,3 UV-I 486 W/m -0,1 C 2,0 C 32,2 km/h (5 Bft) 98,00 %
23.04.2017 15:00 9,2 C 51 % 1021,1 hPa 0,0 l/m 23,7 km/h (4 Bft) NW 313 2 min 0,279 mm 2,5 UV-I 489 W/m -0,4 C 1,1 C 40,2 km/h (6 Bft) 100,00 %
23.04.2017 15:02 9,3 C 51 % 1021,1 hPa 0,0 l/m 18,2 km/h (3 Bft) W-SW 248 2 min 0,000 mm 3,0 UV-I 489 W/m -0,3 C 3,0 C 30,6 km/h (5 Bft) 98,21 %
23.04.2017 15:04 9,4 C 52 % 1021,0 hPa 0,0 l/m 18,1 km/h (3 Bft) W-SW 240 2 min 0,000 mm 2,2 UV-I 473 W/m 0,1 C 3,2 C 24,1 km/h (4 Bft) 95,74 %
23.04.2017 15:06 9,4 C 53 % 1021,0 hPa 0,0 l/m 21,5 km/h (4 Bft) W 259 2 min 0,000 mm 2,2 UV-I 473 W/m 0,3 C 2,0 C 32,2 km/h (5 Bft) 100,00 %
23.04.2017 15:08 9,5 C 52 % 1021,0 hPa 0,0 l/m 22,8 km/h (4 Bft) W-NW 296 2 min 0,000 mm 2,5 UV-I 485 W/m 0,1 C 1,8 C 37,0 km/h (5 Bft) 100,00 %
23.04.2017 15:10 9,4 C 52 % 1021,0 hPa 0,0 l/m 16,6 km/h (3 Bft) W-SW 258 2 min 0,000 mm 2,2 UV-I 521 W/m 0,1 C 3,7 C 30,6 km/h (5 Bft) 100,00 %
23.04.2017 15:12 9,4 C 52 % 1021,0 hPa 0,0 l/m 19,5 km/h (3 Bft) W 259 2 min 0,000 mm 2,0 UV-I 482 W/m 0,1 C 2,7 C 29,0 km/h (5 Bft) 100,00 %
23.04.2017 15:14 9,3 C 53 % 1021,0 hPa 0,0 l/m 14,2 km/h (3 Bft) W 267 2 min 0,000 mm 2,0 UV-I 437 W/m 0,2 C 4,6 C 24,1 km/h (4 Bft) 97,37 %
23.04.2017 15:16 9,3 C 53 % 1021,0 hPa 0,0 l/m 11,8 km/h (2 Bft) W 275 2 min 0,000 mm 2,2 UV-I 478 W/m 0,2 C 5,8 C 19,3 km/h (3 Bft) 100,00 %
23.04.2017 15:18 9,4 C 53 % 1020,9 hPa 0,0 l/m 19,2 km/h (3 Bft) SW 234 2 min 0,000 mm 2,9 UV-I 517 W/m 0,3 C 2,8 C 27,4 km/h (4 Bft) 100,00 %
23.04.2017 15:20 9,4 C 52 % 1020,9 hPa 0,0 l/m 19,1 km/h (3 Bft) S-SW 210 0 min 0,000 mm 1,9 UV-I 382 W/m 0,1 C 2,8 C 30,6 km/h (5 Bft) 100,00 %
23.04.2017 15:22 9,2 C 52 % 1021,0 hPa 0,0 l/m 14,6 km/h (3 Bft) W-SW 254 0 min 0,000 mm 1,7 UV-I 279 W/m -0,1 C 4,3 C 27,4 km/h (4 Bft) 100,00 %
23.04.2017 15:24 9,1 C 55 % 1020,9 hPa 0,0 l/m 11,2 km/h (2 Bft) W-NW 298 0 min 0,000 mm 1,9 UV-I 273 W/m 0,5 C 5,9 C 17,7 km/h (3 Bft) 100,00 %
23.04.2017 15:26 9,1 C 56 % 1021,0 hPa 0,0 l/m 9,6 km/h (2 Bft) W 273 0 min 0,000 mm 1,8 UV-I 305 W/m 0,8 C 6,8 C 14,5 km/h (3 Bft) 97,56 %
23.04.2017 15:28 9,1 C 57 % 1020,8 hPa 0,0 l/m 7,5 km/h (2 Bft) SW 233 2 min 0,000 mm 2,4 UV-I 514 W/m 1,0 C 8,3 C 16,1 km/h (3 Bft) 100,00 %
23.04.2017 15:30 9,4 C 58 % 1020,8 hPa 0,0 l/m 9,5 km/h (2 Bft) W-SW 246 2 min 0,000 mm 2,6 UV-I 801 W/m 1,6 C 7,2 C 14,5 km/h (3 Bft) 100,00 %
23.04.2017 15:32 9,7 C 57 % 1020,8 hPa 0,0 l/m 9,0 km/h (2 Bft) W 274 2 min 0,000 mm 2,1 UV-I 440 W/m 1,6 C 7,9 C 19,3 km/h (3 Bft) 94,34 %
23.04.2017 15:34 9,6 C 58 % 1020,8 hPa 0,0 l/m 5,1 km/h (1 Bft) W-SW 249 0 min 0,000 mm 1,9 UV-I 270 W/m 1,8 C 9,6 C 11,3 km/h (2 Bft) 100,00 %
23.04.2017 15:36 9,3 C 55 % 1020,8 hPa 0,0 l/m 11,9 km/h (2 Bft) W-NW 284 0 min 0,000 mm 1,5 UV-I 190 W/m 0,7 C 5,8 C 24,1 km/h (4 Bft) 100,00 %
23.04.2017 15:38 8,9 C 59 % 1020,8 hPa 0,0 l/m 9,8 km/h (2 Bft) W 270 0 min 0,000 mm 1,3 UV-I 184 W/m 1,3 C 6,5 C 22,5 km/h (4 Bft) 97,62 %
23.04.2017 15:40 8,9 C 60 % 1020,8 hPa 0,0 l/m 5,4 km/h (1 Bft) SW 227 0 min 0,000 mm 1,5 UV-I 251 W/m 1,6 C 8,9 C 11,3 km/h (2 Bft) 98,11 %
23.04.2017 15:42 8,9 C 61 % 1020,9 hPa 0,0 l/m 10,0 km/h (2 Bft) NW 309 0 min 0,000 mm 1,9 UV-I 276 W/m 1,8 C 6,4 C 16,1 km/h (3 Bft) 95,45 %
23.04.2017 15:44 8,9 C 60 % 1020,8 hPa 0,0 l/m 5,7 km/h (1 Bft) SW 224 2 min 0,000 mm 1,9 UV-I 404 W/m 1,6 C 8,9 C 9,7 km/h (2 Bft) 98,00 %
23.04.2017 15:46 8,9 C 60 % 1020,8 hPa 0,0 l/m 11,1 km/h (2 Bft) SW 229 2 min 0,000 mm 1,8 UV-I 479 W/m 1,6 C 5,7 C 19,3 km/h (3 Bft) 97,56 %
23.04.2017 15:48 8,8 C 60 % 1020,8 hPa 0,0 l/m 7,2 km/h (2 Bft) NW 319 0 min 0,000 mm 1,3 UV-I 188 W/m 1,5 C 8,2 C 16,1 km/h (3 Bft) 96,00 %
23.04.2017 15:50 8,7 C 60 % 1020,8 hPa 0,0 l/m 8,9 km/h (2 Bft) N-NW 327 0 min 0,000 mm 1,2 UV-I 188 W/m 1,4 C 6,9 C 16,1 km/h (3 Bft) 97,73 %
23.04.2017 15:52 8,6 C 61 % 1020,8 hPa 0,0 l/m 6,1 km/h (2 Bft) W-NW 297 0 min 0,000 mm 1,2 UV-I 205 W/m 1,5 C 8,6 C 11,3 km/h (2 Bft) 97,56 %
23.04.2017 15:54 8,5 C 60 % 1020,8 hPa 0,0 l/m 10,9 km/h (2 Bft) S-SO 151 0 min 0,000 mm 1,3 UV-I 223 W/m 1,2 C 5,4 C 17,7 km/h (3 Bft) 98,21 %
23.04.2017 15:56 8,7 C 61 % 1020,8 hPa 0,0 l/m 6,7 km/h (2 Bft) SW 236 2 min 0,000 mm 1,7 UV-I 378 W/m 1,6 C 8,5 C 12,9 km/h (3 Bft) 97,56 %
23.04.2017 15:58 8,8 C 62 % 1020,8 hPa 0,0 l/m 9,9 km/h (2 Bft) W-SW 238 2 min 0,000 mm 1,5 UV-I 505 W/m 1,9 C 6,3 C 14,5 km/h (3 Bft) 98,11 %
23.04.2017 16:00 9,0 C 62 % 1020,8 hPa 0,0 l/m 10,3 km/h (2 Bft) W-SW 246 0 min 0,229 mm 1,4 UV-I 259 W/m 2,1 C 6,3 C 17,7 km/h (3 Bft) 94,74 %
23.04.2017 16:02 9,0 C 58 % 1020,8 hPa 0,0 l/m 16,2 km/h (3 Bft) W-SW 250 0 min 0,000 mm 1,3 UV-I 276 W/m 1,2 C 3,4 C 22,5 km/h (4 Bft) 96,00 %
23.04.2017 16:04 8,9 C 58 % 1020,7 hPa 0,0 l/m 13,8 km/h (3 Bft) W 273 0 min 0,000 mm 1,2 UV-I 252 W/m 1,1 C 4,3 C 20,9 km/h (4 Bft) 96,00 %
23.04.2017 16:06 8,8 C 57 % 1020,8 hPa 0,0 l/m 11,6 km/h (2 Bft) W-NW 286 0 min 0,000 mm 1,0 UV-I 213 W/m 0,8 C 5,3 C 22,5 km/h (4 Bft) 97,37 %
23.04.2017 16:08 8,8 C 59 % 1020,8 hPa 0,0 l/m 10,9 km/h (2 Bft) N-NW 342 0 min 0,000 mm 1,4 UV-I 230 W/m 1,2 C 5,7 C 17,7 km/h (3 Bft) 94,74 %
23.04.2017 16:10 8,9 C 62 % 1020,8 hPa 0,0 l/m 6,4 km/h (2 Bft) SW 219 0 min 0,000 mm 1,5 UV-I 318 W/m 2,0 C 8,9 C 17,7 km/h (3 Bft) 97,44 %
23.04.2017 16:12 9,2 C 62 % 1020,7 hPa 0,0 l/m 5,2 km/h (1 Bft) W-NW 288 2 min 0,000 mm 1,9 UV-I 591 W/m 2,3 C 9,2 C 9,7 km/h (2 Bft) 96,00 %
23.04.2017 16:14 9,3 C 59 % 1020,7 hPa 0,0 l/m 7,2 km/h (2 Bft) N-NW 331 2 min 0,000 mm 1,6 UV-I 506 W/m 1,7 C 8,7 C 20,9 km/h (4 Bft) 95,74 %
23.04.2017 16:16 9,3 C 59 % 1020,7 hPa 0,0 l/m 9,8 km/h (2 Bft) NW 304 0 min 0,000 mm 1,6 UV-I 309 W/m 1,7 C 6,9 C 20,9 km/h (4 Bft) 96,23 %
23.04.2017 16:18 9,3 C 59 % 1020,8 hPa 0,0 l/m 8,7 km/h (2 Bft) W-NW 299 2 min 0,000 mm 1,9 UV-I 624 W/m 1,7 C 7,6 C 16,1 km/h (3 Bft) 95,12 %
23.04.2017 16:20 9,4 C 60 % 1020,7 hPa 0,0 l/m 6,9 km/h (2 Bft) W-NW 302 2 min 0,000 mm 1,7 UV-I 581 W/m 2,0 C 9,0 C 22,5 km/h (4 Bft) 94,00 %
23.04.2017 16:22 9,5 C 58 % 1020,7 hPa 0,0 l/m 13,6 km/h (3 Bft) W-NW 282 2 min 0,000 mm 1,6 UV-I 484 W/m 1,7 C 5,2 C 25,7 km/h (4 Bft) 90,00 %
23.04.2017 16:24 9,4 C 56 % 1020,7 hPa 0,0 l/m 11,6 km/h (2 Bft) W-SW 250 2 min 0,000 mm 1,6 UV-I 514 W/m 1,1 C 6,0 C 20,9 km/h (4 Bft) 97,56 %
23.04.2017 16:26 9,4 C 57 % 1020,7 hPa 0,0 l/m 12,3 km/h (3 Bft) W-SW 250 2 min 0,000 mm 1,7 UV-I 580 W/m 1,3 C 5,7 C 20,9 km/h (4 Bft) 97,56 %
23.04.2017 16:28 9,6 C 58 % 1020,7 hPa 0,0 l/m 14,0 km/h (3 Bft) W 275 2 min 0,000 mm 1,6 UV-I 598 W/m 1,8 C 5,1 C 22,5 km/h (4 Bft) 92,45 %
23.04.2017 16:30 9,7 C 57 % 1020,7 hPa 0,0 l/m 16,6 km/h (3 Bft) W-SW 248 2 min 0,000 mm 1,5 UV-I 594 W/m 1,6 C 4,1 C 25,7 km/h (4 Bft) 95,74 %
23.04.2017 16:32 9,7 C 56 % 1020,7 hPa 0,0 l/m 14,6 km/h (3 Bft) SW 232 2 min 0,000 mm 1,3 UV-I 594 W/m 1,4 C 4,9 C 24,1 km/h (4 Bft) 92,68 %
23.04.2017 16:34 9,4 C 55 % 1020,7 hPa 0,0 l/m 6,7 km/h (2 Bft) W-NW 295 0 min 0,000 mm 1,3 UV-I 202 W/m 0,8 C 9,2 C 19,3 km/h (3 Bft) 96,43 %
23.04.2017 16:36 9,4 C 56 % 1020,8 hPa 0,0 l/m 12,1 km/h (2 Bft) W-SW 251 0 min 0,000 mm 1,2 UV-I 234 W/m 1,1 C 5,8 C 17,7 km/h (3 Bft) 95,83 %
23.04.2017 16:38 9,5 C 60 % 1020,8 hPa 0,0 l/m 10,0 km/h (2 Bft) W 273 2 min 0,000 mm 1,3 UV-I 413 W/m 2,1 C 7,0 C 16,1 km/h (3 Bft) 95,45 %
23.04.2017 16:40 9,5 C 55 % 1020,7 hPa 0,0 l/m 14,7 km/h (3 Bft) W-SW 254 2 min 0,000 mm 1,3 UV-I 557 W/m 0,9 C 4,7 C 29,0 km/h (5 Bft) 94,74 %
23.04.2017 16:42 9,4 C 56 % 1020,7 hPa 0,0 l/m 6,9 km/h (2 Bft) W-SW 248 2 min 0,000 mm 1,3 UV-I 472 W/m 1,1 C 9,0 C 17,7 km/h (3 Bft) 96,43 %
23.04.2017 16:44 9,4 C 56 % 1020,7 hPa 0,0 l/m 11,9 km/h (2 Bft) SW 235 0 min 0,000 mm 1,0 UV-I 165 W/m 1,1 C 5,9 C 20,9 km/h (4 Bft) 97,37 %
23.04.2017 16:46 9,3 C 55 % 1020,7 hPa 0,0 l/m 9,7 km/h (2 Bft) SW 234 0 min 0,000 mm 1,3 UV-I 233 W/m 0,7 C 7,0 C 22,5 km/h (4 Bft) 98,11 %
23.04.2017 16:48 9,4 C 54 % 1020,7 hPa 0,0 l/m 11,4 km/h (2 Bft) W 269 2 min 0,000 mm 1,4 UV-I 556 W/m 0,6 C 6,1 C 27,4 km/h (4 Bft) 94,00 %
23.04.2017 16:50 9,5 C 54 % 1020,6 hPa 0,0 l/m 15,6 km/h (3 Bft) W 271 2 min 0,000 mm 1,3 UV-I 531 W/m 0,7 C 4,3 C 25,7 km/h (4 Bft) 97,62 %
23.04.2017 16:52 9,6 C 55 % 1020,6 hPa 0,0 l/m 11,5 km/h (2 Bft) W-NW 294 2 min 0,000 mm 1,3 UV-I 502 W/m 1,0 C 6,3 C 19,3 km/h (3 Bft) 94,23 %
23.04.2017 16:54 9,7 C 53 % 1020,7 hPa 0,0 l/m 22,0 km/h (4 Bft) SW 231 2 min 0,000 mm 1,1 UV-I 506 W/m 0,6 C 2,3 C 29,0 km/h (5 Bft) 97,22 %
23.04.2017 16:56 9,6 C 52 % 1020,7 hPa 0,0 l/m 24,2 km/h (4 Bft) W 260 2 min 0,000 mm 1,1 UV-I 506 W/m 0,2 C 1,5 C 37,0 km/h (5 Bft) 98,21 %
23.04.2017 16:58 9,4 C 53 % 1020,7 hPa 0,0 l/m 14,3 km/h (3 Bft) W-SW 244 2 min 0,000 mm 1,0 UV-I 438 W/m 0,3 C 4,7 C 24,1 km/h (4 Bft) 97,73 %
23.04.2017 17:00 9,4 C 55 % 1020,7 hPa 0,0 l/m 10,5 km/h (2 Bft) W 275 0 min 0,000 mm 0,8 UV-I 196 W/m 0,8 C 6,6 C 16,1 km/h (3 Bft) 98,00 %
23.04.2017 17:02 9,3 C 54 % 1020,7 hPa 0,0 l/m 16,1 km/h (3 Bft) W 266 0 min 0,229 mm 0,8 UV-I 180 W/m 0,5 C 3,8 C 25,7 km/h (4 Bft) 96,88 %
23.04.2017 17:04 9,1 C 52 % 1020,8 hPa 0,0 l/m 16,3 km/h (3 Bft) W 272 0 min 0,000 mm 0,7 UV-I 175 W/m -0,2 C 3,5 C 27,4 km/h (4 Bft) 96,61 %
23.04.2017 17:06 8,9 C 52 % 1020,7 hPa 0,0 l/m 18,2 km/h (3 Bft) W 262 0 min 0,000 mm 0,7 UV-I 171 W/m -0,4 C 2,5 C 25,7 km/h (4 Bft) 94,34 %
23.04.2017 17:08 8,8 C 52 % 1020,7 hPa 0,0 l/m 16,8 km/h (3 Bft) W 264 0 min 0,000 mm 0,7 UV-I 208 W/m -0,5 C 2,9 C 32,2 km/h (5 Bft) 100,00 %
23.04.2017 17:10 8,8 C 53 % 1020,8 hPa 0,0 l/m 19,3 km/h (3 Bft) W-SW 253 0 min 0,000 mm 0,8 UV-I 208 W/m -0,2 C 2,0 C 37,0 km/h (5 Bft) 96,92 %
23.04.2017 17:12 8,8 C 53 % 1020,7 hPa 0,0 l/m 21,9 km/h (4 Bft) W-SW 247 0 min 0,000 mm 0,8 UV-I 212 W/m -0,2 C 1,1 C 32,2 km/h (5 Bft) 96,00 %
23.04.2017 17:14 8,8 C 53 % 1020,8 hPa 0,0 l/m 16,2 km/h (3 Bft) W-SW 240 0 min 0,000 mm 0,7 UV-I 193 W/m -0,2 C 3,2 C 27,4 km/h (4 Bft) 97,14 %
23.04.2017 17:16 8,8 C 55 % 1020,9 hPa 0,0 l/m 11,5 km/h (2 Bft) W 266 0 min 0,000 mm 0,7 UV-I 193 W/m 0,3 C 5,4 C 20,9 km/h (4 Bft) 96,43 %
23.04.2017 17:18 8,8 C 58 % 1020,9 hPa 0,0 l/m 8,1 km/h (2 Bft) W 269 0 min 0,000 mm 0,7 UV-I 205 W/m 1,0 C 7,5 C 14,5 km/h (3 Bft) 97,56 %
23.04.2017 17:20 8,7 C 57 % 1020,9 hPa 0,0 l/m 9,5 km/h (2 Bft) W-SW 250 0 min 0,000 mm 0,7 UV-I 191 W/m 0,7 C 6,5 C 14,5 km/h (3 Bft) 96,23 %
23.04.2017 17:22 8,7 C 57 % 1020,8 hPa 0,0 l/m 11,7 km/h (2 Bft) W 267 0 min 0,000 mm 0,6 UV-I 209 W/m 0,7 C 5,2 C 17,7 km/h (3 Bft) 97,56 %
23.04.2017 17:24 8,6 C 58 % 1020,9 hPa 0,0 l/m 6,3 km/h (2 Bft) W-SW 253 0 min 0,000 mm 0,6 UV-I 160 W/m 0,8 C 8,6 C 16,1 km/h (3 Bft) 93,62 %
23.04.2017 17:26 8,5 C 59 % 1020,9 hPa 0,0 l/m 6,2 km/h (2 Bft) W-SW 253 0 min 0,000 mm 0,6 UV-I 130 W/m 1,0 C 8,5 C 11,3 km/h (2 Bft) 98,00 %
23.04.2017 17:28 8,4 C 59 % 1020,9 hPa 0,0 l/m 11,6 km/h (2 Bft) W-SW 244 0 min 0,000 mm 0,5 UV-I 137 W/m 0,9 C 4,9 C 24,1 km/h (4 Bft) 98,00 %
23.04.2017 17:30 8,4 C 58 % 1020,8 hPa 0,0 l/m 10,4 km/h (2 Bft) W-NW 290 0 min 0,000 mm 0,5 UV-I 214 W/m 0,6 C 5,6 C 19,3 km/h (3 Bft) 100,00 %
23.04.2017 17:32 8,5 C 58 % 1020,9 hPa 0,0 l/m 6,8 km/h (2 Bft) W-NW 291 2 min 0,000 mm 0,5 UV-I 238 W/m 0,7 C 8,2 C 17,7 km/h (3 Bft) 98,08 %
23.04.2017 17:34 8,6 C 58 % 1020,9 hPa 0,0 l/m 9,8 km/h (2 Bft) W-SW 248 2 min 0,000 mm 0,6 UV-I 355 W/m 0,8 C 6,2 C 17,7 km/h (3 Bft) 100,00 %
23.04.2017 17:36 8,7 C 57 % 1020,8 hPa 0,0 l/m 12,8 km/h (3 Bft) W-NW 284 2 min 0,000 mm 0,6 UV-I 390 W/m 0,7 C 4,6 C 22,5 km/h (4 Bft) 97,73 %
23.04.2017 17:38 8,7 C 57 % 1020,8 hPa 0,0 l/m 9,1 km/h (2 Bft) W-SW 252 0 min 0,000 mm 0,6 UV-I 154 W/m 0,7 C 6,7 C 16,1 km/h (3 Bft) 98,21 %
23.04.2017 17:40 8,7 C 57 % 1020,8 hPa 0,0 l/m 13,8 km/h (3 Bft) W 261 0 min 0,000 mm 0,5 UV-I 119 W/m 0,7 C 4,1 C 20,9 km/h (4 Bft) 100,00 %
23.04.2017 17:42 8,6 C 59 % 1020,9 hPa 0,0 l/m 6,1 km/h (2 Bft) W 275 0 min 0,000 mm 0,3 UV-I 131 W/m 1,0 C 8,6 C 11,3 km/h (2 Bft) 100,00 %
23.04.2017 17:44 8,5 C 57 % 1021,0 hPa 0,0 l/m 8,6 km/h (2 Bft) W 259 0 min 0,000 mm 0,5 UV-I 185 W/m 0,5 C 6,9 C 14,5 km/h (3 Bft) 100,00 %
23.04.2017 17:46 8,5 C 58 % 1021,0 hPa 0,0 l/m 9,1 km/h (2 Bft) SW 236 0 min 0,000 mm 0,5 UV-I 191 W/m 0,7 C 6,5 C 14,5 km/h (3 Bft) 100,00 %
23.04.2017 17:48 8,4 C 57 % 1020,9 hPa 0,0 l/m 9,7 km/h (2 Bft) W 271 0 min 0,000 mm 0,3 UV-I 154 W/m 0,4 C 6,0 C 14,5 km/h (3 Bft) 100,00 %
23.04.2017 17:50 8,4 C 55 % 1021,0 hPa 0,0 l/m 13,7 km/h (3 Bft) W 267 0 min 0,000 mm 0,0 UV-I 133 W/m -0,1 C 3,8 C 27,4 km/h (4 Bft) 100,00 %
23.04.2017 17:52 8,4 C 54 % 1021,0 hPa 0,0 l/m 12,1 km/h (2 Bft) W-NW 302 0 min 0,000 mm 0,0 UV-I 148 W/m -0,4 C 4,6 C 20,9 km/h (4 Bft) 93,18 %
23.04.2017 17:54 8,4 C 55 % 1021,0 hPa 0,0 l/m 6,6 km/h (2 Bft) W-NW 286 0 min 0,000 mm 0,0 UV-I 160 W/m -0,1 C 8,3 C 11,3 km/h (2 Bft) 97,87 %
23.04.2017 17:56 8,4 C 54 % 1021,0 hPa 0,0 l/m 12,7 km/h (3 Bft) W-NW 285 0 min 0,000 mm 0,0 UV-I 145 W/m -0,4 C 4,3 C 22,5 km/h (4 Bft) 100,00 %
23.04.2017 17:58 8,4 C 54 % 1021,0 hPa 0,0 l/m 6,9 km/h (2 Bft) W-NW 285 2 min 0,000 mm 0,0 UV-I 191 W/m -0,4 C 8,0 C 11,3 km/h (2 Bft) 98,00 %
23.04.2017 18:00 8,5 C 53 % 1021,0 hPa 0,0 l/m 13,2 km/h (3 Bft) W-SW 249 2 min 0,000 mm 0,0 UV-I 253 W/m -0,5 C 4,2 C 22,5 km/h (4 Bft) 100,00 %
23.04.2017 18:02 8,6 C 53 % 1020,9 hPa 0,0 l/m 10,8 km/h (2 Bft) W-SW 257 2 min 0,152 mm 0,0 UV-I 210 W/m -0,4 C 5,6 C 24,1 km/h (4 Bft) 95,56 %
23.04.2017 18:04 8,6 C 52 % 1021,0 hPa 0,0 l/m 12,6 km/h (3 Bft) W-SW 250 0 min 0,000 mm 0,0 UV-I 160 W/m -0,7 C 4,6 C 22,5 km/h (4 Bft) 98,11 %
23.04.2017 18:06 8,5 C 53 % 1021,0 hPa 0,0 l/m 9,2 km/h (2 Bft) W 275 0 min 0,000 mm 0,0 UV-I 136 W/m -0,5 C 6,4 C 17,7 km/h (3 Bft) 94,55 %
23.04.2017 18:08 8,4 C 53 % 1021,0 hPa 0,0 l/m 7,6 km/h (2 Bft) W-SW 242 0 min 0,000 mm 0,0 UV-I 126 W/m -0,6 C 7,5 C 16,1 km/h (3 Bft) 95,74 %
23.04.2017 18:10 8,3 C 54 % 1021,1 hPa 0,0 l/m 9,0 km/h (2 Bft) W 267 0 min 0,000 mm 0,0 UV-I 122 W/m -0,5 C 6,4 C 16,1 km/h (3 Bft) 91,67 %
23.04.2017 18:12 8,2 C 54 % 1021,1 hPa 0,0 l/m 12,7 km/h (3 Bft) W-NW 291 0 min 0,000 mm 0,0 UV-I 118 W/m -0,5 C 4,1 C 19,3 km/h (3 Bft) 93,18 %
23.04.2017 18:14 8,2 C 53 % 1021,0 hPa 0,2 l/m 16,3 km/h (3 Bft) W 275 0 min 0,000 mm 0,0 UV-I 103 W/m -0,8 C 2,4 C 29,0 km/h (5 Bft) 94,92 %
23.04.2017 18:16 8,2 C 54 % 1021,1 hPa 0,0 l/m 9,3 km/h (2 Bft) N-NW 332 0 min 0,000 mm 0,0 UV-I 116 W/m -0,5 C 6,1 C 17,7 km/h (3 Bft) 95,45 %
23.04.2017 18:18 8,1 C 54 % 1021,2 hPa 0,0 l/m 5,8 km/h (2 Bft) W 272 0 min 0,000 mm 0,0 UV-I 113 W/m -0,6 C 8,1 C 17,7 km/h (3 Bft) 95,12 %
23.04.2017 18:20 8,1 C 55 % 1021,2 hPa 0,0 l/m 8,1 km/h (2 Bft) W-NW 282 0 min 0,000 mm 0,0 UV-I 107 W/m -0,4 C 6,8 C 16,1 km/h (3 Bft) 98,21 %
23.04.2017 18:22 8,1 C 55 % 1021,1 hPa 0,0 l/m 5,7 km/h (1 Bft) NW 320 0 min 0,000 mm 0,0 UV-I 106 W/m -0,4 C 8,1 C 11,3 km/h (2 Bft) 97,37 %
23.04.2017 18:24 8,1 C 55 % 1021,2 hPa 0,0 l/m 8,1 km/h (2 Bft) W-NW 295 0 min 0,000 mm 0,0 UV-I 102 W/m -0,4 C 6,8 C 19,3 km/h (3 Bft) 97,73 %
23.04.2017 18:26 8,0 C 57 % 1021,2 hPa 0,0 l/m 8,0 km/h (2 Bft) W 261 0 min 0,000 mm 0,0 UV-I 100 W/m 0,0 C 6,8 C 12,9 km/h (3 Bft) 96,00 %
23.04.2017 18:28 8,0 C 56 % 1021,3 hPa 0,0 l/m 7,0 km/h (2 Bft) W 263 0 min 0,000 mm 0,0 UV-I 112 W/m -0,2 C 7,5 C 12,9 km/h (3 Bft) 90,00 %
23.04.2017 18:30 8,0 C 56 % 1021,3 hPa 0,0 l/m 3,8 km/h (1 Bft) W 260 0 min 0,000 mm 0,0 UV-I 107 W/m -0,2 C 8,0 C 9,7 km/h (2 Bft) 96,00 %
23.04.2017 18:32 8,0 C 55 % 1021,2 hPa 0,0 l/m 10,2 km/h (2 Bft) SW 220 0 min 0,000 mm 0,0 UV-I 104 W/m -0,5 C 5,3 C 20,9 km/h (4 Bft) 92,11 %
23.04.2017 18:34 8,0 C 55 % 1021,3 hPa 0,0 l/m 5,3 km/h (1 Bft) W-NW 294 0 min 0,000 mm 0,0 UV-I 97 W/m -0,5 C 8,0 C 17,7 km/h (3 Bft) 95,12 %
23.04.2017 18:36 7,9 C 56 % 1021,3 hPa 0,0 l/m 6,6 km/h (2 Bft) W-NW 291 0 min 0,000 mm 0,0 UV-I 79 W/m -0,3 C 7,8 C 14,5 km/h (3 Bft) 98,46 %
23.04.2017 18:38 7,9 C 56 % 1021,4 hPa 0,0 l/m 6,2 km/h (2 Bft) W-NW 290 0 min 0,000 mm 0,0 UV-I 74 W/m -0,3 C 7,9 C 12,9 km/h (3 Bft) 100,00 %
23.04.2017 18:40 7,8 C 57 % 1021,4 hPa 0,0 l/m 7,8 km/h (2 Bft) W-NW 283 0 min 0,000 mm 0,0 UV-I 68 W/m -0,2 C 6,7 C 14,5 km/h (3 Bft) 100,00 %
23.04.2017 18:42 7,8 C 57 % 1021,4 hPa 0,0 l/m 7,5 km/h (2 Bft) W-SW 245 0 min 0,000 mm 0,0 UV-I 63 W/m -0,2 C 6,9 C 12,9 km/h (3 Bft) 94,29 %
23.04.2017 18:44 7,8 C 56 % 1021,4 hPa 0,0 l/m 9,9 km/h (2 Bft) W 265 0 min 0,000 mm 0,0 UV-I 62 W/m -0,4 C 5,2 C 22,5 km/h (4 Bft) 98,11 %
23.04.2017 18:46 7,8 C 57 % 1021,4 hPa 0,0 l/m 9,8 km/h (2 Bft) W 275 0 min 0,000 mm 0,0 UV-I 60 W/m -0,2 C 5,3 C 17,7 km/h (3 Bft) 94,87 %
23.04.2017 18:48 7,7 C 56 % 1021,5 hPa 0,0 l/m 7,0 km/h (2 Bft) N-NW 328 0 min 0,000 mm 0,0 UV-I 59 W/m -0,5 C 7,2 C 16,1 km/h (3 Bft) 100,00 %
23.04.2017 18:50 7,7 C 56 % 1021,5 hPa 0,0 l/m 6,4 km/h (2 Bft) NW 306 0 min 0,000 mm 0,0 UV-I 58 W/m -0,5 C 7,7 C 14,5 km/h (3 Bft) 100,00 %
23.04.2017 18:52 7,7 C 56 % 1021,5 hPa 0,0 l/m 7,8 km/h (2 Bft) NW 304 0 min 0,000 mm 0,0 UV-I 56 W/m -0,5 C 6,6 C 16,1 km/h (3 Bft) 90,24 %
23.04.2017 18:54 7,7 C 57 % 1021,5 hPa 0,0 l/m 6,5 km/h (2 Bft) W-SW 250 0 min 0,000 mm 0,0 UV-I 56 W/m -0,3 C 7,6 C 16,1 km/h (3 Bft) 96,23 %
23.04.2017 18:56 7,7 C 57 % 1021,5 hPa 0,0 l/m 6,0 km/h (2 Bft) NW 304 0 min 0,000 mm 0,0 UV-I 58 W/m -0,3 C 7,7 C 12,9 km/h (3 Bft) 98,00 %
23.04.2017 18:58 7,7 C 57 % 1021,5 hPa 0,0 l/m 5,8 km/h (2 Bft) W-SW 245 0 min 0,000 mm 0,0 UV-I 58 W/m -0,3 C 7,7 C 11,3 km/h (2 Bft) 100,00 %
23.04.2017 19:00 7,7 C 58 % 1021,6 hPa 0,0 l/m 6,3 km/h (2 Bft) W-SW 240 0 min 0,076 mm 0,0 UV-I 58 W/m -0,0 C 7,7 C 12,9 km/h (3 Bft) 95,74 %
23.04.2017 19:02 7,6 C 58 % 1021,6 hPa 0,0 l/m 8,3 km/h (2 Bft) W-SW 250 0 min 0,000 mm 0,0 UV-I 61 W/m -0,1 C 6,1 C 12,9 km/h (3 Bft) 97,56 %
23.04.2017 19:04 7,6 C 57 % 1021,6 hPa 0,0 l/m 10,5 km/h (2 Bft) W 277 0 min 0,000 mm 0,0 UV-I 59 W/m -0,4 C 4,6 C 19,3 km/h (3 Bft) 97,73 %
23.04.2017 19:06 7,6 C 56 % 1021,6 hPa 0,0 l/m 8,9 km/h (2 Bft) W 275 0 min 0,000 mm 0,0 UV-I 55 W/m -0,6 C 5,7 C 19,3 km/h (3 Bft) 96,23 %
23.04.2017 19:08 7,6 C 57 % 1021,6 hPa 0,0 l/m 5,7 km/h (1 Bft) W 263 0 min 0,000 mm 0,0 UV-I 51 W/m -0,4 C 7,6 C 12,9 km/h (3 Bft) 100,00 %
23.04.2017 19:10 7,6 C 58 % 1021,6 hPa 0,0 l/m 5,1 km/h (1 Bft) W-NW 293 0 min 0,000 mm 0,0 UV-I 47 W/m -0,1 C 7,6 C 9,7 km/h (2 Bft) 100,00 %
23.04.2017 19:12 7,5 C 59 % 1021,6 hPa 0,0 l/m 3,0 km/h (1 Bft) SW 229 0 min 0,000 mm 0,0 UV-I 44 W/m 0,0 C 7,5 C 6,4 km/h (2 Bft) 96,00 %
23.04.2017 19:14 7,4 C 60 % 1021,7 hPa 0,0 l/m 4,1 km/h (1 Bft) W 265 0 min 0,000 mm 0,0 UV-I 40 W/m 0,2 C 7,4 C 16,1 km/h (3 Bft) 98,11 %
23.04.2017 19:16 7,4 C 59 % 1021,6 hPa 0,0 l/m 3,4 km/h (1 Bft) W-NW 298 0 min 0,000 mm 0,0 UV-I 40 W/m -0,1 C 7,4 C 9,7 km/h (2 Bft) 95,12 %
23.04.2017 19:18 7,4 C 59 % 1021,7 hPa 0,0 l/m 4,7 km/h (1 Bft) W-SW 248 0 min 0,000 mm 0,0 UV-I 36 W/m -0,1 C 7,4 C 12,9 km/h (3 Bft) 94,34 %
23.04.2017 19:20 7,4 C 58 % 1021,6 hPa 0,0 l/m 7,7 km/h (2 Bft) W-SW 258 0 min 0,000 mm 0,0 UV-I 34 W/m -0,3 C 6,4 C 16,1 km/h (3 Bft) 95,45 %
23.04.2017 19:22 7,3 C 59 % 1021,7 hPa 0,0 l/m 4,9 km/h (1 Bft) W-NW 284 0 min 0,000 mm 0,0 UV-I 35 W/m -0,2 C 7,3 C 9,7 km/h (2 Bft) 100,00 %
23.04.2017 19:24 7,3 C 58 % 1021,7 hPa 0,0 l/m 5,7 km/h (1 Bft) W 277 0 min 0,000 mm 0,0 UV-I 32 W/m -0,4 C 7,3 C 14,5 km/h (3 Bft) 100,00 %
23.04.2017 19:26 7,3 C 58 % 1021,7 hPa 0,0 l/m 4,6 km/h (1 Bft) W 272 0 min 0,000 mm 0,0 UV-I 30 W/m -0,4 C 7,3 C 11,3 km/h (2 Bft) 100,00 %
23.04.2017 19:28 7,3 C 57 % 1021,7 hPa 0,0 l/m 5,8 km/h (2 Bft) W 277 0 min 0,000 mm 0,0 UV-I 28 W/m -0,6 C 7,3 C 17,7 km/h (3 Bft) 97,62 %
23.04.2017 19:30 7,3 C 59 % 1021,7 hPa 0,0 l/m 2,9 km/h (1 Bft) W-SW 244 0 min 0,000 mm 0,0 UV-I 27 W/m -0,2 C 7,3 C 12,9 km/h (3 Bft) 100,00 %
23.04.2017 19:32 7,3 C 58 % 1021,8 hPa 0,0 l/m 6,2 km/h (2 Bft) W-NW 286 0 min 0,000 mm 0,0 UV-I 26 W/m -0,4 C 7,3 C 11,3 km/h (2 Bft) 93,62 %
23.04.2017 19:34 7,3 C 58 % 1021,8 hPa 0,0 l/m 5,7 km/h (1 Bft) W-NW 295 0 min 0,000 mm 0,0 UV-I 26 W/m -0,4 C 7,3 C 12,9 km/h (3 Bft) 96,00 %
23.04.2017 19:36 7,2 C 58 % 1021,8 hPa 0,0 l/m 8,2 km/h (2 Bft) N-NW 342 0 min 0,000 mm 0,0 UV-I 25 W/m -0,5 C 5,8 C 16,1 km/h (3 Bft) 100,00 %
23.04.2017 19:38 7,2 C 58 % 1021,8 hPa 0,0 l/m 3,8 km/h (1 Bft) W 261 0 min 0,000 mm 0,0 UV-I 22 W/m -0,5 C 7,2 C 6,4 km/h (2 Bft) 100,00 %
23.04.2017 19:40 7,2 C 58 % 1021,9 hPa 0,0 l/m 3,2 km/h (1 Bft) W 270 0 min 0,000 mm 0,0 UV-I 20 W/m -0,5 C 7,2 C 8,0 km/h (2 Bft) 93,86 %
23.04.2017 19:42 7,2 C 58 % 1021,9 hPa 0,0 l/m 6,4 km/h (2 Bft) W 270 0 min 0,000 mm 0,0 UV-I 18 W/m -0,5 C 7,2 C 6,4 km/h (2 Bft) 100,00 %
23.04.2017 19:44 7,1 C 58 % 1021,8 hPa 0,0 l/m 2,4 km/h (1 Bft) W-NW 294 0 min 0,000 mm 0,0 UV-I 18 W/m -0,6 C 7,1 C 4,8 km/h (1 Bft) 98,46 %
23.04.2017 19:46 7,1 C 60 % 1021,9 hPa 0,0 l/m 6,6 km/h (2 Bft) W 265 0 min 0,000 mm 0,0 UV-I 18 W/m -0,1 C 7,0 C 17,7 km/h (3 Bft) 97,56 %
23.04.2017 19:48 7,1 C 59 % 1021,9 hPa 0,0 l/m 8,0 km/h (2 Bft) W-NW 297 0 min 0,000 mm 0,0 UV-I 17 W/m -0,4 C 5,8 C 16,1 km/h (3 Bft) 98,21 %
23.04.2017 19:50 7,1 C 58 % 1022,0 hPa 0,0 l/m 7,5 km/h (2 Bft) W-SW 250 0 min 0,000 mm 0,0 UV-I 15 W/m -0,6 C 6,2 C 14,5 km/h (3 Bft) 92,68 %
23.04.2017 19:52 7,0 C 59 % 1021,9 hPa 0,0 l/m 8,0 km/h (2 Bft) W 268 2 min 0,000 mm 0,0 UV-I 14 W/m -0,5 C 5,7 C 14,5 km/h (3 Bft) 96,43 %
23.04.2017 19:54 7,0 C 59 % 1021,9 hPa 0,0 l/m 3,5 km/h (1 Bft) W 273 2 min 0,000 mm 0,0 UV-I 12 W/m -0,5 C 7,0 C 9,7 km/h (2 Bft) 90,91 %
23.04.2017 19:56 6,9 C 59 % 1021,9 hPa 0,0 l/m 4,5 km/h (1 Bft) W 259 0 min 0,000 mm 0,0 UV-I 11 W/m -0,5 C 6,9 C 9,7 km/h (2 Bft) 97,56 %
23.04.2017 19:58 6,9 C 59 % 1022,0 hPa 0,0 l/m 4,6 km/h (1 Bft) W 277 0 min 0,000 mm 0,0 UV-I 10 W/m -0,5 C 6,9 C 11,3 km/h (2 Bft) 96,00 %
23.04.2017 20:00 6,8 C 59 % 1022,0 hPa 0,0 l/m 7,5 km/h (2 Bft) W-SW 254 0 min 0,000 mm 0,0 UV-I 9 W/m -0,6 C 5,9 C 12,9 km/h (3 Bft) 93,18 %
23.04.2017 20:02 6,8 C 58 % 1022,0 hPa 0,0 l/m 10,1 km/h (2 Bft) W-SW 253 0 min 0,051 mm 0,0 UV-I 7 W/m -0,9 C 4,0 C 16,1 km/h (3 Bft) 96,23 %
23.04.2017 20:04 6,8 C 59 % 1022,0 hPa 0,0 l/m 5,5 km/h (1 Bft) W-SW 245 0 min 0,000 mm 0,0 UV-I 7 W/m -0,6 C 6,8 C 11,3 km/h (2 Bft) 98,00 %
23.04.2017 20:06 6,8 C 59 % 1022,0 hPa 0,0 l/m 5,2 km/h (1 Bft) W 262 0 min 0,000 mm 0,0 UV-I 7 W/m -0,6 C 6,8 C 6,4 km/h (2 Bft) 94,74 %
23.04.2017 20:08 6,8 C 60 % 1022,1 hPa 0,0 l/m 4,8 km/h (1 Bft) W-SW 252 0 min 0,000 mm 0,0 UV-I 7 W/m -0,4 C 6,8 C 8,0 km/h (2 Bft) 88,68 %
23.04.2017 20:10 6,7 C 59 % 1022,1 hPa 0,0 l/m 8,1 km/h (2 Bft) W-SW 257 0 min 0,000 mm 0,0 UV-I 5 W/m -0,7 C 5,3 C 16,1 km/h (3 Bft) 97,44 %
23.04.2017 20:12 6,7 C 60 % 1022,1 hPa 0,0 l/m 5,3 km/h (1 Bft) W-SW 254 0 min 0,000 mm 0,0 UV-I 5 W/m -0,5 C 6,7 C 11,3 km/h (2 Bft) 91,49 %
23.04.2017 20:14 6,6 C 60 % 1022,1 hPa 0,0 l/m 7,5 km/h (2 Bft) SW 233 0 min 0,000 mm 0,0 UV-I 5 W/m -0,6 C 5,7 C 12,9 km/h (3 Bft) 97,73 %
23.04.2017 20:16 6,6 C 60 % 1022,2 hPa 0,0 l/m 6,5 km/h (2 Bft) W 281 0 min 0,000 mm 0,0 UV-I 5 W/m -0,6 C 6,5 C 12,9 km/h (3 Bft) 94,64 %
23.04.2017 20:18 6,6 C 60 % 1022,2 hPa 0,0 l/m 5,6 km/h (1 Bft) W 264 0 min 0,000 mm 0,0 UV-I 5 W/m -0,6 C 6,6 C 11,3 km/h (2 Bft) 94,00 %
23.04.2017 20:20 6,6 C 60 % 1022,2 hPa 0,0 l/m 6,9 km/h (2 Bft) W 261 0 min 0,000 mm 0,0 UV-I 5 W/m -0,6 C 6,2 C 11,3 km/h (2 Bft) 94,74 %
23.04.2017 20:22 6,6 C 60 % 1022,2 hPa 0,0 l/m 5,5 km/h (1 Bft) W-SW 254 0 min 0,000 mm 0,0 UV-I 2 W/m -0,6 C 6,6 C 9,7 km/h (2 Bft) 96,43 %
23.04.2017 20:24 6,6 C 60 % 1022,2 hPa 0,0 l/m 6,8 km/h (2 Bft) W-SW 255 0 min 0,000 mm 0,0 UV-I 0 W/m -0,6 C 6,3 C 14,5 km/h (3 Bft) 93,62 %
23.04.2017 20:26 6,6 C 60 % 1022,3 hPa 0,0 l/m 5,2 km/h (1 Bft) W 266 0 min 0,000 mm 0,0 UV-I 0 W/m -0,6 C 6,6 C 9,7 km/h (2 Bft) 92,11 %
23.04.2017 20:28 6,6 C 60 % 1022,4 hPa 0,0 l/m 5,7 km/h (1 Bft) W-SW 250 0 min 0,000 mm 0,0 UV-I 0 W/m -0,6 C 6,6 C 9,7 km/h (2 Bft) 94,34 %
23.04.2017 20:30 6,5 C 61 % 1022,4 hPa 0,0 l/m 6,1 km/h (2 Bft) W-SW 243 0 min 0,000 mm 0,0 UV-I 0 W/m -0,5 C 6,5 C 11,3 km/h (2 Bft) 90,91 %
23.04.2017 20:32 6,5 C 61 % 1022,3 hPa 0,0 l/m 4,8 km/h (1 Bft) W 261 0 min 0,000 mm 0,0 UV-I 0 W/m -0,5 C 6,5 C 9,7 km/h (2 Bft) 95,12 %
23.04.2017 20:34 6,5 C 61 % 1022,3 hPa 0,0 l/m 5,0 km/h (1 Bft) W-SW 257 0 min 0,000 mm 0,0 UV-I 0 W/m -0,5 C 6,5 C 9,7 km/h (2 Bft) 92,86 %
23.04.2017 20:36 6,4 C 62 % 1022,4 hPa 0,0 l/m 6,4 km/h (2 Bft) W-SW 256 0 min 0,000 mm 0,0 UV-I 0 W/m -0,3 C 6,4 C 11,3 km/h (2 Bft) 98,00 %
23.04.2017 20:38 6,4 C 60 % 1022,3 hPa 0,0 l/m 6,7 km/h (2 Bft) W 279 0 min 0,000 mm 0,0 UV-I 0 W/m -0,8 C 6,2 C 11,3 km/h (2 Bft) 95,74 %
23.04.2017 20:40 6,5 C 61 % 1022,3 hPa 0,0 l/m 5,5 km/h (1 Bft) W 268 0 min 0,000 mm 0,0 UV-I 0 W/m -0,5 C 6,5 C 11,3 km/h (2 Bft) 95,12 %
23.04.2017 20:42 6,5 C 61 % 1022,3 hPa 0,0 l/m 4,1 km/h (1 Bft) W 259 0 min 0,000 mm 0,0 UV-I 0 W/m -0,5 C 6,5 C 11,3 km/h (2 Bft) 95,12 %
23.04.2017 20:44 6,4 C 61 % 1022,4 hPa 0,0 l/m 6,4 km/h (2 Bft) W-SW 254 0 min 0,000 mm 0,0 UV-I 0 W/m -0,6 C 6,4 C 12,9 km/h (3 Bft) 97,87 %
23.04.2017 20:46 6,4 C 61 % 1022,4 hPa 0,0 l/m 4,9 km/h (1 Bft) W-SW 252 0 min 0,000 mm 0,0 UV-I 0 W/m -0,6 C 6,4 C 6,4 km/h (2 Bft) 92,00 %
23.04.2017 20:48 6,4 C 61 % 1022,4 hPa 0,0 l/m 5,8 km/h (2 Bft) W 281 0 min 0,000 mm 0,0 UV-I 0 W/m -0,6 C 6,4 C 9,7 km/h (2 Bft) 98,11 %
23.04.2017 20:50 6,3 C 62 % 1022,6 hPa 0,0 l/m 5,1 km/h (1 Bft) W 261 0 min 0,000 mm 0,0 UV-I 0 W/m -0,4 C 6,3 C 6,4 km/h (2 Bft) 97,22 %
23.04.2017 20:52 6,3 C 62 % 1022,6 hPa 0,0 l/m 5,9 km/h (2 Bft) W-SW 254 0 min 0,000 mm 0,0 UV-I 0 W/m -0,4 C 6,3 C 9,7 km/h (2 Bft) 98,11 %
23.04.2017 20:54 6,3 C 62 % 1022,6 hPa 0,0 l/m 5,7 km/h (1 Bft) SW 233 0 min 0,000 mm 0,0 UV-I 0 W/m -0,4 C 6,3 C 9,7 km/h (2 Bft) 94,00 %
23.04.2017 20:56 6,3 C 62 % 1022,6 hPa 0,0 l/m 6,2 km/h (2 Bft) W-SW 250 0 min 0,000 mm 0,0 UV-I 0 W/m -0,4 C 6,3 C 9,7 km/h (2 Bft) 95,45 %
23.04.2017 20:58 6,3 C 62 % 1022,7 hPa 0,0 l/m 7,5 km/h (2 Bft) SW 229 0 min 0,000 mm 0,0 UV-I 0 W/m -0,4 C 5,4 C 12,9 km/h (3 Bft) 95,74 %
23.04.2017 21:00 6,3 C 62 % 1022,7 hPa 0,0 l/m 6,7 km/h (2 Bft) W-SW 249 0 min 0,025 mm 0,0 UV-I 0 W/m -0,4 C 6,1 C 9,7 km/h (2 Bft) 96,23 %
23.04.2017 21:02 6,3 C 62 % 1022,7 hPa 0,0 l/m 8,1 km/h (2 Bft) W 259 0 min 0,000 mm 0,0 UV-I 0 W/m -0,4 C 4,9 C 12,9 km/h (3 Bft) 97,37 %
23.04.2017 21:04 6,4 C 62 % 1022,7 hPa 0,0 l/m 6,2 km/h (2 Bft) W-SW 255 0 min 0,000 mm 0,0 UV-I 0 W/m -0,3 C 6,4 C 9,7 km/h (2 Bft) 95,74 %
23.04.2017 21:06 6,4 C 63 % 1022,7 hPa 0,0 l/m 5,5 km/h (1 Bft) W-SW 255 0 min 0,000 mm 0,0 UV-I 0 W/m -0,1 C 6,4 C 8,0 km/h (2 Bft) 94,00 %
23.04.2017 21:08 6,4 C 63 % 1022,8 hPa 0,0 l/m 6,0 km/h (2 Bft) W-SW 252 0 min 0,000 mm 0,0 UV-I 0 W/m -0,1 C 6,4 C 11,3 km/h (2 Bft) 97,37 %
23.04.2017 21:10 6,4 C 62 % 1022,8 hPa 0,0 l/m 7,3 km/h (2 Bft) SW 231 0 min 0,000 mm 0,0 UV-I 0 W/m -0,3 C 5,6 C 11,3 km/h (2 Bft) 94,00 %
23.04.2017 21:12 6,3 C 63 % 1022,9 hPa 0,0 l/m 6,6 km/h (2 Bft) W 262 0 min 0,000 mm 0,0 UV-I 0 W/m -0,2 C 6,2 C 9,7 km/h (2 Bft) 98,25 %
23.04.2017 21:14 6,3 C 63 % 1022,9 hPa 0,0 l/m 6,4 km/h (2 Bft) W-SW 243 0 min 0,000 mm 0,0 UV-I 0 W/m -0,2 C 6,3 C 11,3 km/h (2 Bft) 95,74 %
23.04.2017 21:16 6,3 C 63 % 1023,0 hPa 0,0 l/m 7,5 km/h (2 Bft) W-SW 251 0 min 0,000 mm 0,0 UV-I 0 W/m -0,2 C 5,4 C 11,3 km/h (2 Bft) 92,68 %
23.04.2017 21:18 6,3 C 63 % 1022,9 hPa 0,0 l/m 5,9 km/h (2 Bft) W-SW 256 0 min 0,000 mm 0,0 UV-I 0 W/m -0,2 C 6,3 C 9,7 km/h (2 Bft) 96,23 %
23.04.2017 21:20 6,3 C 63 % 1022,9 hPa 0,0 l/m 6,1 km/h (2 Bft) W-SW 252 0 min 0,000 mm 0,0 UV-I 0 W/m -0,2 C 6,3 C 9,7 km/h (2 Bft) 94,74 %
23.04.2017 21:22 6,2 C 64 % 1023,0 hPa 0,0 l/m 6,3 km/h (2 Bft) W-SW 249 0 min 0,000 mm 0,0 UV-I 0 W/m -0,1 C 6,2 C 8,0 km/h (2 Bft) 91,49 %
23.04.2017 21:24 6,2 C 64 % 1022,9 hPa 0,0 l/m 5,4 km/h (1 Bft) W-SW 250 0 min 0,000 mm 0,0 UV-I 0 W/m -0,1 C 6,2 C 8,0 km/h (2 Bft) 98,11 %
23.04.2017 21:26 6,1 C 64 % 1023,0 hPa 0,0 l/m 7,1 km/h (2 Bft) W-SW 237 0 min 0,000 mm 0,0 UV-I 0 W/m -0,2 C 5,5 C 9,7 km/h (2 Bft) 95,45 %
23.04.2017 21:28 6,1 C 64 % 1023,0 hPa 0,0 l/m 6,6 km/h (2 Bft) W-SW 257 0 min 0,000 mm 0,0 UV-I 0 W/m -0,2 C 6,0 C 11,3 km/h (2 Bft) 97,62 %
23.04.2017 21:30 6,1 C 64 % 1023,1 hPa 0,0 l/m 5,3 km/h (1 Bft) W-SW 247 0 min 0,000 mm 0,0 UV-I 0 W/m -0,2 C 6,1 C 9,7 km/h (2 Bft) 96,00 %
23.04.2017 21:32 6,1 C 64 % 1023,1 hPa 0,0 l/m 5,8 km/h (2 Bft) SW 234 0 min 0,000 mm 0,0 UV-I 0 W/m -0,2 C 6,1 C 11,3 km/h (2 Bft) 98,00 %
23.04.2017 21:34 6,1 C 64 % 1023,1 hPa 0,0 l/m 5,2 km/h (1 Bft) SW 234 0 min 0,000 mm 0,0 UV-I 0 W/m -0,2 C 6,1 C 6,4 km/h (2 Bft) 92,00 %
23.04.2017 21:36 6,1 C 64 % 1023,1 hPa 0,0 l/m 6,6 km/h (2 Bft) W-SW 246 0 min 0,000 mm 0,0 UV-I 0 W/m -0,2 C 6,0 C 9,7 km/h (2 Bft) 94,74 %
23.04.2017 21:38 6,0 C 64 % 1023,1 hPa 0,0 l/m 6,4 km/h (2 Bft) W-SW 242 0 min 0,000 mm 0,0 UV-I 0 W/m -0,3 C 6,0 C 11,3 km/h (2 Bft) 89,29 %
23.04.2017 21:40 6,0 C 64 % 1023,2 hPa 0,0 l/m 6,3 km/h (2 Bft) W-SW 248 0 min 0,000 mm 0,0 UV-I 0 W/m -0,3 C 6,0 C 9,7 km/h (2 Bft) 96,55 %
23.04.2017 21:42 6,0 C 64 % 1023,2 hPa 0,0 l/m 6,4 km/h (2 Bft) W-SW 254 0 min 0,000 mm 0,0 UV-I 0 W/m -0,3 C 6,0 C 8,0 km/h (2 Bft) 92,86 %
23.04.2017 21:44 6,0 C 64 % 1023,2 hPa 0,0 l/m 5,2 km/h (1 Bft) W-SW 254 0 min 0,000 mm 0,0 UV-I 0 W/m -0,3 C 6,0 C 6,4 km/h (2 Bft) 98,21 %
23.04.2017 21:46 6,0 C 64 % 1023,3 hPa 0,0 l/m 5,0 km/h (1 Bft) W-SW 254 0 min 0,000 mm 0,0 UV-I 0 W/m -0,3 C 6,0 C 6,4 km/h (2 Bft) 97,37 %
23.04.2017 21:48 5,9 C 64 % 1023,3 hPa 0,0 l/m 5,6 km/h (1 Bft) W-SW 246 0 min 0,000 mm 0,0 UV-I 0 W/m -0,4 C 5,9 C 8,0 km/h (2 Bft) 100,00 %
23.04.2017 21:50 5,9 C 64 % 1023,3 hPa 0,0 l/m 5,0 km/h (1 Bft) W-SW 242 0 min 0,000 mm 0,0 UV-I 0 W/m -0,4 C 5,9 C 6,4 km/h (2 Bft) 100,00 %
23.04.2017 21:52 5,9 C 64 % 1023,3 hPa 0,0 l/m 6,6 km/h (2 Bft) SW 234 0 min 0,000 mm 0,0 UV-I 0 W/m -0,4 C 5,8 C 9,7 km/h (2 Bft) 97,73 %
23.04.2017 21:54 5,9 C 64 % 1023,3 hPa 0,0 l/m 6,6 km/h (2 Bft) SW 229 0 min 0,000 mm 0,0 UV-I 0 W/m -0,4 C 5,8 C 9,7 km/h (2 Bft) 97,87 %
23.04.2017 21:56 5,9 C 65 % 1023,3 hPa 0,0 l/m 7,0 km/h (2 Bft) SW 230 0 min 0,000 mm 0,0 UV-I 0 W/m -0,2 C 5,4 C 9,7 km/h (2 Bft) 97,56 %
23.04.2017 21:58 5,8 C 66 % 1023,3 hPa 0,0 l/m 4,9 km/h (1 Bft) SW 229 0 min 0,000 mm 0,0 UV-I 0 W/m -0,0 C 5,8 C 6,4 km/h (2 Bft) 98,11 %
23.04.2017 22:00 5,8 C 66 % 1023,3 hPa 0,0 l/m 5,4 km/h (1 Bft) SW 229 0 min 0,000 mm 0,0 UV-I 0 W/m -0,0 C 5,8 C 8,0 km/h (2 Bft) 100,00 %
23.04.2017 22:02 5,7 C 66 % 1023,3 hPa 0,0 l/m 6,5 km/h (2 Bft) SW 219 0 min 0,026 mm 0,0 UV-I 0 W/m -0,1 C 5,6 C 8,0 km/h (2 Bft) 100,00 %
23.04.2017 22:04 5,7 C 67 % 1023,3 hPa 0,0 l/m 6,4 km/h (2 Bft) SW 232 0 min 0,000 mm 0,0 UV-I 0 W/m 0,1 C 5,7 C 8,0 km/h (2 Bft) 100,00 %
23.04.2017 22:06 5,7 C 67 % 1023,4 hPa 0,0 l/m 7,0 km/h (2 Bft) SW 234 0 min 0,000 mm 0,0 UV-I 0 W/m 0,1 C 5,2 C 9,7 km/h (2 Bft) 98,73 %
23.04.2017 22:08 5,6 C 68 % 1023,4 hPa 0,0 l/m 7,2 km/h (2 Bft) W-SW 237 0 min 0,000 mm 0,0 UV-I 0 W/m 0,2 C 4,9 C 9,7 km/h (2 Bft) 100,00 %
23.04.2017 22:10 5,5 C 69 % 1023,4 hPa 0,0 l/m 5,7 km/h (1 Bft) SW 229 0 min 0,000 mm 0,0 UV-I 0 W/m 0,3 C 5,5 C 9,7 km/h (2 Bft) 98,00 %
23.04.2017 22:12 5,4 C 69 % 1023,4 hPa 0,0 l/m 5,6 km/h (1 Bft) SW 229 0 min 0,000 mm 0,0 UV-I 0 W/m 0,2 C 5,4 C 8,0 km/h (2 Bft) 100,00 %
23.04.2017 22:14 5,4 C 69 % 1023,3 hPa 0,0 l/m 6,2 km/h (2 Bft) W-SW 241 0 min 0,000 mm 0,0 UV-I 0 W/m 0,2 C 5,4 C 8,0 km/h (2 Bft) 94,34 %
23.04.2017 22:16 5,4 C 69 % 1023,3 hPa 0,0 l/m 5,9 km/h (2 Bft) SW 234 0 min 0,000 mm 0,0 UV-I 0 W/m 0,2 C 5,4 C 8,0 km/h (2 Bft) 97,37 %
23.04.2017 22:18 5,3 C 69 % 1023,4 hPa 0,0 l/m 6,1 km/h (2 Bft) SW 221 0 min 0,000 mm 0,0 UV-I 0 W/m 0,1 C 5,3 C 9,7 km/h (2 Bft) 96,36 %
23.04.2017 22:20 5,3 C 69 % 1023,4 hPa 0,0 l/m 4,8 km/h (1 Bft) SW 225 0 min 0,000 mm 0,0 UV-I 0 W/m 0,1 C 5,3 C 9,7 km/h (2 Bft) 95,74 %
23.04.2017 22:22 5,3 C 69 % 1023,4 hPa 0,0 l/m 5,9 km/h (2 Bft) S-SW 210 0 min 0,000 mm 0,0 UV-I 0 W/m 0,1 C 5,3 C 9,7 km/h (2 Bft) 96,23 %
23.04.2017 22:24 5,3 C 69 % 1023,4 hPa 0,0 l/m 5,6 km/h (1 Bft) W-SW 240 0 min 0,000 mm 0,0 UV-I 0 W/m 0,1 C 5,3 C 8,0 km/h (2 Bft) 94,74 %
23.04.2017 22:26 5,3 C 69 % 1023,4 hPa 0,0 l/m 5,7 km/h (1 Bft) W-SW 242 0 min 0,000 mm 0,0 UV-I 0 W/m 0,1 C 5,3 C 8,0 km/h (2 Bft) 96,00 %
23.04.2017 22:29 5,3 C 69 % 1023,4 hPa 0,0 l/m 5,5 km/h (1 Bft) SW 224 0 min 0,000 mm 0,0 UV-I 0 W/m 0,1 C 5,3 C 9,7 km/h (2 Bft) 93,42 %
23.04.2017 22:30 5,3 C 69 % 1023,4 hPa 0,0 l/m 6,3 km/h (2 Bft) SW 234 0 min 0,000 mm 0,0 UV-I 0 W/m 0,1 C 5,3 C 11,3 km/h (2 Bft) 83,33 %
23.04.2017 22:32 5,3 C 69 % 1023,4 hPa 0,0 l/m 6,7 km/h (2 Bft) SW 236 0 min 0,000 mm 0,0 UV-I 0 W/m 0,1 C 5,1 C 11,3 km/h (2 Bft) 98,11 %
23.04.2017 22:34 5,4 C 69 % 1023,4 hPa 0,0 l/m 6,3 km/h (2 Bft) W-SW 248 0 min 0,000 mm 0,0 UV-I 0 W/m 0,2 C 5,4 C 9,7 km/h (2 Bft) 96,00 %
23.04.2017 22:36 5,4 C 69 % 1023,4 hPa 0,0 l/m 7,1 km/h (2 Bft) SW 226 0 min 0,000 mm 0,0 UV-I 0 W/m 0,2 C 4,8 C 9,7 km/h (2 Bft) 97,56 %
23.04.2017 22:38 5,4 C 69 % 1023,4 hPa 0,0 l/m 7,4 km/h (2 Bft) SW 221 0 min 0,000 mm 0,0 UV-I 0 W/m 0,2 C 4,5 C 11,3 km/h (2 Bft) 95,12 %
23.04.2017 22:40 5,4 C 69 % 1023,4 hPa 0,0 l/m 6,3 km/h (2 Bft) W-SW 245 0 min 0,000 mm 0,0 UV-I 0 W/m 0,2 C 5,4 C 9,7 km/h (2 Bft) 98,11 %
23.04.2017 22:42 5,4 C 68 % 1023,4 hPa 0,0 l/m 8,3 km/h (2 Bft) SW 235 0 min 0,000 mm 0,0 UV-I 0 W/m -0,0 C 3,8 C 12,9 km/h (3 Bft) 95,12 %
23.04.2017 22:44 5,4 C 68 % 1023,3 hPa 0,0 l/m 7,2 km/h (2 Bft) SW 231 0 min 0,000 mm 0,0 UV-I 0 W/m -0,0 C 4,7 C 11,3 km/h (2 Bft) 93,33 %
23.04.2017 22:46 5,4 C 68 % 1023,3 hPa 0,0 l/m 8,9 km/h (2 Bft) SW 227 0 min 0,000 mm 0,0 UV-I 0 W/m -0,0 C 3,3 C 12,9 km/h (3 Bft) 96,72 %
23.04.2017 22:48 5,4 C 68 % 1023,4 hPa 0,0 l/m 8,8 km/h (2 Bft) SW 216 0 min 0,000 mm 0,0 UV-I 0 W/m -0,0 C 3,4 C 11,3 km/h (2 Bft) 97,87 %
23.04.2017 22:50 5,4 C 68 % 1023,4 hPa 0,0 l/m 7,9 km/h (2 Bft) SW 233 0 min 0,000 mm 0,0 UV-I 0 W/m -0,0 C 4,1 C 9,7 km/h (2 Bft) 100,00 %
23.04.2017 22:52 5,4 C 68 % 1023,4 hPa 0,0 l/m 9,2 km/h (2 Bft) SW 229 0 min 0,000 mm 0,0 UV-I 0 W/m -0,0 C 3,1 C 12,9 km/h (3 Bft) 98,00 %
23.04.2017 22:54 5,4 C 67 % 1023,4 hPa 0,0 l/m 7,6 km/h (2 Bft) SW 227 0 min 0,000 mm 0,0 UV-I 0 W/m -0,2 C 4,4 C 9,7 km/h (2 Bft) 100,00 %
23.04.2017 22:56 5,4 C 67 % 1023,4 hPa 0,0 l/m 7,6 km/h (2 Bft) SW 236 0 min 0,000 mm 0,0 UV-I 0 W/m -0,2 C 4,4 C 11,3 km/h (2 Bft) 100,00 %
23.04.2017 22:58 5,4 C 67 % 1023,3 hPa 0,0 l/m 8,0 km/h (2 Bft) SW 230 0 min 0,000 mm 0,0 UV-I 0 W/m -0,2 C 4,0 C 11,3 km/h (2 Bft) 100,00 %
23.04.2017 23:00 5,5 C 67 % 1023,4 hPa 0,0 l/m 8,1 km/h (2 Bft) SW 234 0 min 0,000 mm 0,0 UV-I 0 W/m -0,1 C 4,0 C 12,9 km/h (3 Bft) 100,00 %
23.04.2017 23:02 5,5 C 67 % 1023,4 hPa 0,0 l/m 6,8 km/h (2 Bft) SW 227 0 min 0,025 mm 0,0 UV-I 0 W/m -0,1 C 5,2 C 9,7 km/h (2 Bft) 97,37 %
23.04.2017 23:04 5,5 C 67 % 1023,4 hPa 0,0 l/m 7,2 km/h (2 Bft) SW 221 0 min 0,000 mm 0,0 UV-I 0 W/m -0,1 C 4,8 C 11,3 km/h (2 Bft) 100,00 %
23.04.2017 23:06 5,5 C 67 % 1023,4 hPa 0,0 l/m 6,9 km/h (2 Bft) SW 232 0 min 0,000 mm 0,0 UV-I 0 W/m -0,1 C 5,1 C 11,3 km/h (2 Bft) 97,37 %
23.04.2017 23:08 5,5 C 67 % 1023,3 hPa 0,0 l/m 7,1 km/h (2 Bft) SW 223 0 min 0,000 mm 0,0 UV-I 0 W/m -0,1 C 4,9 C 12,9 km/h (3 Bft) 98,15 %
23.04.2017 23:10 5,5 C 67 % 1023,4 hPa 0,0 l/m 7,0 km/h (2 Bft) W-SW 256 0 min 0,000 mm 0,0 UV-I 0 W/m -0,1 C 5,0 C 9,7 km/h (2 Bft) 97,56 %
23.04.2017 23:12 5,5 C 67 % 1023,4 hPa 0,0 l/m 7,5 km/h (2 Bft) SW 222 0 min 0,000 mm 0,0 UV-I 0 W/m -0,1 C 4,5 C 9,7 km/h (2 Bft) 100,00 %
23.04.2017 23:14 5,5 C 67 % 1023,4 hPa 0,0 l/m 7,6 km/h (2 Bft) W-SW 240 0 min 0,000 mm 0,0 UV-I 0 W/m -0,1 C 4,5 C 9,7 km/h (2 Bft) 100,00 %
23.04.2017 23:16 5,5 C 67 % 1023,3 hPa 0,0 l/m 7,0 km/h (2 Bft) SW 231 0 min 0,000 mm 0,0 UV-I 0 W/m -0,1 C 5,0 C 9,7 km/h (2 Bft) 100,00 %
23.04.2017 23:18 5,5 C 67 % 1023,3 hPa 0,0 l/m 7,7 km/h (2 Bft) SW 234 0 min 0,000 mm 0,0 UV-I 0 W/m -0,1 C 4,4 C 11,3 km/h (2 Bft) 97,87 %
23.04.2017 23:20 5,5 C 67 % 1023,4 hPa 0,0 l/m 6,8 km/h (2 Bft) SW 225 0 min 0,000 mm 0,0 UV-I 0 W/m -0,1 C 5,2 C 8,0 km/h (2 Bft) 98,11 %
23.04.2017 23:22 5,4 C 68 % 1023,4 hPa 0,0 l/m 6,7 km/h (2 Bft) SW 232 0 min 0,000 mm 0,0 UV-I 0 W/m -0,0 C 5,2 C 9,7 km/h (2 Bft) 100,00 %
23.04.2017 23:24 5,4 C 68 % 1023,3 hPa 0,0 l/m 7,5 km/h (2 Bft) SW 229 0 min 0,000 mm 0,0 UV-I 0 W/m -0,0 C 4,4 C 12,9 km/h (3 Bft) 98,11 %
23.04.2017 23:26 5,4 C 69 % 1023,3 hPa 0,0 l/m 6,5 km/h (2 Bft) SW 226 0 min 0,000 mm 0,0 UV-I 0 W/m 0,2 C 5,3 C 9,7 km/h (2 Bft) 100,00 %
23.04.2017 23:28 5,4 C 68 % 1023,3 hPa 0,0 l/m 5,5 km/h (1 Bft) W-SW 244 0 min 0,000 mm 0,0 UV-I 0 W/m -0,0 C 5,4 C 8,0 km/h (2 Bft) 96,15 %
23.04.2017 23:30 5,4 C 68 % 1023,4 hPa 0,0 l/m 6,6 km/h (2 Bft) SW 234 0 min 0,000 mm 0,0 UV-I 0 W/m -0,0 C 5,2 C 9,7 km/h (2 Bft) 97,62 %
23.04.2017 23:32 5,4 C 68 % 1023,3 hPa 0,0 l/m 7,1 km/h (2 Bft) SW 234 0 min 0,000 mm 0,0 UV-I 0 W/m -0,0 C 4,8 C 11,3 km/h (2 Bft) 96,23 %
23.04.2017 23:34 5,4 C 68 % 1023,3 hPa 0,0 l/m 4,3 km/h (1 Bft) SW 225 0 min 0,000 mm 0,0 UV-I 0 W/m -0,0 C 5,4 C 6,4 km/h (2 Bft) 98,00 %
23.04.2017 23:36 5,4 C 68 % 1023,3 hPa 0,0 l/m 3,6 km/h (1 Bft) SW 227 0 min 0,000 mm 0,0 UV-I 0 W/m -0,0 C 5,4 C 4,8 km/h (1 Bft) 97,56 %
23.04.2017 23:38 5,4 C 68 % 1023,3 hPa 0,0 l/m 5,3 km/h (1 Bft) SW 226 0 min 0,000 mm 0,0 UV-I 0 W/m -0,0 C 5,4 C 9,7 km/h (2 Bft) 97,37 %
23.04.2017 23:40 5,4 C 68 % 1023,3 hPa 0,0 l/m 4,9 km/h (1 Bft) W-SW 240 0 min 0,000 mm 0,0 UV-I 0 W/m -0,0 C 5,4 C 6,4 km/h (2 Bft) 98,18 %
23.04.2017 23:42 5,4 C 68 % 1023,3 hPa 0,0 l/m 4,2 km/h (1 Bft) W-SW 246 0 min 0,000 mm 0,0 UV-I 0 W/m -0,0 C 5,4 C 6,4 km/h (2 Bft) 96,23 %
23.04.2017 23:44 5,3 C 68 % 1023,2 hPa 0,0 l/m 5,0 km/h (1 Bft) W-SW 245 0 min 0,000 mm 0,0 UV-I 0 W/m -0,1 C 5,3 C 6,4 km/h (2 Bft) 100,00 %
23.04.2017 23:46 5,3 C 69 % 1023,2 hPa 0,0 l/m 4,0 km/h (1 Bft) W-SW 245 0 min 0,000 mm 0,0 UV-I 0 W/m 0,1 C 5,3 C 6,4 km/h (2 Bft) 98,00 %
23.04.2017 23:48 5,3 C 69 % 1023,2 hPa 0,0 l/m 3,7 km/h (1 Bft) W-SW 245 0 min 0,000 mm 0,0 UV-I 0 W/m 0,1 C 5,3 C 6,4 km/h (2 Bft) 97,37 %
23.04.2017 23:50 5,3 C 69 % 1023,2 hPa 0,0 l/m 4,0 km/h (1 Bft) W-SW 245 0 min 0,000 mm 0,0 UV-I 0 W/m 0,1 C 5,3 C 6,4 km/h (2 Bft) 97,37 %
23.04.2017 23:52 5,3 C 70 % 1023,2 hPa 0,0 l/m 4,0 km/h (1 Bft) W-SW 245 0 min 0,000 mm 0,0 UV-I 0 W/m 0,3 C 5,3 C 4,8 km/h (1 Bft) 100,00 %
23.04.2017 23:54 5,2 C 70 % 1023,3 hPa 0,0 l/m 3,8 km/h (1 Bft) W-SW 245 0 min 0,000 mm 0,0 UV-I 0 W/m 0,2 C 5,2 C 4,8 km/h (1 Bft) 96,30 %
23.04.2017 23:56 5,2 C 70 % 1023,2 hPa 0,0 l/m 3,7 km/h (1 Bft) W-SW 245 0 min 0,000 mm 0,0 UV-I 0 W/m 0,2 C 5,2 C 4,8 km/h (1 Bft) 96,88 %
23.04.2017 23:58 5,2 C 71 % 1023,2 hPa 0,0 l/m 4,2 km/h (1 Bft) W-SW 245 0 min 0,000 mm 0,0 UV-I 0 W/m 0,4 C 5,2 C 6,4 km/h (2 Bft) 100,00 %
_ Min-Zeit 00:32 14:54 03:16 - 00:46 - - - - - - 20:02 04:02 00:46 22:30
Minimum _ 3,4 C 50 % 1018,9 hPa - 0,1 km/h (0 Bft) - - - - - - -0,9 C -6,3 C 1,6 km/h (1 Bft) 83,33 %
_ Max-Zeit 14:50 01:12 22:06 00:04 04:02 - - 08:08 13:00 12:44 13:00 01:20 15:34 14:54 00:00
Maximum _ 9,9 C 93 % 1023,4 hPa 0,2 l/m 24,3 km/h
SW (4 Bft)
- - 2 min 0,305 mm 4,6 UV-I 1100 W/m 3,8 C 9,6 C 45,1 km/h
W-SW (6 Bft)
100,00 %
Durchschnitt _ 6,2 C 74 % 1021,1 hPa #6,0 l/m 9,6 km/h (2 Bft) W-SW - #4:18 h #2,362 mm 1,9 UV-I 291 W/m 1,6 C 3,7 C 16,5 km/h (3 Bft) 96,74 %